Darstellungsparameter: Aktuell verwendete Einstellungen:
Skalierung der Graphiken ... ?
xyx+y,   Skalierungsfaktor:      Skalierung: Modus: x, Faktor: 1
Darstellungszeitraum ... ?
Vom - - bis: - -   Zeitraum: 27.01.2020 - 26.07.2020
Min/Max/Avg-Anzeige ... ?
Zeige MMA aktuell
Zeige MMA Monat
Zeige MMA alles
Zeige --A aktuell
Zeige --A Monat
Zeige --A alles
Keine MMA-Anzeige
MMA:
Average (ber die Originaldaten)
MMA-Basis: 23.02.2003 - 03.08.2020
Quicknavigation für Darstellung... ?
Tage:      1T, 2T, 3T, 5T -1T -2T -3T -5T +1T +2T +3T +5T
Wochen: 1W, 2W, 3W -1W -2W -3W +1W +2W +3W
Monate: 1M, 3M, 6M -1M -3M -6M +1M +3M +6M
Jahre:    1J, 3J, 5J, 10J -1J -3J -5J -10J +1J +3J +5J +10J
Nutze für die Darstellung ... ?
Originaldaten oder ...
Mittelwerte Minima Maxima auf...
Stundenbasis Tagesbasis Wochenbasis
Monatsbasis Jahresbasis      Datenbasis: Mittelwerte auf Stundenbasis
Darstellen als:
Statistik (Auto) Statistik J:M      Darstellung:
Zur Graphik,    zurück zur Übersicht aller Sensoren.
 
Tabellarische Datenbersicht: ?
 
Sensor: Nr:Datum:Temp:Abs-Feuchte:Windchill:Wind:
Aussen-T/F 1 27-01-2020 00:00:00 2.59167 C 5.6 g/m*3 2.59 C 0 km/h
2 27-01-2020 01:00:00 2.24167 C 5.43 g/m*3 2.24 C 0 km/h
3 27-01-2020 02:00:00 2.29167 C 5.48 g/m*3 2.29 C 0 km/h
4 27-01-2020 03:00:00 3.15 C 5.83 g/m*3 3.15 C 0.26667 km/h
5 27-01-2020 04:00:00 3.975 C 6.18 g/m*3 3.98 C 0.66667 km/h
6 27-01-2020 05:00:00 4.6 C 6.45 g/m*3 4.6 C 0 km/h
7 27-01-2020 06:00:00 5.66667 C 6.95 g/m*3 5.67 C 3.08333 km/h
8 27-01-2020 07:00:00 6.66667 C 7.41 g/m*3 6.67 C 2.54167 km/h
9 27-01-2020 08:00:00 6.5 C 7.27 g/m*3 6.5 C 2.4 km/h
10 27-01-2020 09:00:00 7.21667 C 7.54 g/m*3 7.22 C 3.49167 km/h
11 27-01-2020 10:00:00 8.36667 C 7.63 g/m*3 8.37 C 4 km/h
12 27-01-2020 11:00:00 8.65 C 7.67 g/m*3 8.65 C 3.88333 km/h
13 27-01-2020 12:00:00 9.1 C 7.76 g/m*3 8.18 C 6.99167 km/h
14 27-01-2020 13:00:00 8.975 C 7.66 g/m*3 7.52 C 9.39167 km/h
15 27-01-2020 14:00:00 8.08333 C 7.63 g/m*3 8.08 C 3.34167 km/h
16 27-01-2020 15:00:00 7.75833 C 7.52 g/m*3 7.76 C 4.69167 km/h
17 27-01-2020 16:00:00 7.45 C 7.41 g/m*3 7.45 C 2 km/h
18 27-01-2020 17:00:00 7.25 C 7.33 g/m*3 7.25 C 2.66667 km/h
19 27-01-2020 18:00:00 7.24167 C 7.27 g/m*3 7.24 C 2.275 km/h
20 27-01-2020 19:00:00 7.28333 C 7.29 g/m*3 7.28 C 1.33333 km/h
21 27-01-2020 20:00:00 6.78333 C 7.18 g/m*3 6.78 C 1.46667 km/h
22 27-01-2020 21:00:00 6.33333 C 7.04 g/m*3 6.33 C 1.34167 km/h
23 27-01-2020 22:00:00 6.25833 C 7.01 g/m*3 6.26 C 3.475 km/h
24 27-01-2020 23:00:00 6.53333 C 7.12 g/m*3 6.53 C 4.41667 km/h
25 28-01-2020 00:00:00 6.9 C 7.15 g/m*3 5.63 C 6.96667 km/h
Sensor: Nr:Datum:Temp:Abs-Feuchte:Windchill:Wind:
Aussen-T/F 26 28-01-2020 01:00:00 7.61667 C 7.3 g/m*3 5.53 C 11.40833 km/h
27 28-01-2020 02:00:00 7.79167 C 7.34 g/m*3 5.44 C 13.29167 km/h
28 28-01-2020 03:00:00 8.03333 C 7.33 g/m*3 5.43 C 15.43333 km/h
29 28-01-2020 04:00:00 6.81667 C 7.02 g/m*3 5.26 C 8.04167 km/h
30 28-01-2020 05:00:00 6.63333 C 6.99 g/m*3 5.55 C 6.15833 km/h
31 28-01-2020 06:00:00 6.425 C 6.87 g/m*3 3.74 C 13.43333 km/h
32 28-01-2020 07:00:00 5.25 C 6.47 g/m*3 3.03 C 9.65833 km/h
33 28-01-2020 08:00:00 5.01667 C 6.38 g/m*3 2.81 C 9.41667 km/h
34 28-01-2020 09:00:00 4.94167 C 6.33 g/m*3 1.98 C 13.14167 km/h
35 28-01-2020 10:00:00 4.8 C 6.2 g/m*3 2.1 C 11.56667 km/h
36 28-01-2020 11:00:00 5.45833 C 6.3 g/m*3 1.99 C 17.3 km/h
37 28-01-2020 12:00:00 6.2 C 6.09 g/m*3 2.84 C 17.83333 km/h
38 28-01-2020 13:00:00 6.64167 C 5.88 g/m*3 3.43 C 17.56667 km/h
39 28-01-2020 14:00:00 6.33333 C 5.71 g/m*3 2.71 C 20.375 km/h
40 28-01-2020 15:00:00 6.35833 C 5.64 g/m*3 2.94 C 18.64167 km/h
41 28-01-2020 16:00:00 5.35833 C 5.42 g/m*3 2.31 C 14.225 km/h
42 28-01-2020 17:00:00 4.65 C 5.17 g/m*3 1.72 C 12.63333 km/h
43 28-01-2020 18:00:00 4.21667 C 5.18 g/m*3 1.45 C 11.275 km/h
44 28-01-2020 19:00:00 4.34167 C 5.19 g/m*3 1 C 14.63333 km/h
45 28-01-2020 20:00:00 4.34167 C 5.31 g/m*3 0.5 C 17.96667 km/h
46 28-01-2020 21:00:00 4.14167 C 5.33 g/m*3 1.07 C 12.76667 km/h
47 28-01-2020 22:00:00 4.05833 C 5.41 g/m*3 1.9 C 8.46667 km/h
48 28-01-2020 23:00:00 4.375 C 5.57 g/m*3 2.42 C 7.91667 km/h
49 29-01-2020 00:00:00 4.45833 C 5.62 g/m*3 1.66 C 11.7 km/h
50 29-01-2020 01:00:00 4 C 5.67 g/m*3 1.48 C 9.94167 km/h
Sensor: Nr:Datum:Temp:Abs-Feuchte:Windchill:Wind:
Aussen-T/F 51 29-01-2020 02:00:00 3.91667 C 5.71 g/m*3 0.92 C 12.1 km/h
52 29-01-2020 03:00:00 3.59167 C 5.69 g/m*3 2.23 C 5.64167 km/h
53 29-01-2020 04:00:00 3.475 C 5.64 g/m*3 3.48 C 4.425 km/h
54 29-01-2020 05:00:00 4.05833 C 5.65 g/m*3 1.67 C 9.40833 km/h
55 29-01-2020 06:00:00 3.975 C 5.59 g/m*3 1.95 C 7.93333 km/h
56 29-01-2020 07:00:00 4.18333 C 5.61 g/m*3 1.72 C 9.825 km/h
57 29-01-2020 08:00:00 4.425 C 5.6 g/m*3 1.81 C 10.75 km/h
58 29-01-2020 09:00:00 4.725 C 5.67 g/m*3 1.67 C 13.43333 km/h
59 29-01-2020 10:00:00 4.80833 C 5.79 g/m*3 2.11 C 11.56667 km/h
60 29-01-2020 11:00:00 5.45833 C 5.95 g/m*3 2.63 C 13.03333 km/h
61 29-01-2020 12:00:00 6.59167 C 5.99 g/m*3 3.75 C 14.76667 km/h
62 29-01-2020 13:00:00 7.16667 C 5.47 g/m*3 3.97 C 18.5 km/h
63 29-01-2020 14:00:00 7.5 C 5.2 g/m*3 4.44 C 18.1 km/h
64 29-01-2020 15:00:00 7.25833 C 5.05 g/m*3 4.05 C 18.775 km/h
65 29-01-2020 16:00:00 7.275 C 5.1 g/m*3 4.66 C 14.23333 km/h
66 29-01-2020 17:00:00 6.14167 C 5.17 g/m*3 4.43 C 8.18333 km/h
67 29-01-2020 18:00:00 4.31667 C 5.1 g/m*3 4.32 C 4.66667 km/h
68 29-01-2020 19:00:00 3.375 C 5.11 g/m*3 3.38 C 4 km/h
69 29-01-2020 20:00:00 2.86667 C 5.14 g/m*3 2.87 C 2.66667 km/h
70 29-01-2020 21:00:00 3.11667 C 5.37 g/m*3 3.12 C 4.275 km/h
71 29-01-2020 22:00:00 3.475 C 5.6 g/m*3 3.48 C 4.55 km/h
72 29-01-2020 23:00:00 5.05 C 6.08 g/m*3 3.6 C 6.55833 km/h
73 30-01-2020 00:00:00 5.8 C 6.19 g/m*3 3.89 C 8.75 km/h
74 30-01-2020 01:00:00 6.19167 C 6.27 g/m*3 3.85 C 11.15833 km/h
75 30-01-2020 02:00:00 6.25833 C 6.3 g/m*3 5.21 C 5.88333 km/h
Sensor: Nr:Datum:Temp:Abs-Feuchte:Windchill:Wind:
Aussen-T/F 76 30-01-2020 03:00:00 6.2 C 6.37 g/m*3 4.53 C 8.05 km/h
77 30-01-2020 04:00:00 6.15 C 6.31 g/m*3 3.75 C 11.425 km/h
78 30-01-2020 05:00:00 5.425 C 6.19 g/m*3 3.03 C 10.63333 km/h
79 30-01-2020 06:00:00 5.35 C 6.17 g/m*3 2.86 C 11.03333 km/h
80 30-01-2020 07:00:00 5.475 C 6.14 g/m*3 3.18 C 10.21667 km/h
81 30-01-2020 08:00:00 5.23333 C 6.15 g/m*3 5.23 C 2.55 km/h
82 30-01-2020 09:00:00 6.05 C 6.42 g/m*3 6.05 C 4.01667 km/h
83 30-01-2020 10:00:00 7 C 6.65 g/m*3 4.96 C 10.475 km/h
84 30-01-2020 11:00:00 7.78333 C 6.98 g/m*3 5.77 C 11.15833 km/h
85 30-01-2020 12:00:00 8.53333 C 7.16 g/m*3 5.97 C 16.1 km/h
86 30-01-2020 13:00:00 9.58333 C 7.24 g/m*3 7.8 C 12.09167 km/h
87 30-01-2020 14:00:00 10.39167 C 7.19 g/m*3 10.39 C 2.80833 km/h
88 30-01-2020 15:00:00 10.75833 C 7.12 g/m*3 10.76 C 2.53333 km/h
89 30-01-2020 16:00:00 10.04167 C 7.03 g/m*3 10.04 C 3.06667 km/h
90 30-01-2020 17:00:00 9.40833 C 7.22 g/m*3 9.41 C 4.81667 km/h
91 30-01-2020 18:00:00 9.56667 C 7.51 g/m*3 8.57 C 7.65 km/h
92 30-01-2020 19:00:00 9.3 C 7.92 g/m*3 8.14 C 8.19167 km/h
93 30-01-2020 20:00:00 9.725 C 8.13 g/m*3 7.71 C 13.96667 km/h
94 30-01-2020 21:00:00 10.15833 C 8.38 g/m*3 8.12 C 14.9 km/h
95 30-01-2020 22:00:00 10.575 C 8.69 g/m*3 8.18 C 19.16667 km/h
96 30-01-2020 23:00:00 11.00833 C 9.04 g/m*3 11.01 C 13.43333 km/h
97 31-01-2020 00:00:00 11.85 C 9.48 g/m*3 11.85 C 14.63333 km/h
98 31-01-2020 01:00:00 12.7 C 9.9 g/m*3 12.7 C 19.175 km/h
99 31-01-2020 02:00:00 13.225 C 10.05 g/m*3 13.23 C 22.24167 km/h
100 31-01-2020 03:00:00 13.23333 C 10.04 g/m*3 13.23 C 12.75833 km/h
Sensor: Nr:Datum:Temp:Abs-Feuchte:Windchill:Wind:
Aussen-T/F 101 31-01-2020 04:00:00 13.11667 C 10.05 g/m*3 13.12 C 11.825 km/h
102 31-01-2020 05:00:00 12.94167 C 9.95 g/m*3 12.94 C 9.00833 km/h
103 31-01-2020 06:00:00 12.85833 C 9.85 g/m*3 12.86 C 7.10833 km/h
104 31-01-2020 07:00:00 12.49167 C 9.68 g/m*3 12.49 C 5.49167 km/h
105 31-01-2020 08:00:00 12.66667 C 9.7 g/m*3 12.67 C 7.65833 km/h
106 31-01-2020 09:00:00 13.075 C 9.7 g/m*3 13.08 C 11.56667 km/h
107 31-01-2020 10:00:00 13.46667 C 9.69 g/m*3 13.47 C 12.76667 km/h
108 31-01-2020 11:00:00 13.73333 C 9.58 g/m*3 13.73 C 15.43333 km/h
109 31-01-2020 12:00:00 13.775 C 9.4 g/m*3 13.78 C 17.3 km/h
110 31-01-2020 13:00:00 14.40833 C 9.55 g/m*3 14.41 C 19.175 km/h
111 31-01-2020 14:00:00 14.30833 C 9.62 g/m*3 14.31 C 15.16667 km/h
112 31-01-2020 15:00:00 13.79167 C 9.43 g/m*3 13.79 C 18.90833 km/h
113 31-01-2020 16:00:00 13 C 9.18 g/m*3 13 C 15.16667 km/h
114 31-01-2020 17:00:00 12.5 C 8.98 g/m*3 12.5 C 16.9 km/h
115 31-01-2020 18:00:00 12.3 C 9.08 g/m*3 12.3 C 15.3 km/h
116 31-01-2020 19:00:00 12.70833 C 9.27 g/m*3 12.71 C 14.1 km/h
117 31-01-2020 20:00:00 12.61667 C 9.33 g/m*3 12.62 C 13.95833 km/h
118 31-01-2020 21:00:00 12.55833 C 9.39 g/m*3 12.56 C 18.50833 km/h
119 31-01-2020 22:00:00 12.78333 C 9.32 g/m*3 12.78 C 21.3 km/h
120 31-01-2020 23:00:00 12.8 C 9.37 g/m*3 12.8 C 15.55833 km/h
121 01-02-2020 00:00:00 12.76667 C 9.39 g/m*3 12.77 C 14.76667 km/h
122 01-02-2020 01:00:00 12.54167 C 9.28 g/m*3 12.54 C 10.48333 km/h
123 01-02-2020 02:00:00 12.15833 C 8.93 g/m*3 12.16 C 11.69167 km/h
124 01-02-2020 03:00:00 12.21667 C 9 g/m*3 12.22 C 14.89167 km/h
125 01-02-2020 04:00:00 12.25833 C 9.07 g/m*3 12.26 C 11.81667 km/h
Sensor: Nr:Datum:Temp:Abs-Feuchte:Windchill:Wind:
Aussen-T/F 126 01-02-2020 05:00:00 12.05833 C 9.13 g/m*3 12.06 C 8.05 km/h
127 01-02-2020 06:00:00 12.14167 C 9.3 g/m*3 12.14 C 8.46667 km/h
128 01-02-2020 07:00:00 12.325 C 9.47 g/m*3 12.33 C 10.75 km/h
129 01-02-2020 08:00:00 12.025 C 9.69 g/m*3 12.03 C 7.25 km/h
130 01-02-2020 09:00:00 12.05833 C 9.86 g/m*3 12.06 C 7.79167 km/h
131 01-02-2020 10:00:00 12.63333 C 10.13 g/m*3 12.63 C 12.35833 km/h
132 01-02-2020 11:00:00 12.66667 C 10.22 g/m*3 12.67 C 13.3 km/h
133 01-02-2020 12:00:00 12.6 C 10.24 g/m*3 12.6 C 13.96667 km/h
134 01-02-2020 13:00:00 12.53333 C 10.26 g/m*3 12.53 C 12.23333 km/h
135 01-02-2020 14:00:00 11.93333 C 10.03 g/m*3 11.93 C 8.725 km/h
136 01-02-2020 15:00:00 11.1 C 9.49 g/m*3 11.1 C 4.275 km/h
137 01-02-2020 16:00:00 11.06667 C 9.36 g/m*3 11.07 C 5.48333 km/h
138 01-02-2020 17:00:00 11.16667 C 9.22 g/m*3 11.17 C 8.875 km/h
139 01-02-2020 18:00:00 11.41667 C 8.94 g/m*3 11.42 C 9.14167 km/h
140 01-02-2020 19:00:00 11.20833 C 9.04 g/m*3 11.21 C 11.53333 km/h
141 01-02-2020 20:00:00 10.55 C 8.72 g/m*3 9.44 C 9.13333 km/h
142 01-02-2020 21:00:00 10 C 7.63 g/m*3 7.96 C 14.63333 km/h
143 01-02-2020 22:00:00 9.39167 C 7.16 g/m*3 7.54 C 12.23333 km/h
144 01-02-2020 23:00:00 8.58333 C 6.79 g/m*3 7.13 C 8.99167 km/h
145 02-02-2020 00:00:00 8.15 C 6.69 g/m*3 6.56 C 9.26667 km/h
146 02-02-2020 01:00:00 8.18333 C 6.73 g/m*3 6.52 C 9.66667 km/h
147 02-02-2020 02:00:00 8.15 C 6.78 g/m*3 6.23 C 11.03333 km/h
148 02-02-2020 03:00:00 8.18333 C 6.71 g/m*3 5.91 C 13.3 km/h
149 02-02-2020 04:00:00 7.83333 C 6.6 g/m*3 5.86 C 11.01667 km/h
150 02-02-2020 05:00:00 7.325 C 6.54 g/m*3 5.55 C 9.40833 km/h
Sensor: Nr:Datum:Temp:Abs-Feuchte:Windchill:Wind:
Aussen-T/F 151 02-02-2020 06:00:00 7.2 C 6.67 g/m*3 7.2 C 4.28333 km/h
152 02-02-2020 07:00:00 7.10833 C 7.07 g/m*3 7.11 C 0.66667 km/h
153 02-02-2020 08:00:00 7.1 C 7.32 g/m*3 7.1 C 0.13333 km/h
154 02-02-2020 09:00:00 7.01667 C 7.37 g/m*3 7.02 C 0.13333 km/h
155 02-02-2020 10:00:00 7.44167 C 7.66 g/m*3 7.44 C 0 km/h
156 02-02-2020 11:00:00 8.03333 C 7.96 g/m*3 8.03 C 1.475 km/h
157 02-02-2020 12:00:00 10.01667 C 9.16 g/m*3 9.1 C 7.65 km/h
158 02-02-2020 13:00:00 12.39167 C 10.24 g/m*3 12.39 C 18.63333 km/h
159 02-02-2020 14:00:00 13.28333 C 10.48 g/m*3 13.28 C 17.43333 km/h
160 02-02-2020 15:00:00 13.625 C 10.55 g/m*3 13.63 C 9.4 km/h
161 02-02-2020 16:00:00 14.01667 C 9.84 g/m*3 14.02 C 16.76667 km/h
162 02-02-2020 17:00:00 13.90833 C 9.11 g/m*3 13.91 C 16.63333 km/h
163 02-02-2020 18:00:00 13.26667 C 8.93 g/m*3 13.27 C 14.63333 km/h
164 02-02-2020 19:00:00 13.09167 C 8.49 g/m*3 13.09 C 19.725 km/h
165 02-02-2020 20:00:00 12.63333 C 8.54 g/m*3 12.63 C 13.15833 km/h
166 02-02-2020 21:00:00 12.34167 C 8.38 g/m*3 12.34 C 14.5 km/h
167 02-02-2020 22:00:00 12.21667 C 8.31 g/m*3 12.22 C 12.5 km/h
168 02-02-2020 23:00:00 11.95 C 8.27 g/m*3 11.95 C 8.875 km/h
169 03-02-2020 00:00:00 11.3 C 8.02 g/m*3 11.3 C 12.48333 km/h
170 03-02-2020 01:00:00 10.14167 C 8.02 g/m*3 8.79 C 10.09167 km/h
171 03-02-2020 02:00:00 10.475 C 8.04 g/m*3 8.05 C 19.18333 km/h
172 03-02-2020 03:00:00 10.70833 C 8.19 g/m*3 8.32 C 19.45 km/h
173 03-02-2020 04:00:00 10.35833 C 8.35 g/m*3 8.48 C 13.96667 km/h
174 03-02-2020 05:00:00 10.45 C 8.41 g/m*3 9.45 C 8.45 km/h
175 03-02-2020 06:00:00 10.56667 C 8.34 g/m*3 9.06 C 11.56667 km/h
Sensor: Nr:Datum:Temp:Abs-Feuchte:Windchill:Wind:
Aussen-T/F 176 03-02-2020 07:00:00 10.625 C 8.24 g/m*3 9.19 C 11.16667 km/h
177 03-02-2020 08:00:00 10.36667 C 8.13 g/m*3 8.8 C 11.7 km/h
178 03-02-2020 09:00:00 10.49167 C 8.17 g/m*3 8.96 C 11.68333 km/h
179 03-02-2020 10:00:00 10.95 C 8.24 g/m*3 9.38 C 12.625 km/h
180 03-02-2020 11:00:00 12.05833 C 7.85 g/m*3 12.06 C 17.56667 km/h
181 03-02-2020 12:00:00 12.29167 C 7.73 g/m*3 12.29 C 17.16667 km/h
182 03-02-2020 13:00:00 12.26667 C 7.83 g/m*3 12.27 C 14.9 km/h
183 03-02-2020 14:00:00 12.175 C 8.06 g/m*3 12.18 C 15.83333 km/h
184 03-02-2020 15:00:00 12.1 C 7.97 g/m*3 12.1 C 13.43333 km/h
185 03-02-2020 16:00:00 11.99167 C 7.57 g/m*3 11.99 C 13.7 km/h
186 03-02-2020 17:00:00 11.45 C 7.67 g/m*3 11.45 C 8.31667 km/h
187 03-02-2020 18:00:00 10.95 C 7.69 g/m*3 10.01 C 8.58333 km/h
188 03-02-2020 19:00:00 9.875 C 7.94 g/m*3 9.12 C 6.85 km/h
189 03-02-2020 20:00:00 8.83333 C 8.06 g/m*3 8.83 C 0.8 km/h
190 03-02-2020 21:00:00 8.56667 C 8.07 g/m*3 8.57 C 0.26667 km/h
191 03-02-2020 22:00:00 8.09167 C 7.89 g/m*3 8.09 C 0.93333 km/h
192 03-02-2020 23:00:00 7.41667 C 7.56 g/m*3 7.42 C 4.29167 km/h
193 04-02-2020 00:00:00 6.43333 C 7.06 g/m*3 5.63 C 5.23333 km/h
194 04-02-2020 01:00:00 5.775 C 6.7 g/m*3 3.57 C 10.05833 km/h
195 04-02-2020 02:00:00 4.95833 C 6.27 g/m*3 1.61 C 15.56667 km/h
196 04-02-2020 03:00:00 4.80833 C 6.22 g/m*3 2.06 C 11.825 km/h
197 04-02-2020 04:00:00 4.8 C 6.15 g/m*3 2 C 12.08333 km/h
198 04-02-2020 05:00:00 4.56667 C 6.05 g/m*3 2.61 C 8.04167 km/h
199 04-02-2020 06:00:00 4.99167 C 5.95 g/m*3 3.14 C 7.94167 km/h
200 04-02-2020 07:00:00 4.81667 C 5.87 g/m*3 2.22 C 11.03333 km/h
Sensor: Nr:Datum:Temp:Abs-Feuchte:Windchill:Wind:
Aussen-T/F 201 04-02-2020 08:00:00 4.34167 C 5.79 g/m*3 1.24 C 13.16667 km/h
202 04-02-2020 09:00:00 4.4 C 5.85 g/m*3 1.7 C 11.15833 km/h
203 04-02-2020 10:00:00 4.50833 C 6.02 g/m*3 3.44 C 5.21667 km/h
204 04-02-2020 11:00:00 5.20833 C 6.16 g/m*3 2.47 C 12.23333 km/h
205 04-02-2020 12:00:00 4.675 C 6.02 g/m*3 1.95 C 11.525 km/h
206 04-02-2020 13:00:00 5.15 C 6.03 g/m*3 2.14 C 13.69167 km/h
207 04-02-2020 14:00:00 6.19167 C 5.82 g/m*3 3.27 C 14.63333 km/h
208 04-02-2020 15:00:00 5.85 C 5.92 g/m*3 2.93 C 14.1 km/h
209 04-02-2020 16:00:00 5.29167 C 6.02 g/m*3 2.72 C 11.43333 km/h
210 04-02-2020 17:00:00 5.1 C 6.06 g/m*3 3.24 C 8.05833 km/h
211 04-02-2020 18:00:00 4.98333 C 6.04 g/m*3 2.8 C 9.275 km/h
212 04-02-2020 19:00:00 5.05833 C 6.07 g/m*3 5.06 C 3.60833 km/h
213 04-02-2020 20:00:00 4.75833 C 6.09 g/m*3 4.76 C 3.2 km/h
214 04-02-2020 21:00:00 4.7 C 6.12 g/m*3 4.7 C 1.33333 km/h
215 04-02-2020 22:00:00 4.675 C 6.16 g/m*3 4.68 C 2.4 km/h
216 04-02-2020 23:00:00 4.675 C 6.1 g/m*3 4.68 C 2.13333 km/h
217 05-02-2020 00:00:00 4.79167 C 6.08 g/m*3 4.79 C 2.68333 km/h
218 05-02-2020 01:00:00 5.2 C 6.01 g/m*3 3.32 C 8.19167 km/h
219 05-02-2020 02:00:00 5.44167 C 6.04 g/m*3 3.71 C 7.775 km/h
220 05-02-2020 03:00:00 5.3 C 6.2 g/m*3 3.81 C 6.83333 km/h
221 05-02-2020 04:00:00 4.625 C 5.98 g/m*3 2.98 C 6.99167 km/h
222 05-02-2020 05:00:00 4.15833 C 5.83 g/m*3 4.16 C 4.675 km/h
223 05-02-2020 06:00:00 4.45833 C 5.99 g/m*3 4.46 C 4.95833 km/h
224 05-02-2020 07:00:00 4.04167 C 5.73 g/m*3 4.04 C 4.425 km/h
225 05-02-2020 08:00:00 3.1 C 5.48 g/m*3 3.1 C 0.93333 km/h
Sensor: Nr:Datum:Temp:Abs-Feuchte:Windchill:Wind:
Aussen-T/F 226 05-02-2020 09:00:00 2.83333 C 5.48 g/m*3 2.83 C 1.73333 km/h
227 05-02-2020 10:00:00 4.36667 C 5.82 g/m*3 2.98 C 6.05 km/h
228 05-02-2020 11:00:00 5.425 C 5.7 g/m*3 3.45 C 8.75 km/h
229 05-02-2020 12:00:00 5.85833 C 5.67 g/m*3 4 C 8.6 km/h
230 05-02-2020 13:00:00 6.09167 C 5.58 g/m*3 4.73 C 6.84167 km/h
231 05-02-2020 14:00:00 6.35833 C 5.64 g/m*3 6.36 C 4.41667 km/h
232 05-02-2020 15:00:00 5.56667 C 5.71 g/m*3 5.57 C 2.93333 km/h
233 05-02-2020 16:00:00 4.86667 C 5.69 g/m*3 4.87 C 3.86667 km/h
234 05-02-2020 17:00:00 3.675 C 5.46 g/m*3 2.45 C 5.33333 km/h
235 05-02-2020 18:00:00 2.45833 C 5.13 g/m*3 2.46 C 2.8 km/h
236 05-02-2020 19:00:00 1.30833 C 4.87 g/m*3 1.31 C 0.26667 km/h
237 05-02-2020 20:00:00 0.525 C 4.68 g/m*3 0.53 C 0 km/h
238 05-02-2020 21:00:00 0.21667 C 4.62 g/m*3 0.22 C 0.13333 km/h
239 05-02-2020 22:00:00 -0.16667 C 4.53 g/m*3 -0.17 C 0 km/h
240 05-02-2020 23:00:00 -0.16667 C 4.55 g/m*3 -0.17 C 0.8 km/h
241 06-02-2020 00:00:00 -0.35 C 4.49 g/m*3 -0.35 C 0.8 km/h
242 06-02-2020 01:00:00 -0.125 C 4.59 g/m*3 -0.13 C 0.4 km/h
243 06-02-2020 02:00:00 -0.15833 C 4.56 g/m*3 -0.16 C 0.66667 km/h
244 06-02-2020 03:00:00 -0.64167 C 4.4 g/m*3 -0.64 C 0.13333 km/h
245 06-02-2020 04:00:00 -0.73333 C 4.41 g/m*3 -0.73 C 0 km/h
246 06-02-2020 05:00:00 -0.85 C 4.39 g/m*3 -0.85 C 0 km/h
247 06-02-2020 06:00:00 -1.04167 C 4.33 g/m*3 -1.04 C 0.26667 km/h
248 06-02-2020 07:00:00 -1.275 C 4.26 g/m*3 -1.27 C 0.4 km/h
249 06-02-2020 08:00:00 -0.93333 C 4.36 g/m*3 -0.93 C 0.26667 km/h
250 06-02-2020 09:00:00 -0.5 C 4.5 g/m*3 -0.5 C 1.73333 km/h
Sensor: Nr:Datum:Temp:Abs-Feuchte:Windchill:Wind:
Aussen-T/F 251 06-02-2020 10:00:00 -0.10833 C 4.65 g/m*3 -0.11 C 3.06667 km/h
252 06-02-2020 11:00:00 0.425 C 4.84 g/m*3 0.43 C 3.74167 km/h
253 06-02-2020 12:00:00 1.63333 C 5.26 g/m*3 1.63 C 1.2 km/h
254 06-02-2020 13:00:00 2.98333 C 5.63 g/m*3 2.98 C 1.33333 km/h
255 06-02-2020 14:00:00 4.50833 C 5.94 g/m*3 4.51 C 0.66667 km/h
256 06-02-2020 15:00:00 5.35833 C 5.98 g/m*3 5.36 C 0.4 km/h
257 06-02-2020 16:00:00 5.75833 C 5.72 g/m*3 5.76 C 0 km/h
258 06-02-2020 17:00:00 4.125 C 5.44 g/m*3 4.13 C 2.93333 km/h
259 06-02-2020 18:00:00 2.14167 C 5.03 g/m*3 2.14 C 3.33333 km/h
260 06-02-2020 19:00:00 1.01667 C 4.77 g/m*3 1.02 C 0.13333 km/h
261 06-02-2020 20:00:00 0.09167 C 4.56 g/m*3 0.09 C 0 km/h
262 06-02-2020 21:00:00 -0.45833 C 4.42 g/m*3 -0.46 C 0 km/h
263 06-02-2020 22:00:00 -0.84167 C 4.34 g/m*3 -0.84 C 0 km/h
264 06-02-2020 23:00:00 -1.2 C 4.24 g/m*3 -1.2 C 0 km/h
265 07-02-2020 00:00:00 -1.51667 C 4.15 g/m*3 -1.52 C 0 km/h
266 07-02-2020 01:00:00 -1.69167 C 4.1 g/m*3 -1.69 C 0 km/h
267 07-02-2020 02:00:00 -1.49167 C 4.19 g/m*3 -1.49 C 0 km/h
268 07-02-2020 03:00:00 -1.2 C 4.28 g/m*3 -1.2 C 0.26667 km/h
269 07-02-2020 04:00:00 -1.19167 C 4.28 g/m*3 -1.19 C 0.26667 km/h
270 07-02-2020 05:00:00 -1.35 C 4.24 g/m*3 -1.35 C 0.13333 km/h
271 07-02-2020 06:00:00 -1.50833 C 4.21 g/m*3 -1.51 C 1.06667 km/h
272 07-02-2020 07:00:00 -1.625 C 4.17 g/m*3 -1.63 C 0 km/h
273 07-02-2020 08:00:00 -1.63333 C 4.19 g/m*3 -1.63 C 0.26667 km/h
274 07-02-2020 09:00:00 -1.41667 C 4.26 g/m*3 -1.42 C 0 km/h
275 07-02-2020 10:00:00 -1.08333 C 4.36 g/m*3 -1.08 C 0 km/h
Sensor: Nr:Datum:Temp:Abs-Feuchte:Windchill:Wind:
Aussen-T/F 276 07-02-2020 11:00:00 -0.5 C 4.54 g/m*3 -0.5 C 0 km/h
277 07-02-2020 12:00:00 0.725 C 4.94 g/m*3 0.73 C 2.93333 km/h
278 07-02-2020 13:00:00 1.83333 C 5.36 g/m*3 1.83 C 4.66667 km/h
279 07-02-2020 14:00:00 3.05 C 5.83 g/m*3 3.05 C 3.6 km/h
280 07-02-2020 15:00:00 3.83333 C 5.99 g/m*3 3.83 C 4.68333 km/h
281 07-02-2020 16:00:00 3.96667 C 5.73 g/m*3 3.97 C 4.26667 km/h
282 07-02-2020 17:00:00 3 C 5.39 g/m*3 3 C 4.93333 km/h
283 07-02-2020 18:00:00 2 C 5.07 g/m*3 2 C 2.8 km/h
284 07-02-2020 19:00:00 1.41667 C 4.93 g/m*3 1.42 C 3.86667 km/h
285 07-02-2020 20:00:00 1.08333 C 4.85 g/m*3 1.08 C 3.33333 km/h
286 07-02-2020 21:00:00 0.85833 C 4.8 g/m*3 0.86 C 2.66667 km/h
287 07-02-2020 22:00:00 0.5 C 4.7 g/m*3 0.5 C 2.4 km/h
288 07-02-2020 23:00:00 0.08333 C 4.59 g/m*3 0.08 C 0.93333 km/h
289 08-02-2020 00:00:00 -0.28333 C 4.49 g/m*3 -0.28 C 0.4 km/h
290 08-02-2020 01:00:00 -0.76667 C 4.36 g/m*3 -0.77 C 0.13333 km/h
291 08-02-2020 02:00:00 -1.08333 C 4.27 g/m*3 -1.08 C 0.4 km/h
292 08-02-2020 03:00:00 -1.30833 C 4.21 g/m*3 -1.31 C 0 km/h
293 08-02-2020 04:00:00 -1.29167 C 4.24 g/m*3 -1.29 C 0.13333 km/h
294 08-02-2020 05:00:00 -1.4 C 4.22 g/m*3 -1.4 C 0.53333 km/h
295 08-02-2020 06:00:00 -1.34167 C 4.24 g/m*3 -1.34 C 0 km/h
296 08-02-2020 07:00:00 -1.15 C 4.29 g/m*3 -1.15 C 0.13333 km/h
297 08-02-2020 08:00:00 -0.775 C 4.41 g/m*3 -0.78 C 0.26667 km/h
298 08-02-2020 09:00:00 0.06667 C 4.72 g/m*3 0.07 C 0 km/h
299 08-02-2020 10:00:00 1.06667 C 5.04 g/m*3 1.07 C 0.13333 km/h
300 08-02-2020 11:00:00 1.94167 C 5.31 g/m*3 1.94 C 0 km/h
Sensor: Nr:Datum:Temp:Abs-Feuchte:Windchill:Wind:
Aussen-T/F 301 08-02-2020 12:00:00 2.64167 C 5.54 g/m*3 2.64 C 0.26667 km/h
302 08-02-2020 13:00:00 3.3 C 5.68 g/m*3 3.3 C 0 km/h
303 08-02-2020 14:00:00 4.3 C 5.92 g/m*3 4.3 C 0 km/h
304 08-02-2020 15:00:00 5.19167 C 6.14 g/m*3 5.19 C 0 km/h
305 08-02-2020 16:00:00 5.36667 C 6.2 g/m*3 5.37 C 0 km/h
306 08-02-2020 17:00:00 4.94167 C 6.16 g/m*3 4.94 C 0 km/h
307 08-02-2020 18:00:00 4.63333 C 6.15 g/m*3 4.63 C 0 km/h
308 08-02-2020 19:00:00 4.40833 C 6.1 g/m*3 4.41 C 0 km/h
309 08-02-2020 20:00:00 4.25833 C 6.07 g/m*3 4.26 C 0 km/h
310 08-02-2020 21:00:00 3.73333 C 5.87 g/m*3 3.73 C 0 km/h
311 08-02-2020 22:00:00 3.01667 C 5.63 g/m*3 3.02 C 0 km/h
312 08-02-2020 23:00:00 3.18333 C 5.72 g/m*3 3.18 C 0 km/h
313 09-02-2020 00:00:00 3.375 C 5.85 g/m*3 3.38 C 0 km/h
314 09-02-2020 01:00:00 3.2 C 5.75 g/m*3 3.2 C 0 km/h
315 09-02-2020 02:00:00 2.975 C 5.69 g/m*3 2.98 C 1.2 km/h
316 09-02-2020 03:00:00 2.48333 C 5.48 g/m*3 2.48 C 0 km/h
317 09-02-2020 04:00:00 2.525 C 5.55 g/m*3 2.53 C 0 km/h
318 09-02-2020 05:00:00 3.29167 C 5.87 g/m*3 3.29 C 0.93333 km/h
319 09-02-2020 06:00:00 3.09167 C 5.76 g/m*3 3.09 C 0.13333 km/h
320 09-02-2020 07:00:00 4.30833 C 6.31 g/m*3 4.31 C 4.29167 km/h
321 09-02-2020 08:00:00 7.7 C 7.57 g/m*3 6.09 C 8.99167 km/h
322 09-02-2020 09:00:00 10.23333 C 7.84 g/m*3 8.06 C 16.23333 km/h
323 09-02-2020 10:00:00 10.71667 C 7.75 g/m*3 8.26 C 20.24167 km/h
324 09-02-2020 11:00:00 11.60833 C 7.63 g/m*3 11.61 C 17.3 km/h
325 09-02-2020 12:00:00 11.65 C 7.44 g/m*3 11.65 C 17.43333 km/h
Sensor: Nr:Datum:Temp:Abs-Feuchte:Windchill:Wind:
Aussen-T/F 326 09-02-2020 13:00:00 11.29167 C 7.18 g/m*3 11.29 C 10.74167 km/h
327 09-02-2020 14:00:00 11.95 C 7.3 g/m*3 11.95 C 14.35833 km/h
328 09-02-2020 15:00:00 12.36667 C 7.31 g/m*3 12.37 C 17.575 km/h
329 09-02-2020 16:00:00 12.475 C 7.51 g/m*3 12.48 C 16.375 km/h
330 09-02-2020 17:00:00 12.9 C 7.65 g/m*3 12.9 C 21.325 km/h
331 09-02-2020 18:00:00 12.75 C 7.84 g/m*3 12.75 C 19.44167 km/h
332 09-02-2020 19:00:00 12.51667 C 8.12 g/m*3 12.52 C 26.41667 km/h
333 09-02-2020 20:00:00 12.775 C 8.21 g/m*3 12.78 C 22.925 km/h
334 09-02-2020 21:00:00 12.26667 C 8.72 g/m*3 12.27 C 23.325 km/h
335 09-02-2020 22:00:00 11.80833 C 8.99 g/m*3 11.81 C 23.73333 km/h
336 09-02-2020 23:00:00 11.59167 C 9.18 g/m*3 11.59 C 25.05833 km/h
337 10-02-2020 00:00:00 11.75 C 9.29 g/m*3 11.75 C 29.76667 km/h
338 10-02-2020 01:00:00 11.43333 C 9.46 g/m*3 11.43 C 23.575 km/h
339 10-02-2020 02:00:00 9.24167 C 8.26 g/m*3 6.24 C 21.84167 km/h
340 10-02-2020 03:00:00 8.85 C 7.9 g/m*3 6.46 C 15.3 km/h
341 10-02-2020 04:00:00 9.79167 C 7.86 g/m*3 7.41 C 17.16667 km/h
342 10-02-2020 05:00:00 9.975 C 7.67 g/m*3 7.53 C 18.11667 km/h
343 10-02-2020 06:00:00 9.23333 C 7.53 g/m*3 6.11 C 23.20833 km/h
344 10-02-2020 07:00:00 9.125 C 6.94 g/m*3 5.52 C 28.825 km/h
345 10-02-2020 08:00:00 8.49167 C 6.85 g/m*3 4.35 C 33.65 km/h
346 10-02-2020 09:00:00 7.76667 C 6.16 g/m*3 3.37 C 34.05833 km/h
347 10-02-2020 10:00:00 8.05 C 6.12 g/m*3 4.27 C 26.95 km/h
348 10-02-2020 11:00:00 9.125 C 5.92 g/m*3 5.52 C 28.85 km/h
349 10-02-2020 12:00:00 7.16667 C 6.31 g/m*3 3.5 C 22.94167 km/h
350 10-02-2020 13:00:00 8.66667 C 6.13 g/m*3 4.76 C 31.1 km/h
Sensor: Nr:Datum:Temp:Abs-Feuchte:Windchill:Wind:
Aussen-T/F 351 10-02-2020 14:00:00 8.375 C 6.35 g/m*3 4.78 C 25.875 km/h
352 10-02-2020 15:00:00 8.49167 C 6.29 g/m*3 4.82 C 27.21667 km/h
353 10-02-2020 16:00:00 7.99167 C 6.36 g/m*3 4.6 C 22.375 km/h
354 10-02-2020 17:00:00 7.225 C 6.45 g/m*3 3.88 C 19.975 km/h
355 10-02-2020 18:00:00 6.21667 C 6.61 g/m*3 4.04 C 10.35 km/h
356 10-02-2020 19:00:00 6.15833 C 6.7 g/m*3 4.14 C 9.54167 km/h
357 10-02-2020 20:00:00 5.51667 C 6.56 g/m*3 5.52 C 1.86667 km/h
358 10-02-2020 21:00:00 5.375 C 6.58 g/m*3 3.85 C 6.975 km/h
359 10-02-2020 22:00:00 7.26667 C 6.84 g/m*3 3.77 C 21.44167 km/h
360 10-02-2020 23:00:00 7.78333 C 6.26 g/m*3 4.17 C 24.125 km/h
361 11-02-2020 00:00:00 6.85833 C 5.99 g/m*3 2.57 C 28.84167 km/h
362 11-02-2020 01:00:00 5.08333 C 5.65 g/m*3 1.57 C 16.9 km/h
363 11-02-2020 02:00:00 5.60833 C 5.26 g/m*3 1.17 C 26.28333 km/h
364 11-02-2020 03:00:00 5.71667 C 5.15 g/m*3 1.48 C 24.53333 km/h
365 11-02-2020 04:00:00 6.03333 C 4.91 g/m*3 1.76 C 25.875 km/h
366 11-02-2020 05:00:00 5.475 C 5.38 g/m*3 1.57 C 20.78333 km/h
367 11-02-2020 06:00:00 5.14167 C 5.18 g/m*3 1.66 C 16.76667 km/h
368 11-02-2020 07:00:00 4.76667 C 5.3 g/m*3 1.48 C 14.9 km/h
369 11-02-2020 08:00:00 4.98333 C 5.31 g/m*3 1.3 C 17.975 km/h
370 11-02-2020 09:00:00 5.05 C 5.53 g/m*3 1.48 C 17.3 km/h
371 11-02-2020 10:00:00 6.025 C 5.34 g/m*3 1.9 C 24.26667 km/h
372 11-02-2020 11:00:00 6.73333 C 5.15 g/m*3 2.86 C 23.73333 km/h
373 11-02-2020 12:00:00 7.10833 C 5.09 g/m*3 3.29 C 24.26667 km/h
374 11-02-2020 13:00:00 6.76667 C 5.07 g/m*3 3.18 C 21.04167 km/h
375 11-02-2020 14:00:00 5.90833 C 5.5 g/m*3 2.2 C 20.10833 km/h
Sensor: Nr:Datum:Temp:Abs-Feuchte:Windchill:Wind:
Aussen-T/F 376 11-02-2020 15:00:00 6.23333 C 5.36 g/m*3 2.74 C 19.04167 km/h
377 11-02-2020 16:00:00 7 C 5.38 g/m*3 3.29 C 22.90833 km/h
378 11-02-2020 17:00:00 6.25833 C 5.32 g/m*3 2.97 C 17.43333 km/h
379 11-02-2020 18:00:00 5.975 C 5.14 g/m*3 2.74 C 16.50833 km/h
380 11-02-2020 19:00:00 5.36667 C 5.24 g/m*3 1.96 C 16.63333 km/h
381 11-02-2020 20:00:00 5.575 C 4.88 g/m*3 1.94 C 18.76667 km/h
382 11-02-2020 21:00:00 5.225 C 4.71 g/m*3 1.39 C 19.7 km/h
383 11-02-2020 22:00:00 4.9 C 4.78 g/m*3 1.64 C 14.9 km/h
384 11-02-2020 23:00:00 4.81667 C 4.81 g/m*3 1.97 C 12.36667 km/h
385 12-02-2020 00:00:00 5.25 C 4.88 g/m*3 2.69 C 11.29167 km/h
386 12-02-2020 01:00:00 5.11667 C 5.14 g/m*3 2.19 C 13.16667 km/h
387 12-02-2020 02:00:00 4.99167 C 5.11 g/m*3 2.43 C 11.025 km/h
388 12-02-2020 03:00:00 4.73333 C 5.08 g/m*3 2.32 C 10.08333 km/h
389 12-02-2020 04:00:00 4.78333 C 5.15 g/m*3 2.19 C 11.01667 km/h
390 12-02-2020 05:00:00 5.00833 C 5.26 g/m*3 1.99 C 13.56667 km/h
391 12-02-2020 06:00:00 5.00833 C 5.33 g/m*3 2.06 C 13.16667 km/h
392 12-02-2020 07:00:00 4.19167 C 5.5 g/m*3 1.02 C 13.41667 km/h
393 12-02-2020 08:00:00 3.85 C 5.51 g/m*3 1.14 C 10.63333 km/h
394 12-02-2020 09:00:00 4.34167 C 5.51 g/m*3 1.44 C 12.1 km/h
395 12-02-2020 10:00:00 4.9 C 5.83 g/m*3 2.55 C 9.94167 km/h
396 12-02-2020 11:00:00 5.58333 C 5.9 g/m*3 2.05 C 17.975 km/h
397 12-02-2020 12:00:00 5.35 C 5.84 g/m*3 2.39 C 13.69167 km/h
398 12-02-2020 13:00:00 6.41667 C 5.89 g/m*3 3.32 C 16.25 km/h
399 12-02-2020 14:00:00 6.83333 C 5.63 g/m*3 3.99 C 15.16667 km/h
400 12-02-2020 15:00:00 7.1 C 5.69 g/m*3 4.24 C 15.7 km/h
Sensor: Nr:Datum:Temp:Abs-Feuchte:Windchill:Wind:
Aussen-T/F 401 12-02-2020 16:00:00 6.64167 C 5.7 g/m*3 4.21 C 12.225 km/h
402 12-02-2020 17:00:00 5.825 C 5.45 g/m*3 3.29 C 11.81667 km/h
403 12-02-2020 18:00:00 4.54167 C 5.48 g/m*3 2.06 C 10.225 km/h
404 12-02-2020 19:00:00 4.21667 C 5.45 g/m*3 1.79 C 9.68333 km/h
405 12-02-2020 20:00:00 3.21667 C 5.33 g/m*3 1.66 C 6.03333 km/h
406 12-02-2020 21:00:00 2.78333 C 5.32 g/m*3 1.21 C 5.9 km/h
407 12-02-2020 22:00:00 2.56667 C 5.27 g/m*3 2.57 C 4.53333 km/h
408 12-02-2020 23:00:00 2.4 C 5.3 g/m*3 2.4 C 3.875 km/h
409 13-02-2020 00:00:00 2.45833 C 5.33 g/m*3 2.46 C 2.8 km/h
410 13-02-2020 01:00:00 2.39167 C 5.31 g/m*3 2.39 C 0.4 km/h
411 13-02-2020 02:00:00 1.65 C 5.05 g/m*3 1.65 C 1.46667 km/h
412 13-02-2020 03:00:00 0.975 C 4.86 g/m*3 0.98 C 1.2 km/h
413 13-02-2020 04:00:00 0.6 C 4.76 g/m*3 0.6 C 0 km/h
414 13-02-2020 05:00:00 0.15833 C 4.65 g/m*3 0.16 C 0 km/h
415 13-02-2020 06:00:00 0.56667 C 4.82 g/m*3 0.57 C 0.26667 km/h
416 13-02-2020 07:00:00 0.85 C 4.93 g/m*3 0.85 C 0.8 km/h
417 13-02-2020 08:00:00 2 C 5.33 g/m*3 2 C 1.73333 km/h
418 13-02-2020 09:00:00 3.28333 C 5.74 g/m*3 3.28 C 4.95 km/h
419 13-02-2020 10:00:00 4.61667 C 5.82 g/m*3 2.67 C 8.05833 km/h
420 13-02-2020 11:00:00 6 C 5.81 g/m*3 4.1 C 8.85833 km/h
421 13-02-2020 12:00:00 6.29167 C 6.05 g/m*3 3.9 C 11.55833 km/h
422 13-02-2020 13:00:00 5.4 C 6.29 g/m*3 5.4 C 4.40833 km/h
423 13-02-2020 14:00:00 5.35833 C 6.44 g/m*3 5.36 C 3.2 km/h
424 13-02-2020 15:00:00 5.80833 C 6.76 g/m*3 5.81 C 1.2 km/h
425 13-02-2020 16:00:00 6.59167 C 7.11 g/m*3 6.59 C 1.06667 km/h
Sensor: Nr:Datum:Temp:Abs-Feuchte:Windchill:Wind:
Aussen-T/F 426 13-02-2020 17:00:00 6.31667 C 6.97 g/m*3 6.32 C 0.53333 km/h
427 13-02-2020 18:00:00 5.41667 C 6.61 g/m*3 5.42 C 1.33333 km/h
428 13-02-2020 19:00:00 5.21667 C 6.55 g/m*3 5.22 C 0.93333 km/h
429 13-02-2020 20:00:00 5.375 C 6.64 g/m*3 5.38 C 1.06667 km/h
430 13-02-2020 21:00:00 5.63333 C 6.8 g/m*3 5.63 C 0.53333 km/h
431 13-02-2020 22:00:00 6.43333 C 7.17 g/m*3 4.49 C 9.40833 km/h
432 13-02-2020 23:00:00 6.86667 C 7.23 g/m*3 6.17 C 5.09167 km/h
433 14-02-2020 00:00:00 6.59167 C 7.17 g/m*3 5.42 C 6.44167 km/h
434 14-02-2020 01:00:00 6.275 C 7.02 g/m*3 4.98 C 6.7 km/h
435 14-02-2020 02:00:00 6.30833 C 7.02 g/m*3 5.13 C 6.3 km/h
436 14-02-2020 03:00:00 6.375 C 7 g/m*3 6.38 C 3.33333 km/h
437 14-02-2020 04:00:00 5.95 C 6.87 g/m*3 5.95 C 2.26667 km/h
438 14-02-2020 05:00:00 5.65 C 6.77 g/m*3 5.65 C 1.46667 km/h
439 14-02-2020 06:00:00 5.64167 C 6.81 g/m*3 5.64 C 0.93333 km/h
440 14-02-2020 07:00:00 5.49167 C 6.74 g/m*3 5.49 C 2.93333 km/h
441 14-02-2020 08:00:00 5.31667 C 6.66 g/m*3 5.32 C 4.14167 km/h
442 14-02-2020 09:00:00 5.81667 C 6.75 g/m*3 4.26 C 7.375 km/h
443 14-02-2020 10:00:00 6.18333 C 6.71 g/m*3 3.7 C 11.96667 km/h
444 14-02-2020 11:00:00 6.69167 C 6.81 g/m*3 4.51 C 10.89167 km/h
445 14-02-2020 12:00:00 7.21667 C 6.88 g/m*3 5.63 C 8.46667 km/h
446 14-02-2020 13:00:00 7.71667 C 6.77 g/m*3 6.51 C 7.25 km/h
447 14-02-2020 14:00:00 8.16667 C 6.79 g/m*3 7.07 C 7.1 km/h
448 14-02-2020 15:00:00 8.25 C 6.58 g/m*3 7.3 C 6.56667 km/h
449 14-02-2020 16:00:00 8.39167 C 6.83 g/m*3 8.39 C 0.93333 km/h
450 14-02-2020 17:00:00 7.725 C 7.05 g/m*3 7.73 C 0.13333 km/h
Sensor: Nr:Datum:Temp:Abs-Feuchte:Windchill:Wind:
Aussen-T/F 451 14-02-2020 18:00:00 6.8 C 6.89 g/m*3 6.8 C 0 km/h
452 14-02-2020 19:00:00 5.975 C 6.55 g/m*3 5.98 C 2.4 km/h
453 14-02-2020 20:00:00 4.91667 C 6.25 g/m*3 4.92 C 1.2 km/h
454 14-02-2020 21:00:00 4.23333 C 6.06 g/m*3 4.23 C 0 km/h
455 14-02-2020 22:00:00 3.49167 C 5.81 g/m*3 3.49 C 0 km/h
456 14-02-2020 23:00:00 3.13333 C 5.7 g/m*3 3.13 C 0 km/h
457 15-02-2020 00:00:00 2.75 C 5.57 g/m*3 2.75 C 0 km/h
458 15-02-2020 01:00:00 3.19167 C 5.78 g/m*3 3.19 C 0.13333 km/h
459 15-02-2020 02:00:00 3.25833 C 5.81 g/m*3 3.26 C 0 km/h
460 15-02-2020 03:00:00 2.69167 C 5.59 g/m*3 2.69 C 0 km/h
461 15-02-2020 04:00:00 2.46667 C 5.52 g/m*3 2.47 C 0 km/h
462 15-02-2020 05:00:00 2.25 C 5.44 g/m*3 2.25 C 0 km/h
463 15-02-2020 06:00:00 1.85833 C 5.3 g/m*3 1.86 C 0 km/h
464 15-02-2020 07:00:00 1.725 C 5.28 g/m*3 1.73 C 0.8 km/h
465 15-02-2020 08:00:00 2.34167 C 5.52 g/m*3 2.34 C 0.26667 km/h
466 15-02-2020 09:00:00 3.675 C 6.04 g/m*3 3.68 C 0 km/h
467 15-02-2020 10:00:00 4.83333 C 6.56 g/m*3 4.83 C 0.26667 km/h
468 15-02-2020 11:00:00 6.5 C 7.3 g/m*3 6.5 C 0.13333 km/h
469 15-02-2020 12:00:00 8.80833 C 8 g/m*3 8.81 C 2.8 km/h
470 15-02-2020 13:00:00 11.19167 C 7.86 g/m*3 11.19 C 9.4 km/h
471 15-02-2020 14:00:00 11.45 C 7.6 g/m*3 11.45 C 8.475 km/h
472 15-02-2020 15:00:00 11.50833 C 7.6 g/m*3 11.51 C 7.79167 km/h
473 15-02-2020 16:00:00 10.95 C 7.63 g/m*3 10.95 C 2.4 km/h
474 15-02-2020 17:00:00 8.89167 C 7.33 g/m*3 8.89 C 1.86667 km/h
475 15-02-2020 18:00:00 7.575 C 7.12 g/m*3 7.58 C 3.2 km/h
Sensor: Nr:Datum:Temp:Abs-Feuchte:Windchill:Wind:
Aussen-T/F 476 15-02-2020 19:00:00 7.35 C 7.11 g/m*3 7.35 C 1.86667 km/h
477 15-02-2020 20:00:00 7.61667 C 7.16 g/m*3 7.62 C 2.26667 km/h
478 15-02-2020 21:00:00 8.1 C 7.16 g/m*3 8.1 C 0.8 km/h
479 15-02-2020 22:00:00 8.64167 C 7.16 g/m*3 8.64 C 2.00833 km/h
480 15-02-2020 23:00:00 10 C 7.3 g/m*3 9.73 C 5.08333 km/h
481 16-02-2020 00:00:00 10.275 C 7.33 g/m*3 9.43 C 7.5 km/h
482 16-02-2020 01:00:00 10.58333 C 7.47 g/m*3 9.97 C 6.7 km/h
483 16-02-2020 02:00:00 11.20833 C 7.73 g/m*3 11.21 C 5.90833 km/h
484 16-02-2020 03:00:00 12.35833 C 7.89 g/m*3 12.36 C 8.46667 km/h
485 16-02-2020 04:00:00 12.58333 C 7.77 g/m*3 12.58 C 7.76667 km/h
486 16-02-2020 05:00:00 12.15833 C 7.68 g/m*3 12.16 C 4.69167 km/h
487 16-02-2020 06:00:00 13.19167 C 7.74 g/m*3 13.19 C 11.69167 km/h
488 16-02-2020 07:00:00 13.9 C 8.33 g/m*3 13.9 C 19.45 km/h
489 16-02-2020 08:00:00 13.75833 C 8.79 g/m*3 13.76 C 21.58333 km/h
490 16-02-2020 09:00:00 13.95833 C 8.75 g/m*3 13.96 C 19.04167 km/h
491 16-02-2020 10:00:00 14.4 C 8.62 g/m*3 14.4 C 14.1 km/h
492 16-02-2020 11:00:00 15.44167 C 8.48 g/m*3 15.44 C 13.425 km/h
493 16-02-2020 12:00:00 16.43333 C 8.17 g/m*3 16.43 C 13.56667 km/h
494 16-02-2020 13:00:00 17.26667 C 8.03 g/m*3 17.27 C 18.76667 km/h
495 16-02-2020 14:00:00 17.83333 C 7.96 g/m*3 17.83 C 19.3 km/h
496 16-02-2020 15:00:00 17.69167 C 8.04 g/m*3 17.69 C 11.29167 km/h
497 16-02-2020 16:00:00 17.75833 C 7.91 g/m*3 17.76 C 17.43333 km/h
498 16-02-2020 17:00:00 16.25 C 7.9 g/m*3 16.25 C 7.93333 km/h
499 16-02-2020 18:00:00 15.45833 C 7.67 g/m*3 15.46 C 12.1 km/h
500 16-02-2020 19:00:00 15.81667 C 7.68 g/m*3 15.82 C 11.95833 km/h
Sensor: Nr:Datum:Temp:Abs-Feuchte:Windchill:Wind:
Aussen-T/F 501 16-02-2020 20:00:00 16.125 C 7.86 g/m*3 16.13 C 16.9 km/h
502 16-02-2020 21:00:00 16.425 C 8.07 g/m*3 16.43 C 28.68333 km/h
503 16-02-2020 22:00:00 16.33333 C 8.47 g/m*3 16.33 C 26.95 km/h
504 16-02-2020 23:00:00 12.95833 C 8.88 g/m*3 12.96 C 18.775 km/h
505 17-02-2020 00:00:00 9.95833 C 8.26 g/m*3 8.66 C 9.53333 km/h
506 17-02-2020 01:00:00 9.46667 C 7.94 g/m*3 7.74 C 11.55 km/h
507 17-02-2020 02:00:00 8.51667 C 7.35 g/m*3 5.96 C 15.95833 km/h
508 17-02-2020 03:00:00 8.31667 C 6.94 g/m*3 6.1 C 13.15833 km/h
509 17-02-2020 04:00:00 8.28333 C 6.95 g/m*3 6.12 C 12.75833 km/h
510 17-02-2020 05:00:00 8.03333 C 7 g/m*3 6.66 C 8.18333 km/h
511 17-02-2020 06:00:00 8.05 C 7.1 g/m*3 6.47 C 9.13333 km/h
512 17-02-2020 07:00:00 8.175 C 7.14 g/m*3 7.21 C 6.58333 km/h
513 17-02-2020 08:00:00 8.1 C 7.14 g/m*3 7.57 C 5.08333 km/h
514 17-02-2020 09:00:00 8.7 C 7.22 g/m*3 7.69 C 7.10833 km/h
515 17-02-2020 10:00:00 8.96667 C 7.26 g/m*3 7.58 C 9.00833 km/h
516 17-02-2020 11:00:00 9.43333 C 7.15 g/m*3 7.19 C 15.16667 km/h
517 17-02-2020 12:00:00 9.55833 C 6.94 g/m*3 7.43 C 14.5 km/h
518 17-02-2020 13:00:00 10.03333 C 6.94 g/m*3 7.74 C 16.9 km/h
519 17-02-2020 14:00:00 10.45833 C 7.15 g/m*3 7.92 C 20.375 km/h
520 17-02-2020 15:00:00 10.73333 C 7.22 g/m*3 8.58 C 17.16667 km/h
521 17-02-2020 16:00:00 10.96667 C 7.18 g/m*3 8.9 C 16.9 km/h
522 17-02-2020 17:00:00 9.54167 C 7.05 g/m*3 7.31 C 15.3 km/h
523 17-02-2020 18:00:00 7.29167 C 6.65 g/m*3 4.46 C 15.84167 km/h
524 17-02-2020 19:00:00 6.71667 C 6.5 g/m*3 4.8 C 9.54167 km/h
525 17-02-2020 20:00:00 5.5 C 6.25 g/m*3 5.5 C 2 km/h
Sensor: Nr:Datum:Temp:Abs-Feuchte:Windchill:Wind:
Aussen-T/F 526 17-02-2020 21:00:00 5.35833 C 6.47 g/m*3 5.36 C 1.86667 km/h
527 17-02-2020 22:00:00 6.875 C 6.93 g/m*3 4.86 C 10.2 km/h
528 17-02-2020 23:00:00 8.01667 C 6.92 g/m*3 5.96 C 11.69167 km/h
529 18-02-2020 00:00:00 8.025 C 6.65 g/m*3 5.68 C 13.55 km/h
530 18-02-2020 01:00:00 8.06667 C 6.6 g/m*3 6.02 C 11.69167 km/h
531 18-02-2020 02:00:00 7.58333 C 6.53 g/m*3 5.48 C 11.43333 km/h
532 18-02-2020 03:00:00 7.41667 C 6.47 g/m*3 5.13 C 12.35833 km/h
533 18-02-2020 04:00:00 6.81667 C 6.3 g/m*3 4.44 C 12.09167 km/h
534 18-02-2020 05:00:00 6.38333 C 6.17 g/m*3 3.23 C 16.63333 km/h
535 18-02-2020 06:00:00 6.13333 C 6.17 g/m*3 3.3 C 13.96667 km/h
536 18-02-2020 07:00:00 5.84167 C 6.09 g/m*3 3.36 C 11.56667 km/h
537 18-02-2020 08:00:00 5.75 C 6.08 g/m*3 3.33 C 11.14167 km/h
538 18-02-2020 09:00:00 6.11667 C 6.18 g/m*3 3.72 C 11.41667 km/h
539 18-02-2020 10:00:00 6.775 C 6.14 g/m*3 3.86 C 15.56667 km/h
540 18-02-2020 11:00:00 7.45 C 6.22 g/m*3 4.73 C 15.3 km/h
541 18-02-2020 12:00:00 8.06667 C 6.29 g/m*3 5.44 C 15.7 km/h
542 18-02-2020 13:00:00 8.55833 C 6.36 g/m*3 5.66 C 19.04167 km/h
543 18-02-2020 14:00:00 8.29167 C 6.34 g/m*3 5.52 C 17.3 km/h
544 18-02-2020 15:00:00 8.6 C 6.27 g/m*3 6.15 C 15.3 km/h
545 18-02-2020 16:00:00 8.40833 C 6.24 g/m*3 6.5 C 11.29167 km/h
546 18-02-2020 17:00:00 8.125 C 6.31 g/m*3 6.53 C 9.275 km/h
547 18-02-2020 18:00:00 7.40833 C 6.29 g/m*3 6.01 C 7.79167 km/h
548 18-02-2020 19:00:00 6.325 C 6.15 g/m*3 6.33 C 1.86667 km/h
549 18-02-2020 20:00:00 6.54167 C 6.24 g/m*3 5.1 C 7.38333 km/h
550 18-02-2020 21:00:00 6.84167 C 6.31 g/m*3 5.49 C 7.25 km/h
Sensor: Nr:Datum:Temp:Abs-Feuchte:Windchill:Wind:
Aussen-T/F 551 18-02-2020 22:00:00 7.29167 C 6.51 g/m*3 6.05 C 7.11667 km/h
552 18-02-2020 23:00:00 7.175 C 6.54 g/m*3 5.58 C 8.46667 km/h
553 19-02-2020 00:00:00 7.31667 C 6.46 g/m*3 4.57 C 15.29167 km/h
554 19-02-2020 01:00:00 7.43333 C 6.38 g/m*3 5.02 C 13.15 km/h
555 19-02-2020 02:00:00 7.60833 C 6.46 g/m*3 4.67 C 17.3 km/h
556 19-02-2020 03:00:00 7.38333 C 6.57 g/m*3 4.47 C 16.63333 km/h
557 19-02-2020 04:00:00 6.85833 C 6.72 g/m*3 3.94 C 15.7 km/h
558 19-02-2020 05:00:00 6.825 C 6.62 g/m*3 3.67 C 17.44167 km/h
559 19-02-2020 06:00:00 6.41667 C 6.3 g/m*3 4.03 C 11.7 km/h
560 19-02-2020 07:00:00 6 C 6.09 g/m*3 3.22 C 13.43333 km/h
561 19-02-2020 08:00:00 5.575 C 5.87 g/m*3 2.96 C 11.96667 km/h
562 19-02-2020 09:00:00 5.55 C 5.83 g/m*3 4.14 C 6.69167 km/h
563 19-02-2020 10:00:00 5.66667 C 5.84 g/m*3 3.74 C 8.725 km/h
564 19-02-2020 11:00:00 6.5 C 5.72 g/m*3 3.75 C 13.96667 km/h
565 19-02-2020 12:00:00 7.01667 C 5.46 g/m*3 4.25 C 14.9 km/h
566 19-02-2020 13:00:00 7.39167 C 5.26 g/m*3 4.38 C 17.43333 km/h
567 19-02-2020 14:00:00 7.70833 C 5.25 g/m*3 4.94 C 16.1 km/h
568 19-02-2020 15:00:00 7.88333 C 5.21 g/m*3 5.28 C 15.16667 km/h
569 19-02-2020 16:00:00 7.91667 C 5.16 g/m*3 5.55 C 13.56667 km/h
570 19-02-2020 17:00:00 7.06667 C 5.06 g/m*3 5.36 C 8.86667 km/h
571 19-02-2020 18:00:00 5.05 C 5.18 g/m*3 5.05 C 0 km/h
572 19-02-2020 19:00:00 3.35833 C 5.03 g/m*3 3.36 C 0 km/h
573 19-02-2020 20:00:00 2.76667 C 4.93 g/m*3 2.77 C 0.4 km/h
574 19-02-2020 21:00:00 3.59167 C 5.11 g/m*3 3.59 C 2.8 km/h
575 19-02-2020 22:00:00 5.49167 C 5.44 g/m*3 2.56 C 13.68333 km/h
Sensor: Nr:Datum:Temp:Abs-Feuchte:Windchill:Wind:
Aussen-T/F 576 19-02-2020 23:00:00 5.50833 C 5.93 g/m*3 2.9 C 11.825 km/h
577 20-02-2020 00:00:00 5.675 C 6.15 g/m*3 3.06 C 12.09167 km/h
578 20-02-2020 01:00:00 5.85833 C 6.36 g/m*3 4.66 C 6.16667 km/h
579 20-02-2020 02:00:00 6.225 C 6.39 g/m*3 4.14 C 9.93333 km/h
580 20-02-2020 03:00:00 6.675 C 6.52 g/m*3 4.44 C 11.15833 km/h
581 20-02-2020 04:00:00 6.95833 C 6.65 g/m*3 4.8 C 11.025 km/h
582 20-02-2020 05:00:00 7.09167 C 6.72 g/m*3 5.3 C 9.28333 km/h
583 20-02-2020 06:00:00 7.16667 C 6.85 g/m*3 6.51 C 5.09167 km/h
584 20-02-2020 07:00:00 7.2 C 6.95 g/m*3 7.2 C 2.81667 km/h
585 20-02-2020 08:00:00 7.23333 C 7.05 g/m*3 7.23 C 0.66667 km/h
586 20-02-2020 09:00:00 7.80833 C 7.21 g/m*3 7.81 C 4.15 km/h
587 20-02-2020 10:00:00 8.65833 C 7.21 g/m*3 7.45 C 7.91667 km/h
588 20-02-2020 11:00:00 9.56667 C 7.25 g/m*3 7.57 C 13.55833 km/h
589 20-02-2020 12:00:00 9.65 C 7.18 g/m*3 8.06 C 10.89167 km/h
590 20-02-2020 13:00:00 9.725 C 7.41 g/m*3 8.14 C 11 km/h
591 20-02-2020 14:00:00 10.15833 C 7.16 g/m*3 7.98 C 16.1 km/h
592 20-02-2020 15:00:00 9.98333 C 7.18 g/m*3 8.11 C 13.3 km/h
593 20-02-2020 16:00:00 9.575 C 7 g/m*3 7.81 C 11.95 km/h
594 20-02-2020 17:00:00 9.39167 C 6.86 g/m*3 7.56 C 12.1 km/h
595 20-02-2020 18:00:00 9.34167 C 6.86 g/m*3 7.59 C 11.54167 km/h
596 20-02-2020 19:00:00 8.66667 C 6.79 g/m*3 6.65 C 12.33333 km/h
597 20-02-2020 20:00:00 9.5 C 6.78 g/m*3 6.91 C 18.36667 km/h
598 20-02-2020 21:00:00 9.13333 C 7 g/m*3 6.09 C 21.975 km/h
599 20-02-2020 22:00:00 8.13333 C 7.14 g/m*3 5.11 C 19.175 km/h
600 20-02-2020 23:00:00 6.6 C 6.56 g/m*3 3.96 C 13.425 km/h
Sensor: Nr:Datum:Temp:Abs-Feuchte:Windchill:Wind:
Aussen-T/F 601 21-02-2020 00:00:00 5.43333 C 6.11 g/m*3 2.2 C 15.56667 km/h
602 21-02-2020 01:00:00 4.84167 C 5.58 g/m*3 1.95 C 12.63333 km/h
603 21-02-2020 02:00:00 4.225 C 5.43 g/m*3 2.06 C 8.60833 km/h
604 21-02-2020 03:00:00 3.83333 C 5.36 g/m*3 2.32 C 6.16667 km/h
605 21-02-2020 04:00:00 2.85833 C 5.26 g/m*3 1.35 C 5.75833 km/h
606 21-02-2020 05:00:00 2.81667 C 5.26 g/m*3 1.25 C 5.9 km/h
607 21-02-2020 06:00:00 2.6 C 5.17 g/m*3 1.06 C 5.75 km/h
608 21-02-2020 07:00:00 2.89167 C 5.15 g/m*3 0.8 C 7.525 km/h
609 21-02-2020 08:00:00 2.6 C 5.08 g/m*3 2.6 C 3.74167 km/h
610 21-02-2020 09:00:00 3.33333 C 5.33 g/m*3 1.48 C 6.975 km/h
611 21-02-2020 10:00:00 4.35833 C 5.52 g/m*3 2.16 C 8.85833 km/h
612 21-02-2020 11:00:00 5.825 C 5.83 g/m*3 3.19 C 12.36667 km/h
613 21-02-2020 12:00:00 7.175 C 6.11 g/m*3 4.37 C 15.43333 km/h
614 21-02-2020 13:00:00 7.76667 C 6.18 g/m*3 4.85 C 17.43333 km/h
615 21-02-2020 14:00:00 7.99167 C 6.22 g/m*3 5.58 C 13.95833 km/h
616 21-02-2020 15:00:00 8.36667 C 6.17 g/m*3 6.24 C 12.625 km/h
617 21-02-2020 16:00:00 8.225 C 6.05 g/m*3 6.45 C 10.35 km/h
618 21-02-2020 17:00:00 7.73333 C 5.89 g/m*3 6.6 C 6.96667 km/h
619 21-02-2020 18:00:00 6.16667 C 5.75 g/m*3 6.17 C 2.8 km/h
620 21-02-2020 19:00:00 4.98333 C 5.61 g/m*3 4.98 C 2.40833 km/h
621 21-02-2020 20:00:00 5.35 C 5.62 g/m*3 3.99 C 6.43333 km/h
622 21-02-2020 21:00:00 5.73333 C 5.69 g/m*3 4.88 C 5.08333 km/h
623 21-02-2020 22:00:00 4.68333 C 5.62 g/m*3 4.68 C 2.4 km/h
624 21-02-2020 23:00:00 4.43333 C 5.69 g/m*3 4.43 C 3.475 km/h
625 22-02-2020 00:00:00 4.54167 C 5.71 g/m*3 4.54 C 4.14167 km/h
Sensor: Nr:Datum:Temp:Abs-Feuchte:Windchill:Wind:
Aussen-T/F 626 22-02-2020 01:00:00 4.55833 C 5.69 g/m*3 4.56 C 3.74167 km/h
627 22-02-2020 02:00:00 5.025 C 5.78 g/m*3 2.32 C 11.81667 km/h
628 22-02-2020 03:00:00 5.41667 C 5.79 g/m*3 2.61 C 12.875 km/h
629 22-02-2020 04:00:00 5.28333 C 5.76 g/m*3 3.01 C 9.94167 km/h
630 22-02-2020 05:00:00 5.70833 C 5.87 g/m*3 2.3 C 17.3 km/h
631 22-02-2020 06:00:00 5.825 C 5.88 g/m*3 2.41 C 17.575 km/h
632 22-02-2020 07:00:00 5.78333 C 5.86 g/m*3 2.96 C 13.425 km/h
633 22-02-2020 08:00:00 6.04167 C 5.91 g/m*3 3.39 C 12.76667 km/h
634 22-02-2020 09:00:00 6.69167 C 6 g/m*3 3.46 C 17.83333 km/h
635 22-02-2020 10:00:00 7.43333 C 6.02 g/m*3 3.9 C 22.25 km/h
636 22-02-2020 11:00:00 7.9 C 6.06 g/m*3 4.94 C 18.10833 km/h
637 22-02-2020 12:00:00 8.80833 C 6.05 g/m*3 7.75 C 7.36667 km/h
638 22-02-2020 13:00:00 9.89167 C 6.22 g/m*3 8.76 C 8.60833 km/h
639 22-02-2020 14:00:00 10.29167 C 6.29 g/m*3 8.16 C 15.96667 km/h
640 22-02-2020 15:00:00 10.59167 C 6.58 g/m*3 8.35 C 17.7 km/h
641 22-02-2020 16:00:00 10.71667 C 6.85 g/m*3 8.46 C 18.1 km/h
642 22-02-2020 17:00:00 10.31667 C 6.93 g/m*3 8.22 C 15.7 km/h
643 22-02-2020 18:00:00 10.11667 C 7.17 g/m*3 8.01 C 15.43333 km/h
644 22-02-2020 19:00:00 9.94167 C 7.49 g/m*3 7.67 C 16.5 km/h
645 22-02-2020 20:00:00 10.23333 C 7.76 g/m*3 8.18 C 15.16667 km/h
646 22-02-2020 21:00:00 10.39167 C 7.93 g/m*3 8.46 C 14.49167 km/h
647 22-02-2020 22:00:00 10.8 C 8.1 g/m*3 8.53 C 18.5 km/h
648 22-02-2020 23:00:00 10.9 C 8.16 g/m*3 8.89 C 16.23333 km/h
649 23-02-2020 00:00:00 10.8 C 8.14 g/m*3 8.94 C 14.625 km/h
650 23-02-2020 01:00:00 9.90833 C 8.34 g/m*3 8.27 C 11.56667 km/h
Sensor: Nr:Datum:Temp:Abs-Feuchte:Windchill:Wind:
Aussen-T/F 651 23-02-2020 02:00:00 10.1 C 8.3 g/m*3 8.24 C 13.43333 km/h
652 23-02-2020 03:00:00 10.2 C 8.09 g/m*3 8.26 C 14.23333 km/h
653 23-02-2020 04:00:00 10.25833 C 7.98 g/m*3 8.36 C 13.96667 km/h
654 23-02-2020 05:00:00 10.34167 C 8.21 g/m*3 8.36 C 14.76667 km/h
655 23-02-2020 06:00:00 10.28333 C 8.17 g/m*3 8.53 C 12.89167 km/h
656 23-02-2020 07:00:00 10.25 C 8.31 g/m*3 8.02 C 16.78333 km/h
657 23-02-2020 08:00:00 10.525 C 8.55 g/m*3 7.92 C 21.3 km/h
658 23-02-2020 09:00:00 10.58333 C 8.64 g/m*3 8.32 C 17.825 km/h
659 23-02-2020 10:00:00 10.91667 C 8.73 g/m*3 8.34 C 22.24167 km/h
660 23-02-2020 11:00:00 11.325 C 8.79 g/m*3 11.33 C 20.91667 km/h
661 23-02-2020 12:00:00 11.775 C 8.97 g/m*3 11.78 C 24.66667 km/h
662 23-02-2020 13:00:00 12.03333 C 8.98 g/m*3 12.03 C 23.175 km/h
663 23-02-2020 14:00:00 12.05833 C 9.09 g/m*3 12.06 C 23.74167 km/h
664 23-02-2020 15:00:00 12.175 C 9.27 g/m*3 12.18 C 23.30833 km/h
665 23-02-2020 16:00:00 12.1 C 9.29 g/m*3 12.1 C 18.5 km/h
666 23-02-2020 17:00:00 11.9 C 9.36 g/m*3 11.9 C 18.24167 km/h
667 23-02-2020 18:00:00 11.34167 C 9.46 g/m*3 11.34 C 13.83333 km/h
668 23-02-2020 19:00:00 10.65 C 9.11 g/m*3 8.62 C 15.825 km/h
669 23-02-2020 20:00:00 8.6 C 7.84 g/m*3 6.2 C 14.9 km/h
670 23-02-2020 21:00:00 8.30833 C 7.44 g/m*3 5.79 C 15.3 km/h
671 23-02-2020 22:00:00 8.175 C 7.09 g/m*3 5.84 C 13.7 km/h
672 23-02-2020 23:00:00 7.55 C 6.48 g/m*3 6.02 C 8.46667 km/h
673 24-02-2020 00:00:00 7.13333 C 6.25 g/m*3 7.13 C 4.80833 km/h
674 24-02-2020 01:00:00 6.325 C 6.15 g/m*3 6.33 C 4.68333 km/h
675 24-02-2020 02:00:00 5.21667 C 5.91 g/m*3 5.22 C 1.73333 km/h
Sensor: Nr:Datum:Temp:Abs-Feuchte:Windchill:Wind:
Aussen-T/F 676 24-02-2020 03:00:00 5.175 C 5.92 g/m*3 5.18 C 1.875 km/h
677 24-02-2020 04:00:00 5.075 C 5.93 g/m*3 5.08 C 0.66667 km/h
678 24-02-2020 05:00:00 4.68333 C 6.02 g/m*3 4.68 C 0 km/h
679 24-02-2020 06:00:00 4.68333 C 6.11 g/m*3 4.68 C 0 km/h
680 24-02-2020 07:00:00 4.85833 C 6.19 g/m*3 4.86 C 0.53333 km/h
681 24-02-2020 08:00:00 5.61667 C 6.36 g/m*3 5.62 C 3.34167 km/h
682 24-02-2020 09:00:00 6.49167 C 6.47 g/m*3 6.49 C 1.86667 km/h
683 24-02-2020 10:00:00 6.525 C 6.69 g/m*3 6.53 C 1.46667 km/h
684 24-02-2020 11:00:00 6.39167 C 6.92 g/m*3 6.39 C 1.2 km/h
685 24-02-2020 12:00:00 6.88333 C 7.27 g/m*3 6.88 C 1.46667 km/h
686 24-02-2020 13:00:00 7.90833 C 7.82 g/m*3 7.91 C 0.4 km/h
687 24-02-2020 14:00:00 9.40833 C 8.66 g/m*3 8.74 C 6.175 km/h
688 24-02-2020 15:00:00 11.13333 C 9.25 g/m*3 11.13 C 19.3 km/h
689 24-02-2020 16:00:00 11.9 C 9.37 g/m*3 11.9 C 21.575 km/h
690 24-02-2020 17:00:00 11.68333 C 8.92 g/m*3 11.68 C 24.93333 km/h
691 24-02-2020 18:00:00 11.375 C 8.48 g/m*3 11.38 C 22.78333 km/h
692 24-02-2020 19:00:00 11.26667 C 8.3 g/m*3 11.27 C 17.56667 km/h
693 24-02-2020 20:00:00 11.40833 C 8.09 g/m*3 11.41 C 19.03333 km/h
694 24-02-2020 21:00:00 11.16667 C 8.21 g/m*3 11.17 C 18.24167 km/h
695 24-02-2020 22:00:00 11.15 C 8.29 g/m*3 11.15 C 20.23333 km/h
696 24-02-2020 23:00:00 11.175 C 8.39 g/m*3 11.18 C 21.84167 km/h
697 25-02-2020 00:00:00 10.89167 C 8.48 g/m*3 9.17 C 13.69167 km/h
698 25-02-2020 01:00:00 10.8 C 8.5 g/m*3 8.99 C 14.23333 km/h
699 25-02-2020 02:00:00 10.70833 C 8.52 g/m*3 9.03 C 13.03333 km/h
700 25-02-2020 03:00:00 10.38333 C 8.46 g/m*3 9.05 C 10.225 km/h
Sensor: Nr:Datum:Temp:Abs-Feuchte:Windchill:Wind:
Aussen-T/F 701 25-02-2020 04:00:00 10.3 C 8.39 g/m*3 8.55 C 12.9 km/h
702 25-02-2020 05:00:00 10.14167 C 8.26 g/m*3 8.25 C 13.7 km/h
703 25-02-2020 06:00:00 9.925 C 8.15 g/m*3 7.22 C 20.65 km/h
704 25-02-2020 07:00:00 9.50833 C 8.11 g/m*3 7.41 C 14.23333 km/h
705 25-02-2020 08:00:00 8.81667 C 8.14 g/m*3 7.69 C 7.66667 km/h
706 25-02-2020 09:00:00 8.71667 C 8.09 g/m*3 8.03 C 5.89167 km/h
707 25-02-2020 10:00:00 8.59167 C 7.21 g/m*3 6.41 C 13.3 km/h
708 25-02-2020 11:00:00 8.73333 C 6.81 g/m*3 6.64 C 12.9 km/h
709 25-02-2020 12:00:00 9.51667 C 6.55 g/m*3 7.47 C 13.825 km/h
710 25-02-2020 13:00:00 10.15 C 6.68 g/m*3 7.8 C 17.7 km/h
711 25-02-2020 14:00:00 10.28333 C 6.43 g/m*3 7.93 C 17.96667 km/h
712 25-02-2020 15:00:00 10.125 C 6.42 g/m*3 8.25 C 13.56667 km/h
713 25-02-2020 16:00:00 10.43333 C 6.33 g/m*3 8.81 C 12.23333 km/h
714 25-02-2020 17:00:00 9.875 C 6.38 g/m*3 8.09 C 12.48333 km/h
715 25-02-2020 18:00:00 8.85 C 6.37 g/m*3 7.22 C 10.21667 km/h
716 25-02-2020 19:00:00 7.40833 C 6.54 g/m*3 7.41 C 3.21667 km/h
717 25-02-2020 20:00:00 6.54167 C 6.72 g/m*3 6.54 C 3.88333 km/h
718 25-02-2020 21:00:00 6.38333 C 6.58 g/m*3 4.92 C 7.36667 km/h
719 25-02-2020 22:00:00 5.85833 C 5.67 g/m*3 2.97 C 13.94167 km/h
720 25-02-2020 23:00:00 4.93333 C 5.58 g/m*3 3.42 C 6.70833 km/h
721 26-02-2020 00:00:00 5.7 C 5.83 g/m*3 5.7 C 3.89167 km/h
722 26-02-2020 01:00:00 5.9 C 6.01 g/m*3 3.26 C 12.48333 km/h
723 26-02-2020 02:00:00 5.575 C 5.71 g/m*3 2.82 C 12.76667 km/h
724 26-02-2020 03:00:00 5.01667 C 5.33 g/m*3 2.23 C 12.23333 km/h
725 26-02-2020 04:00:00 4.36667 C 5.27 g/m*3 1.14 C 13.96667 km/h
Sensor: Nr:Datum:Temp:Abs-Feuchte:Windchill:Wind:
Aussen-T/F 726 26-02-2020 05:00:00 4.41667 C 5.18 g/m*3 0.6 C 17.96667 km/h
727 26-02-2020 06:00:00 4.28333 C 5.03 g/m*3 -0.01 C 21.45 km/h
728 26-02-2020 07:00:00 3.95 C 5.06 g/m*3 0.01 C 17.975 km/h
729 26-02-2020 08:00:00 4.09167 C 5.15 g/m*3 0.13 C 18.36667 km/h
730 26-02-2020 09:00:00 3.90833 C 5.29 g/m*3 0.03 C 17.43333 km/h
731 26-02-2020 10:00:00 4.25833 C 5.48 g/m*3 0.43 C 17.7 km/h
732 26-02-2020 11:00:00 5.23333 C 5.56 g/m*3 1.51 C 18.76667 km/h
733 26-02-2020 12:00:00 6.025 C 5.62 g/m*3 2.44 C 19.3 km/h
734 26-02-2020 13:00:00 6.00833 C 5.6 g/m*3 2.45 C 19.03333 km/h
735 26-02-2020 14:00:00 5.69167 C 5.77 g/m*3 2.35 C 16.76667 km/h
736 26-02-2020 15:00:00 6.28333 C 5.77 g/m*3 2.83 C 18.775 km/h
737 26-02-2020 16:00:00 5.96667 C 5.42 g/m*3 2.64 C 17.16667 km/h
738 26-02-2020 17:00:00 5.55 C 5.31 g/m*3 2.38 C 15.3 km/h
739 26-02-2020 18:00:00 4.53333 C 5.23 g/m*3 1.83 C 11.3 km/h
740 26-02-2020 19:00:00 4.425 C 5.34 g/m*3 2.34 C 8.46667 km/h
741 26-02-2020 20:00:00 4.01667 C 5.26 g/m*3 1.75 C 8.875 km/h
742 26-02-2020 21:00:00 3.99167 C 5.31 g/m*3 2.09 C 7.50833 km/h
743 26-02-2020 22:00:00 3.9 C 5.36 g/m*3 2.14 C 6.96667 km/h
744 26-02-2020 23:00:00 3.625 C 5.37 g/m*3 1.39 C 8.475 km/h
745 27-02-2020 00:00:00 3.5 C 5.29 g/m*3 1.28 C 8.325 km/h
746 27-02-2020 01:00:00 3.01667 C 5.16 g/m*3 1.8 C 5.08333 km/h
747 27-02-2020 02:00:00 3.19167 C 5.23 g/m*3 0.45 C 10.225 km/h
748 27-02-2020 03:00:00 3.51667 C 5.42 g/m*3 0.66 C 11.025 km/h
749 27-02-2020 04:00:00 3.3 C 5.38 g/m*3 0.8 C 9.275 km/h
750 27-02-2020 05:00:00 2.725 C 5.21 g/m*3 1.36 C 5.34167 km/h
Sensor: Nr:Datum:Temp:Abs-Feuchte:Windchill:Wind:
Aussen-T/F 751 27-02-2020 06:00:00 2.725 C 5.15 g/m*3 0.37 C 8.33333 km/h
752 27-02-2020 07:00:00 3.08333 C 5.22 g/m*3 3.08 C 4.55 km/h
753 27-02-2020 08:00:00 3.50833 C 5.44 g/m*3 3.51 C 0.53333 km/h
754 27-02-2020 09:00:00 4.6 C 5.6 g/m*3 4.6 C 3.06667 km/h
755 27-02-2020 10:00:00 5.33333 C 5.62 g/m*3 5.33 C 3.475 km/h
756 27-02-2020 11:00:00 5.00833 C 5.67 g/m*3 3.77 C 5.89167 km/h
757 27-02-2020 12:00:00 4.475 C 5.82 g/m*3 3.07 C 6.15 km/h
758 27-02-2020 13:00:00 3.725 C 5.7 g/m*3 3.73 C 4.41667 km/h
759 27-02-2020 14:00:00 3.23333 C 5.63 g/m*3 1.36 C 6.975 km/h
760 27-02-2020 15:00:00 2.98333 C 5.58 g/m*3 1.07 C 6.98333 km/h
761 27-02-2020 16:00:00 2.15833 C 5.28 g/m*3 2.16 C 0.66667 km/h
762 27-02-2020 17:00:00 1.18333 C 4.96 g/m*3 1.18 C 0.53333 km/h
763 27-02-2020 18:00:00 1.175 C 5.01 g/m*3 1.18 C 0.4 km/h
764 27-02-2020 19:00:00 1.58333 C 5.18 g/m*3 -0.55 C 6.975 km/h
765 27-02-2020 20:00:00 1.725 C 5.18 g/m*3 -0.3 C 6.71667 km/h
766 27-02-2020 21:00:00 1.69167 C 5.17 g/m*3 0.07 C 5.625 km/h
767 27-02-2020 22:00:00 1.725 C 5.21 g/m*3 1.73 C 3.73333 km/h
768 27-02-2020 23:00:00 2.30833 C 5.4 g/m*3 -0.48 C 9.675 km/h
769 28-02-2020 00:00:00 2.75 C 5.42 g/m*3 0.52 C 7.90833 km/h
770 28-02-2020 01:00:00 2.425 C 5.35 g/m*3 2.42 C 3.6 km/h
771 28-02-2020 02:00:00 2.16667 C 5.29 g/m*3 2.17 C 4.13333 km/h
772 28-02-2020 03:00:00 1.9 C 5.19 g/m*3 1.9 C 4.80833 km/h
773 28-02-2020 04:00:00 1.81667 C 5.16 g/m*3 1.82 C 4.675 km/h
774 28-02-2020 05:00:00 1.73333 C 5.13 g/m*3 -0.19 C 6.43333 km/h
775 28-02-2020 06:00:00 1.41667 C 5 g/m*3 -0.97 C 7.65 km/h
Sensor: Nr:Datum:Temp:Abs-Feuchte:Windchill:Wind:
Aussen-T/F 776 28-02-2020 07:00:00 1.15833 C 4.88 g/m*3 -0.95 C 6.70833 km/h
777 28-02-2020 08:00:00 1.15 C 4.92 g/m*3 -0.38 C 5.20833 km/h
778 28-02-2020 09:00:00 1.975 C 5.17 g/m*3 -0.39 C 7.91667 km/h
779 28-02-2020 10:00:00 3.00833 C 5.35 g/m*3 0.1 C 10.76667 km/h
780 28-02-2020 11:00:00 3.78333 C 5.43 g/m*3 0.56 C 13.16667 km/h
781 28-02-2020 12:00:00 4.6 C 5.62 g/m*3 1.4 C 14.1 km/h
782 28-02-2020 13:00:00 6.05833 C 5.81 g/m*3 3.62 C 11.56667 km/h
783 28-02-2020 14:00:00 7.36667 C 5.84 g/m*3 5.3 C 11.01667 km/h
784 28-02-2020 15:00:00 7.45 C 5.76 g/m*3 5.97 C 8.19167 km/h
785 28-02-2020 16:00:00 7.225 C 5.92 g/m*3 7.23 C 3.75 km/h
786 28-02-2020 17:00:00 6.425 C 6.08 g/m*3 6.43 C 1.46667 km/h
787 28-02-2020 18:00:00 5.375 C 5.76 g/m*3 5.38 C 3.34167 km/h
788 28-02-2020 19:00:00 5.64167 C 5.62 g/m*3 5.64 C 4.425 km/h
789 28-02-2020 20:00:00 5.5 C 5.72 g/m*3 4.08 C 6.71667 km/h
790 28-02-2020 21:00:00 5.025 C 5.9 g/m*3 4.08 C 5.09167 km/h
791 28-02-2020 22:00:00 4.975 C 5.96 g/m*3 4.97 C 3.46667 km/h
792 28-02-2020 23:00:00 4.41667 C 6.06 g/m*3 4.42 C 2.4 km/h
793 29-02-2020 00:00:00 5.13333 C 6.42 g/m*3 5.13 C 4.95833 km/h
794 29-02-2020 01:00:00 5.69167 C 6.66 g/m*3 5.69 C 1.6 km/h
795 29-02-2020 02:00:00 6.10833 C 6.94 g/m*3 6.11 C 3.74167 km/h
796 29-02-2020 03:00:00 8.4 C 7.83 g/m*3 6.54 C 11.03333 km/h
797 29-02-2020 04:00:00 9.725 C 8.1 g/m*3 7.41 C 16.36667 km/h
798 29-02-2020 05:00:00 9.60833 C 7.9 g/m*3 8.32 C 9.14167 km/h
799 29-02-2020 06:00:00 9.30833 C 7.73 g/m*3 8.24 C 7.78333 km/h
800 29-02-2020 07:00:00 8.775 C 7.55 g/m*3 8.78 C 4.54167 km/h
Sensor: Nr:Datum:Temp:Abs-Feuchte:Windchill:Wind:
Aussen-T/F 801 29-02-2020 08:00:00 8.23333 C 7.5 g/m*3 8.23 C 2.13333 km/h
802 29-02-2020 09:00:00 8.975 C 7.69 g/m*3 8.98 C 3.61667 km/h
803 29-02-2020 10:00:00 10.13333 C 7.37 g/m*3 10.13 C 4.00833 km/h
804 29-02-2020 11:00:00 11.54167 C 7.5 g/m*3 11.54 C 6.84167 km/h
805 29-02-2020 12:00:00 13.95833 C 7.71 g/m*3 13.96 C 9.55 km/h
806 29-02-2020 13:00:00 14.65833 C 8.01 g/m*3 14.66 C 9.55 km/h
807 29-02-2020 14:00:00 14.68333 C 8.51 g/m*3 14.68 C 17.56667 km/h
808 29-02-2020 15:00:00 11.33333 C 9.11 g/m*3 11.33 C 12.35833 km/h
809 29-02-2020 16:00:00 11.325 C 8.7 g/m*3 11.33 C 21.7 km/h
810 29-02-2020 17:00:00 9.30833 C 7.34 g/m*3 7.11 C 14.63333 km/h
811 29-02-2020 18:00:00 8.50833 C 7.03 g/m*3 6.18 C 14.24167 km/h
812 29-02-2020 19:00:00 6.65 C 6.3 g/m*3 4.11 C 12.89167 km/h
813 29-02-2020 20:00:00 6.6 C 6 g/m*3 4.22 C 11.83333 km/h
814 29-02-2020 21:00:00 5.69167 C 5.67 g/m*3 4.3 C 6.70833 km/h
815 29-02-2020 22:00:00 4.54167 C 5.66 g/m*3 4.54 C 4 km/h
816 29-02-2020 23:00:00 5.20833 C 5.97 g/m*3 4 C 5.89167 km/h
817 01-03-2020 00:00:00 6.86667 C 6.18 g/m*3 3.88 C 16.23333 km/h
818 01-03-2020 01:00:00 6.38333 C 6.1 g/m*3 3.76 C 13.025 km/h
819 01-03-2020 02:00:00 6.35833 C 6.16 g/m*3 3.77 C 12.76667 km/h
820 01-03-2020 03:00:00 7.10833 C 6.35 g/m*3 4.94 C 11.26667 km/h
821 01-03-2020 04:00:00 7.30833 C 6.18 g/m*3 4.86 C 13.16667 km/h
822 01-03-2020 05:00:00 7.45833 C 6.14 g/m*3 4.99 C 13.55833 km/h
823 01-03-2020 06:00:00 7.425 C 6.21 g/m*3 5.32 C 11.28333 km/h
824 01-03-2020 07:00:00 6.71667 C 6.55 g/m*3 6.72 C 4.95833 km/h
825 01-03-2020 08:00:00 5.74167 C 6.49 g/m*3 2.93 C 13.275 km/h
Sensor: Nr:Datum:Temp:Abs-Feuchte:Windchill:Wind:
Aussen-T/F 826 01-03-2020 09:00:00 5.05 C 6.32 g/m*3 2.09 C 13.29167 km/h
827 01-03-2020 10:00:00 6.3 C 6.75 g/m*3 3.99 C 11.15 km/h
828 01-03-2020 11:00:00 8.44167 C 6.78 g/m*3 5.51 C 19.04167 km/h
829 01-03-2020 12:00:00 9.01667 C 6.53 g/m*3 6.65 C 15.425 km/h
830 01-03-2020 13:00:00 10.00833 C 6.5 g/m*3 7.99 C 14.5 km/h
831 01-03-2020 14:00:00 10.19167 C 6.5 g/m*3 8.42 C 12.9 km/h
832 01-03-2020 15:00:00 10.65833 C 6.54 g/m*3 9.74 C 8.2 km/h
833 01-03-2020 16:00:00 10.8 C 6.78 g/m*3 10.8 C 1.46667 km/h
834 01-03-2020 17:00:00 9.25833 C 7.59 g/m*3 9.26 C 4.68333 km/h
835 01-03-2020 18:00:00 7.64167 C 7.45 g/m*3 7.64 C 2.66667 km/h
836 01-03-2020 19:00:00 7.25 C 7.41 g/m*3 7.25 C 0.66667 km/h
837 01-03-2020 20:00:00 6.84167 C 7.29 g/m*3 6.84 C 2.26667 km/h
838 01-03-2020 21:00:00 6.28333 C 7.04 g/m*3 6.28 C 0 km/h
839 01-03-2020 22:00:00 6.725 C 7.31 g/m*3 6.73 C 0 km/h
840 01-03-2020 23:00:00 5.44167 C 6.55 g/m*3 2.39 C 14.35833 km/h
841 02-03-2020 00:00:00 4.08333 C 6 g/m*3 0.91 C 13.3 km/h
842 02-03-2020 01:00:00 4.30833 C 6.04 g/m*3 1.21 C 13.15833 km/h
843 02-03-2020 02:00:00 4.25 C 6.01 g/m*3 1.49 C 11.3 km/h
844 02-03-2020 03:00:00 3.89167 C 5.86 g/m*3 2.18 C 6.825 km/h
845 02-03-2020 04:00:00 3.225 C 5.67 g/m*3 3.23 C 4.40833 km/h
846 02-03-2020 05:00:00 2.49167 C 5.41 g/m*3 2.49 C 4.13333 km/h
847 02-03-2020 06:00:00 2.23333 C 5.37 g/m*3 2.23 C 3.2 km/h
848 02-03-2020 07:00:00 2.675 C 5.58 g/m*3 2.68 C 0.8 km/h
849 02-03-2020 08:00:00 3.525 C 5.93 g/m*3 3.53 C 0.4 km/h
850 02-03-2020 09:00:00 4.825 C 6.43 g/m*3 3.85 C 5.1 km/h
Sensor: Nr:Datum:Temp:Abs-Feuchte:Windchill:Wind:
Aussen-T/F 851 02-03-2020 10:00:00 6.95 C 6.75 g/m*3 5.48 C 7.78333 km/h
852 02-03-2020 11:00:00 9.475 C 7.06 g/m*3 8.27 C 8.59167 km/h
853 02-03-2020 12:00:00 10.8 C 6.86 g/m*3 9.74 C 9.11667 km/h
854 02-03-2020 13:00:00 11.58333 C 7 g/m*3 11.58 C 8.06667 km/h
855 02-03-2020 14:00:00 11.09167 C 6.86 g/m*3 11.09 C 8.86667 km/h
856 02-03-2020 15:00:00 10.41667 C 6.95 g/m*3 10.42 C 3.74167 km/h
857 02-03-2020 16:00:00 9.01667 C 7.7 g/m*3 9.02 C 0.8 km/h
858 02-03-2020 17:00:00 7.63333 C 7.42 g/m*3 7.63 C 0 km/h
859 02-03-2020 18:00:00 6.99167 C 7.25 g/m*3 6.99 C 0 km/h
860 02-03-2020 19:00:00 6.53333 C 7.11 g/m*3 6.53 C 0 km/h
861 02-03-2020 20:00:00 6.35833 C 7.06 g/m*3 6.36 C 0 km/h
862 02-03-2020 21:00:00 6.225 C 7.02 g/m*3 6.23 C 0 km/h
863 02-03-2020 22:00:00 6.15833 C 7.04 g/m*3 6.16 C 0.26667 km/h
864 02-03-2020 23:00:00 5.95 C 6.94 g/m*3 5.95 C 1.86667 km/h
865 03-03-2020 00:00:00 5.79167 C 6.87 g/m*3 5.79 C 4.14167 km/h
866 03-03-2020 01:00:00 5.60833 C 6.7 g/m*3 3.15 C 11.14167 km/h
867 03-03-2020 02:00:00 5.2 C 6.31 g/m*3 3.53 C 7.39167 km/h
868 03-03-2020 03:00:00 4.43333 C 5.91 g/m*3 3.3 C 5.35 km/h
869 03-03-2020 04:00:00 3.65 C 5.71 g/m*3 2.07 C 6.28333 km/h
870 03-03-2020 05:00:00 3.41667 C 5.66 g/m*3 1.58 C 6.98333 km/h
871 03-03-2020 06:00:00 3.28333 C 5.65 g/m*3 1.55 C 6.56667 km/h
872 03-03-2020 07:00:00 3.275 C 5.63 g/m*3 1.25 C 7.51667 km/h
873 03-03-2020 08:00:00 3.50833 C 5.69 g/m*3 0.74 C 10.6 km/h
874 03-03-2020 09:00:00 4.025 C 5.73 g/m*3 1.19 C 11.41667 km/h
875 03-03-2020 10:00:00 5.24167 C 5.81 g/m*3 2 C 15.3 km/h
Sensor: Nr:Datum:Temp:Abs-Feuchte:Windchill:Wind:
Aussen-T/F 876 03-03-2020 11:00:00 5.45 C 5.82 g/m*3 3.15 C 10.225 km/h
877 03-03-2020 12:00:00 6.23333 C 6.01 g/m*3 4.23 C 9.55 km/h
878 03-03-2020 13:00:00 7.33333 C 6.02 g/m*3 5.16 C 11.55833 km/h
879 03-03-2020 14:00:00 6.50833 C 6.28 g/m*3 5.06 C 7.38333 km/h
880 03-03-2020 15:00:00 6.11667 C 6.28 g/m*3 4.43 C 8.06667 km/h
881 03-03-2020 16:00:00 7.39167 C 6.28 g/m*3 6.13 C 7.24167 km/h
882 03-03-2020 17:00:00 7.00833 C 6.22 g/m*3 7.01 C 4.28333 km/h
883 03-03-2020 18:00:00 5.16667 C 5.86 g/m*3 3.82 C 6.28333 km/h
884 03-03-2020 19:00:00 3.73333 C 5.63 g/m*3 2.35 C 5.75833 km/h
885 03-03-2020 20:00:00 2.88333 C 5.41 g/m*3 2.88 C 1.6 km/h
886 03-03-2020 21:00:00 2.34167 C 5.32 g/m*3 2.34 C 0 km/h
887 03-03-2020 22:00:00 2.34167 C 5.35 g/m*3 2.34 C 0 km/h
888 03-03-2020 23:00:00 2.675 C 5.52 g/m*3 2.68 C 3.86667 km/h
889 04-03-2020 00:00:00 3.175 C 5.64 g/m*3 3.18 C 3.46667 km/h
890 04-03-2020 01:00:00 2.93333 C 5.49 g/m*3 0.85 C 7.525 km/h
891 04-03-2020 02:00:00 3.29167 C 5.57 g/m*3 0.63 C 9.95833 km/h
892 04-03-2020 03:00:00 3.825 C 5.67 g/m*3 3.83 C 4.15833 km/h
893 04-03-2020 04:00:00 3.95833 C 5.73 g/m*3 1.55 C 9.41667 km/h
894 04-03-2020 05:00:00 4.10833 C 5.87 g/m*3 1.73 C 9.40833 km/h
895 04-03-2020 06:00:00 4.13333 C 5.95 g/m*3 1.57 C 10.225 km/h
896 04-03-2020 07:00:00 4.425 C 5.99 g/m*3 2.01 C 9.81667 km/h
897 04-03-2020 08:00:00 4.39167 C 5.94 g/m*3 2.37 C 8.19167 km/h
898 04-03-2020 09:00:00 5.00833 C 6.07 g/m*3 2.08 C 13.01667 km/h
899 04-03-2020 10:00:00 6.30833 C 6.25 g/m*3 3.24 C 15.83333 km/h
900 04-03-2020 11:00:00 7.475 C 6.42 g/m*3 4.85 C 14.63333 km/h
Sensor: Nr:Datum:Temp:Abs-Feuchte:Windchill:Wind:
Aussen-T/F 901 04-03-2020 12:00:00 8.89167 C 6.58 g/m*3 6.68 C 13.96667 km/h
902 04-03-2020 13:00:00 9.10833 C 6.46 g/m*3 6.71 C 15.83333 km/h
903 04-03-2020 14:00:00 9.59167 C 6.45 g/m*3 7.03 C 18.36667 km/h
904 04-03-2020 15:00:00 9.13333 C 6.51 g/m*3 6.58 C 17.16667 km/h
905 04-03-2020 16:00:00 9.03333 C 6.41 g/m*3 6.74 C 14.9 km/h
906 04-03-2020 17:00:00 8.7 C 6.29 g/m*3 7.62 C 7.38333 km/h
907 04-03-2020 18:00:00 5.73333 C 5.96 g/m*3 5.73 C 4.8 km/h
908 04-03-2020 19:00:00 4.24167 C 5.77 g/m*3 4.24 C 4.8 km/h
909 04-03-2020 20:00:00 3.95 C 5.76 g/m*3 3.95 C 2.8 km/h
910 04-03-2020 21:00:00 3.35 C 5.62 g/m*3 3.35 C 3.73333 km/h
911 04-03-2020 22:00:00 3.31667 C 5.65 g/m*3 3.32 C 0.4 km/h
912 04-03-2020 23:00:00 3.81667 C 5.9 g/m*3 3.82 C 0.4 km/h
913 05-03-2020 00:00:00 4.4 C 6.17 g/m*3 4.4 C 0.66667 km/h
914 05-03-2020 01:00:00 4.29167 C 6.14 g/m*3 4.29 C 0.8 km/h
915 05-03-2020 02:00:00 4.51667 C 6.19 g/m*3 4.52 C 3.475 km/h
916 05-03-2020 03:00:00 4.85833 C 6.16 g/m*3 4.86 C 2.93333 km/h
917 05-03-2020 04:00:00 4.94167 C 6.18 g/m*3 4.94 C 4.55 km/h
918 05-03-2020 05:00:00 4.925 C 6.18 g/m*3 4.93 C 3.2 km/h
919 05-03-2020 06:00:00 5.01667 C 6.2 g/m*3 5.02 C 4.55 km/h
920 05-03-2020 07:00:00 5.275 C 6.29 g/m*3 5.28 C 4.95 km/h
921 05-03-2020 08:00:00 5.64167 C 6.43 g/m*3 3.88 C 8.05 km/h
922 05-03-2020 09:00:00 6.175 C 6.58 g/m*3 5.02 C 6.15833 km/h
923 05-03-2020 10:00:00 6.55 C 6.67 g/m*3 5.37 C 6.45 km/h
924 05-03-2020 11:00:00 6.89167 C 6.87 g/m*3 5.81 C 6.29167 km/h
925 05-03-2020 12:00:00 7.325 C 7.01 g/m*3 7.33 C 4.81667 km/h
Sensor: Nr:Datum:Temp:Abs-Feuchte:Windchill:Wind:
Aussen-T/F 926 05-03-2020 13:00:00 7.25 C 7.24 g/m*3 7.25 C 4.94167 km/h
927 05-03-2020 14:00:00 7.025 C 7.26 g/m*3 7.03 C 2.53333 km/h
928 05-03-2020 15:00:00 6.96667 C 7.31 g/m*3 6.97 C 1.46667 km/h
929 05-03-2020 16:00:00 7.11667 C 7.41 g/m*3 5.8 C 7.25833 km/h
930 05-03-2020 17:00:00 6.78333 C 7.26 g/m*3 6.78 C 4.01667 km/h
931 05-03-2020 18:00:00 6.60833 C 7.19 g/m*3 6.61 C 0.93333 km/h
932 05-03-2020 19:00:00 6.35833 C 7.13 g/m*3 6.36 C 0.93333 km/h
933 05-03-2020 20:00:00 6.65833 C 7.27 g/m*3 6.66 C 2.13333 km/h
934 05-03-2020 21:00:00 6.8 C 7.34 g/m*3 6.8 C 0.93333 km/h
935 05-03-2020 22:00:00 6.8 C 7.4 g/m*3 6.8 C 0 km/h
936 05-03-2020 23:00:00 6.8 C 7.42 g/m*3 6.8 C 0 km/h
937 06-03-2020 00:00:00 6.83333 C 7.43 g/m*3 6.83 C 0 km/h
938 06-03-2020 01:00:00 7.25 C 7.64 g/m*3 6.03 C 6.975 km/h
939 06-03-2020 02:00:00 7.04167 C 7.34 g/m*3 5.3 C 9 km/h
940 06-03-2020 03:00:00 6.7 C 7.07 g/m*3 5.71 C 5.89167 km/h
941 06-03-2020 04:00:00 6.40833 C 7.01 g/m*3 6.41 C 2.26667 km/h
942 06-03-2020 05:00:00 6.33333 C 7.05 g/m*3 4.93 C 7.11667 km/h
943 06-03-2020 06:00:00 6.54167 C 7.2 g/m*3 4.77 C 8.725 km/h
944 06-03-2020 07:00:00 6.7 C 7.29 g/m*3 5.89 C 5.35833 km/h
945 06-03-2020 08:00:00 6 C 6.78 g/m*3 4.04 C 9.125 km/h
946 06-03-2020 09:00:00 5.725 C 6.65 g/m*3 3.9 C 8.325 km/h
947 06-03-2020 10:00:00 5.68333 C 6.46 g/m*3 3.4 C 10.36667 km/h
948 06-03-2020 11:00:00 5.825 C 6.47 g/m*3 3.69 C 9.8 km/h
949 06-03-2020 12:00:00 5.575 C 6.39 g/m*3 3.14 C 11.025 km/h
950 06-03-2020 13:00:00 5.68333 C 6.44 g/m*3 3.24 C 11.15 km/h
Sensor: Nr:Datum:Temp:Abs-Feuchte:Windchill:Wind:
Aussen-T/F 951 06-03-2020 14:00:00 5.775 C 6.46 g/m*3 3.74 C 9.28333 km/h
952 06-03-2020 15:00:00 6.1 C 6.48 g/m*3 4.38 C 8.19167 km/h
953 06-03-2020 16:00:00 6.675 C 6.52 g/m*3 5.15 C 7.78333 km/h
954 06-03-2020 17:00:00 7.1 C 6.66 g/m*3 5.32 C 9.275 km/h
955 06-03-2020 18:00:00 7.03333 C 6.52 g/m*3 5.89 C 6.58333 km/h
956 06-03-2020 19:00:00 6.76667 C 6.42 g/m*3 5.13 C 8.33333 km/h
957 06-03-2020 20:00:00 6.34167 C 6.24 g/m*3 4.44 C 9.15 km/h
958 06-03-2020 21:00:00 5.675 C 6.09 g/m*3 3.34 C 10.625 km/h
959 06-03-2020 22:00:00 5.525 C 6.07 g/m*3 3.74 C 8.05 km/h
960 06-03-2020 23:00:00 5.88333 C 6.09 g/m*3 3.81 C 9.53333 km/h
961 07-03-2020 00:00:00 5.81667 C 6.01 g/m*3 4.33 C 7.10833 km/h
962 07-03-2020 01:00:00 5.81667 C 6.08 g/m*3 4.33 C 7.1 km/h
963 07-03-2020 02:00:00 5.88333 C 6.18 g/m*3 3.96 C 8.86667 km/h
964 07-03-2020 03:00:00 5.58333 C 6.11 g/m*3 4.34 C 6.175 km/h
965 07-03-2020 04:00:00 5.41667 C 6.02 g/m*3 3.9 C 6.98333 km/h
966 07-03-2020 05:00:00 5.39167 C 5.96 g/m*3 4.4 C 5.35 km/h
967 07-03-2020 06:00:00 5.3 C 6 g/m*3 3.73 C 7.11667 km/h
968 07-03-2020 07:00:00 5.21667 C 5.96 g/m*3 5.22 C 2.54167 km/h
969 07-03-2020 08:00:00 4.89167 C 6.1 g/m*3 4.89 C 2.26667 km/h
970 07-03-2020 09:00:00 5.61667 C 6.15 g/m*3 5.62 C 4.53333 km/h
971 07-03-2020 10:00:00 6.59167 C 6.23 g/m*3 5.5 C 6.16667 km/h
972 07-03-2020 11:00:00 7.5 C 6.1 g/m*3 5.82 C 9.15 km/h
973 07-03-2020 12:00:00 7.84167 C 5.89 g/m*3 7.1 C 5.63333 km/h
974 07-03-2020 13:00:00 8.58333 C 5.85 g/m*3 7.13 C 9.00833 km/h
975 07-03-2020 14:00:00 9.65833 C 5.56 g/m*3 8.05 C 11.00833 km/h
Sensor: Nr:Datum:Temp:Abs-Feuchte:Windchill:Wind:
Aussen-T/F 976 07-03-2020 15:00:00 9.9 C 5.31 g/m*3 8.74 C 8.725 km/h
977 07-03-2020 16:00:00 9.38333 C 5.28 g/m*3 8.11 C 8.85833 km/h
978 07-03-2020 17:00:00 9 C 5.65 g/m*3 8.43 C 5.61667 km/h
979 07-03-2020 18:00:00 6.98333 C 5.82 g/m*3 6.04 C 5.86667 km/h
980 07-03-2020 19:00:00 5.025 C 5.65 g/m*3 5.03 C 4.26667 km/h
981 07-03-2020 20:00:00 5.00833 C 5.81 g/m*3 5.01 C 0.4 km/h
982 07-03-2020 21:00:00 5.15833 C 5.94 g/m*3 5.16 C 0.13333 km/h
983 07-03-2020 22:00:00 5.70833 C 5.96 g/m*3 5.71 C 1.2 km/h
984 07-03-2020 23:00:00 6.5 C 5.92 g/m*3 6.5 C 4.81667 km/h
985 08-03-2020 00:00:00 6.99167 C 6.12 g/m*3 5.85 C 6.56667 km/h
986 08-03-2020 01:00:00 7.325 C 6.29 g/m*3 6.05 C 7.23333 km/h
987 08-03-2020 02:00:00 7.40833 C 6.38 g/m*3 6.01 C 7.8 km/h
988 08-03-2020 03:00:00 7.35833 C 6.36 g/m*3 6.27 C 6.56667 km/h
989 08-03-2020 04:00:00 7.39167 C 6.34 g/m*3 5.23 C 11.55833 km/h
990 08-03-2020 05:00:00 7.30833 C 6.3 g/m*3 5.99 C 7.39167 km/h
991 08-03-2020 06:00:00 7.15833 C 6.35 g/m*3 7.16 C 3.20833 km/h
992 08-03-2020 07:00:00 8.03333 C 6.6 g/m*3 8.03 C 4.41667 km/h
993 08-03-2020 08:00:00 8.63333 C 6.79 g/m*3 8.63 C 4.81667 km/h
994 08-03-2020 09:00:00 9 C 6.91 g/m*3 9 C 3.875 km/h
995 08-03-2020 10:00:00 10.21667 C 7.18 g/m*3 8.64 C 11.56667 km/h
996 08-03-2020 11:00:00 11.50833 C 7.27 g/m*3 11.51 C 11.83333 km/h
997 08-03-2020 12:00:00 12.35833 C 7.19 g/m*3 12.36 C 14.76667 km/h
998 08-03-2020 13:00:00 12.30833 C 7.14 g/m*3 12.31 C 17.44167 km/h
999 08-03-2020 14:00:00 12.31667 C 7.19 g/m*3 12.32 C 14.23333 km/h
1000 08-03-2020 15:00:00 12.225 C 7.14 g/m*3 12.23 C 10.08333 km/h
Sensor: Nr:Datum:Temp:Abs-Feuchte:Windchill:Wind:
Aussen-T/F 1001 08-03-2020 16:00:00 12.15833 C 7.27 g/m*3 12.16 C 6.425 km/h
1002 08-03-2020 17:00:00 12.16667 C 7.48 g/m*3 12.17 C 7.10833 km/h
1003 08-03-2020 18:00:00 11.13333 C 7.73 g/m*3 11.13 C 11.03333 km/h
1004 08-03-2020 19:00:00 10.13333 C 7.89 g/m*3 9.3 C 7.375 km/h
1005 08-03-2020 20:00:00 9.76667 C 7.92 g/m*3 8.86 C 7.39167 km/h
1006 08-03-2020 21:00:00 9.74167 C 7.93 g/m*3 8.99 C 6.70833 km/h
1007 08-03-2020 22:00:00 9.71667 C 7.89 g/m*3 8.5 C 8.875 km/h
1008 08-03-2020 23:00:00 9 C 7.71 g/m*3 7.09 C 12.09167 km/h
1009 09-03-2020 00:00:00 7.9 C 7.42 g/m*3 7.26 C 5.35 km/h
1010 09-03-2020 01:00:00 7.40833 C 7.38 g/m*3 6.29 C 6.7 km/h
1011 09-03-2020 02:00:00 7.24167 C 7.32 g/m*3 7.24 C 2.13333 km/h
1012 09-03-2020 03:00:00 7.09167 C 7.26 g/m*3 7.09 C 3.06667 km/h
1013 09-03-2020 04:00:00 6.7 C 7.1 g/m*3 6.7 C 2.8 km/h
1014 09-03-2020 05:00:00 6.53333 C 7.03 g/m*3 6.53 C 4.14167 km/h
1015 09-03-2020 06:00:00 5.725 C 6.64 g/m*3 4.51 C 6.14167 km/h
1016 09-03-2020 07:00:00 5.85833 C 6.65 g/m*3 5.86 C 3.61667 km/h
1017 09-03-2020 08:00:00 6.09167 C 6.76 g/m*3 6.09 C 3.34167 km/h
1018 09-03-2020 09:00:00 7.775 C 7.1 g/m*3 5.93 C 10.225 km/h
1019 09-03-2020 10:00:00 8.56667 C 7.14 g/m*3 6.36 C 13.43333 km/h
1020 09-03-2020 11:00:00 8.86667 C 7.06 g/m*3 7.24 C 10.21667 km/h
1021 09-03-2020 12:00:00 10.05 C 6.33 g/m*3 8.29 C 12.625 km/h
1022 09-03-2020 13:00:00 9.85 C 6.67 g/m*3 8.14 C 11.94167 km/h
1023 09-03-2020 14:00:00 10.8 C 6.63 g/m*3 9.76 C 9.00833 km/h
1024 09-03-2020 15:00:00 11.24167 C 5.84 g/m*3 11.24 C 14.36667 km/h
1025 09-03-2020 16:00:00 10.85833 C 6.08 g/m*3 9.25 C 12.75833 km/h
Sensor: Nr:Datum:Temp:Abs-Feuchte:Windchill:Wind:
Aussen-T/F 1026 09-03-2020 17:00:00 10.80833 C 6.09 g/m*3 9.89 C 8.325 km/h
1027 09-03-2020 18:00:00 9.59167 C 6.35 g/m*3 9 C 6.025 km/h
1028 09-03-2020 19:00:00 7.81667 C 6.36 g/m*3 6.55 C 7.525 km/h
1029 09-03-2020 20:00:00 7.05833 C 6.33 g/m*3 5.54 C 8.04167 km/h
1030 09-03-2020 21:00:00 6.4 C 6.21 g/m*3 6.4 C 4.96667 km/h
1031 09-03-2020 22:00:00 5.95 C 6.2 g/m*3 5.95 C 4.55 km/h
1032 09-03-2020 23:00:00 5.7 C 6.19 g/m*3 5.7 C 1.2 km/h
1033 10-03-2020 00:00:00 5.55833 C 6.27 g/m*3 5.56 C 2 km/h
1034 10-03-2020 01:00:00 6.58333 C 6.49 g/m*3 6.58 C 4.95 km/h
1035 10-03-2020 02:00:00 7.325 C 6.54 g/m*3 7.33 C 4.40833 km/h
1036 10-03-2020 03:00:00 7.3 C 6.76 g/m*3 4.51 C 15.55833 km/h
1037 10-03-2020 04:00:00 6.73333 C 6.75 g/m*3 4.61 C 10.61667 km/h
1038 10-03-2020 05:00:00 6.26667 C 6.66 g/m*3 3.08 C 16.65 km/h
1039 10-03-2020 06:00:00 5.825 C 6.57 g/m*3 2.95 C 13.81667 km/h
1040 10-03-2020 07:00:00 6.15833 C 6.75 g/m*3 2.89 C 17.03333 km/h
1041 10-03-2020 08:00:00 6.825 C 7.03 g/m*3 3.42 C 19.575 km/h
1042 10-03-2020 09:00:00 7.325 C 7.32 g/m*3 4.2 C 18.23333 km/h
1043 10-03-2020 10:00:00 7.91667 C 7.67 g/m*3 4.91 C 18.5 km/h
1044 10-03-2020 11:00:00 8.80833 C 8.14 g/m*3 6.24 C 16.63333 km/h
1045 10-03-2020 12:00:00 9.525 C 8.55 g/m*3 6.97 C 18.1 km/h
1046 10-03-2020 13:00:00 9.99167 C 8.8 g/m*3 7.57 C 17.96667 km/h
1047 10-03-2020 14:00:00 10.68333 C 9.2 g/m*3 8.68 C 15.7 km/h
1048 10-03-2020 15:00:00 11.78333 C 9.62 g/m*3 11.78 C 22.66667 km/h
1049 10-03-2020 16:00:00 12.64167 C 9.93 g/m*3 12.64 C 19.96667 km/h
1050 10-03-2020 17:00:00 12.78333 C 10.07 g/m*3 12.78 C 16.1 km/h
Sensor: Nr:Datum:Temp:Abs-Feuchte:Windchill:Wind:
Aussen-T/F 1051 10-03-2020 18:00:00 12.7 C 10.1 g/m*3 12.7 C 17.83333 km/h
1052 10-03-2020 19:00:00 12.70833 C 10.14 g/m*3 12.71 C 18.76667 km/h
1053 10-03-2020 20:00:00 12.95 C 10.25 g/m*3 12.95 C 19.575 km/h
1054 10-03-2020 21:00:00 13.33333 C 10.42 g/m*3 13.33 C 18.5 km/h
1055 10-03-2020 22:00:00 13.275 C 10.55 g/m*3 13.28 C 18.1 km/h
1056 10-03-2020 23:00:00 13.25833 C 10.52 g/m*3 13.26 C 15.7 km/h
1057 11-03-2020 00:00:00 13.65833 C 10.33 g/m*3 13.66 C 16.1 km/h
1058 11-03-2020 01:00:00 13.65833 C 10.48 g/m*3 13.66 C 18.9 km/h
1059 11-03-2020 02:00:00 13.45 C 10.55 g/m*3 13.45 C 14.5 km/h
1060 11-03-2020 03:00:00 13.65833 C 10.57 g/m*3 13.66 C 19.43333 km/h
1061 11-03-2020 04:00:00 13.65 C 10.49 g/m*3 13.65 C 19.7 km/h
1062 11-03-2020 05:00:00 13.53333 C 10.43 g/m*3 13.53 C 17.7 km/h
1063 11-03-2020 06:00:00 13.43333 C 10.3 g/m*3 13.43 C 16.76667 km/h
1064 11-03-2020 07:00:00 13.40833 C 10.14 g/m*3 13.41 C 17.16667 km/h
1065 11-03-2020 08:00:00 13.1 C 9.98 g/m*3 13.1 C 18.36667 km/h
1066 11-03-2020 09:00:00 13.43333 C 10.24 g/m*3 13.43 C 18.65 km/h
1067 11-03-2020 10:00:00 13.98333 C 10.44 g/m*3 13.98 C 18.9 km/h
1068 11-03-2020 11:00:00 14.83333 C 10.76 g/m*3 14.83 C 19.96667 km/h
1069 11-03-2020 12:00:00 15.575 C 10.88 g/m*3 15.58 C 20.10833 km/h
1070 11-03-2020 13:00:00 15.85 C 10.96 g/m*3 15.85 C 21.7 km/h
1071 11-03-2020 14:00:00 15.83333 C 10.79 g/m*3 15.83 C 24.125 km/h
1072 11-03-2020 15:00:00 15.3 C 10.7 g/m*3 15.3 C 19.56667 km/h
1073 11-03-2020 16:00:00 14.8 C 10.82 g/m*3 14.8 C 14.23333 km/h
1074 11-03-2020 17:00:00 14.125 C 10.71 g/m*3 14.13 C 11.94167 km/h
1075 11-03-2020 18:00:00 13.66667 C 10.43 g/m*3 13.67 C 11.69167 km/h
Sensor: Nr:Datum:Temp:Abs-Feuchte:Windchill:Wind:
Aussen-T/F 1076 11-03-2020 19:00:00 13.61667 C 10.39 g/m*3 13.62 C 10.34167 km/h
1077 11-03-2020 20:00:00 13.71667 C 10.35 g/m*3 13.72 C 13.28333 km/h
1078 11-03-2020 21:00:00 13.79167 C 10.2 g/m*3 13.79 C 19.70833 km/h
1079 11-03-2020 22:00:00 14.14167 C 9.89 g/m*3 14.14 C 23.46667 km/h
1080 11-03-2020 23:00:00 13.95 C 9.62 g/m*3 13.95 C 28.03333 km/h
1081 12-03-2020 00:00:00 13.84167 C 9.53 g/m*3 13.84 C 20.775 km/h
1082 12-03-2020 01:00:00 14.01667 C 9.53 g/m*3 14.02 C 20.76667 km/h
1083 12-03-2020 02:00:00 13.825 C 9.38 g/m*3 13.83 C 16.76667 km/h
1084 12-03-2020 03:00:00 13.575 C 8.96 g/m*3 13.58 C 17.7 km/h
1085 12-03-2020 04:00:00 13.23333 C 8.71 g/m*3 13.23 C 15.43333 km/h
1086 12-03-2020 05:00:00 12.85833 C 8.75 g/m*3 12.86 C 16.5 km/h
1087 12-03-2020 06:00:00 12.35 C 8.84 g/m*3 12.35 C 14.63333 km/h
1088 12-03-2020 07:00:00 12.15 C 9.1 g/m*3 12.15 C 16.23333 km/h
1089 12-03-2020 08:00:00 11.16667 C 9.09 g/m*3 11.17 C 12.09167 km/h
1090 12-03-2020 09:00:00 10.56667 C 8.55 g/m*3 9.14 C 11.03333 km/h
1091 12-03-2020 10:00:00 11.50833 C 8.09 g/m*3 11.51 C 17.43333 km/h
1092 12-03-2020 11:00:00 11.39167 C 6.55 g/m*3 11.39 C 21.59167 km/h
1093 12-03-2020 12:00:00 12.05833 C 5.47 g/m*3 12.06 C 20.90833 km/h
1094 12-03-2020 13:00:00 12.04167 C 5.55 g/m*3 12.04 C 18.76667 km/h
1095 12-03-2020 14:00:00 12.10833 C 5.89 g/m*3 12.11 C 20.90833 km/h
1096 12-03-2020 15:00:00 11.825 C 6.21 g/m*3 11.83 C 16.9 km/h
1097 12-03-2020 16:00:00 11.675 C 5.94 g/m*3 11.68 C 16.64167 km/h
1098 12-03-2020 17:00:00 11.5 C 5.96 g/m*3 11.5 C 10.75 km/h
1099 12-03-2020 18:00:00 10.48333 C 6.43 g/m*3 10.02 C 6.04167 km/h
1100 12-03-2020 19:00:00 7.78333 C 6.3 g/m*3 7.78 C 4.40833 km/h
Sensor: Nr:Datum:Temp:Abs-Feuchte:Windchill:Wind:
Aussen-T/F 1101 12-03-2020 20:00:00 7.275 C 6.26 g/m*3 6.25 C 6.29167 km/h
1102 12-03-2020 21:00:00 7.41667 C 6.34 g/m*3 6.09 C 7.51667 km/h
1103 12-03-2020 22:00:00 7.75833 C 6.48 g/m*3 6.18 C 8.875 km/h
1104 12-03-2020 23:00:00 7.475 C 6.09 g/m*3 5.71 C 9.525 km/h
1105 13-03-2020 00:00:00 6.725 C 5.43 g/m*3 4.24 C 12.63333 km/h
1106 13-03-2020 01:00:00 5.85833 C 5.37 g/m*3 3.23 C 12.36667 km/h
1107 13-03-2020 02:00:00 5.35833 C 5.4 g/m*3 2.88 C 11.01667 km/h
1108 13-03-2020 03:00:00 5.61667 C 5.43 g/m*3 2.08 C 18.10833 km/h
1109 13-03-2020 04:00:00 5.575 C 5.48 g/m*3 2.73 C 13.3 km/h
1110 13-03-2020 05:00:00 5.74167 C 5.45 g/m*3 2.95 C 13.16667 km/h
1111 13-03-2020 06:00:00 5.875 C 5.54 g/m*3 3.21 C 12.63333 km/h
1112 13-03-2020 07:00:00 5.95833 C 5.67 g/m*3 3.38 C 12.23333 km/h
1113 13-03-2020 08:00:00 6.34167 C 5.89 g/m*3 4.06 C 11.025 km/h
1114 13-03-2020 09:00:00 7.13333 C 6.09 g/m*3 4.85 C 11.96667 km/h
1115 13-03-2020 10:00:00 8.03333 C 6.26 g/m*3 5.45 C 15.3 km/h
1116 13-03-2020 11:00:00 8.51667 C 6.58 g/m*3 5.86 C 16.76667 km/h
1117 13-03-2020 12:00:00 9 C 6.41 g/m*3 6.46 C 16.76667 km/h
1118 13-03-2020 13:00:00 9.325 C 6.63 g/m*3 7.01 C 15.56667 km/h
1119 13-03-2020 14:00:00 9.74167 C 6.58 g/m*3 7.76 C 13.7 km/h
1120 13-03-2020 15:00:00 10.11667 C 6.21 g/m*3 8.46 C 11.96667 km/h
1121 13-03-2020 16:00:00 9.99167 C 6.22 g/m*3 8.18 C 12.9 km/h
1122 13-03-2020 17:00:00 9.54167 C 6.44 g/m*3 8.17 C 9.54167 km/h
1123 13-03-2020 18:00:00 8.93333 C 6.45 g/m*3 7.66 C 8.45 km/h
1124 13-03-2020 19:00:00 7.975 C 6.43 g/m*3 7.98 C 4.4 km/h
1125 13-03-2020 20:00:00 7.225 C 6.41 g/m*3 7.23 C 4.94167 km/h
Sensor: Nr:Datum:Temp:Abs-Feuchte:Windchill:Wind:
Aussen-T/F 1126 13-03-2020 21:00:00 6.475 C 6.31 g/m*3 5.54 C 5.61667 km/h
1127 13-03-2020 22:00:00 5.925 C 6.28 g/m*3 5.93 C 3.33333 km/h
1128 13-03-2020 23:00:00 6.03333 C 6.36 g/m*3 6.03 C 1.33333 km/h
1129 14-03-2020 00:00:00 5.28333 C 6.12 g/m*3 5.28 C 2.4 km/h
1130 14-03-2020 01:00:00 3.725 C 5.65 g/m*3 3.73 C 0 km/h
1131 14-03-2020 02:00:00 3.76667 C 5.83 g/m*3 3.77 C 0.8 km/h
1132 14-03-2020 03:00:00 2.83333 C 5.44 g/m*3 2.83 C 0.13333 km/h
1133 14-03-2020 04:00:00 2.48333 C 5.39 g/m*3 2.48 C 0 km/h
1134 14-03-2020 05:00:00 1.99167 C 5.23 g/m*3 1.99 C 0.13333 km/h
1135 14-03-2020 06:00:00 1.59167 C 5.11 g/m*3 1.59 C 0.13333 km/h
1136 14-03-2020 07:00:00 1.58333 C 5.13 g/m*3 1.58 C 0 km/h
1137 14-03-2020 08:00:00 2.06667 C 5.35 g/m*3 2.07 C 0 km/h
1138 14-03-2020 09:00:00 3.55833 C 5.93 g/m*3 3.56 C 0.66667 km/h
1139 14-03-2020 10:00:00 5.68333 C 6.59 g/m*3 5.68 C 0.53333 km/h
1140 14-03-2020 11:00:00 8.38333 C 6.95 g/m*3 8.38 C 1.86667 km/h
1141 14-03-2020 12:00:00 10.15833 C 6.89 g/m*3 10.16 C 3.74167 km/h
1142 14-03-2020 13:00:00 10.93333 C 6.54 g/m*3 10.68 C 5.48333 km/h
1143 14-03-2020 14:00:00 11.70833 C 6.36 g/m*3 11.71 C 9.01667 km/h
1144 14-03-2020 15:00:00 11.19167 C 6.04 g/m*3 11.19 C 6.03333 km/h
1145 14-03-2020 16:00:00 10.75 C 6.16 g/m*3 10.5 C 5.35833 km/h
1146 14-03-2020 17:00:00 10.38333 C 6.31 g/m*3 10.38 C 2.53333 km/h
1147 14-03-2020 18:00:00 8.53333 C 6.22 g/m*3 8.53 C 1.33333 km/h
1148 14-03-2020 19:00:00 5.95833 C 6.06 g/m*3 5.96 C 4.4 km/h
1149 14-03-2020 20:00:00 5.43333 C 6.07 g/m*3 5.43 C 3.86667 km/h
1150 14-03-2020 21:00:00 5.91667 C 6.2 g/m*3 5.92 C 1.6 km/h
Sensor: Nr:Datum:Temp:Abs-Feuchte:Windchill:Wind:
Aussen-T/F 1151 14-03-2020 22:00:00 5.55 C 6.12 g/m*3 5.55 C 3.33333 km/h
1152 14-03-2020 23:00:00 5.925 C 6.28 g/m*3 5.93 C 0.4 km/h
1153 15-03-2020 00:00:00 6.31667 C 6.32 g/m*3 6.32 C 0.53333 km/h
1154 15-03-2020 01:00:00 5.91667 C 6.21 g/m*3 5.92 C 0 km/h
1155 15-03-2020 02:00:00 5.50833 C 6.17 g/m*3 5.51 C 1.33333 km/h
1156 15-03-2020 03:00:00 4.95833 C 5.93 g/m*3 4.96 C 4.26667 km/h
1157 15-03-2020 04:00:00 4.26667 C 5.76 g/m*3 4.27 C 4.66667 km/h
1158 15-03-2020 05:00:00 4.05 C 5.68 g/m*3 4.05 C 2.8 km/h
1159 15-03-2020 06:00:00 3.88333 C 5.59 g/m*3 3.88 C 3.06667 km/h
1160 15-03-2020 07:00:00 3.79167 C 5.61 g/m*3 3.79 C 3.73333 km/h
1161 15-03-2020 08:00:00 5.08333 C 6.16 g/m*3 5.08 C 0.26667 km/h
1162 15-03-2020 09:00:00 7.25833 C 6.66 g/m*3 7.26 C 0.8 km/h
1163 15-03-2020 10:00:00 10.025 C 6.8 g/m*3 10.03 C 2.13333 km/h
1164 15-03-2020 11:00:00 12.9 C 6.88 g/m*3 12.9 C 9.93333 km/h
1165 15-03-2020 12:00:00 13.9 C 6.7 g/m*3 13.9 C 11.28333 km/h
1166 15-03-2020 13:00:00 14.8 C 6.71 g/m*3 14.8 C 11.425 km/h
1167 15-03-2020 14:00:00 15.19167 C 6.65 g/m*3 15.19 C 10.75 km/h
1168 15-03-2020 15:00:00 15.625 C 6.59 g/m*3 15.63 C 9.275 km/h
1169 15-03-2020 16:00:00 16.29167 C 6.55 g/m*3 16.29 C 7.53333 km/h
1170 15-03-2020 17:00:00 16.06667 C 6.79 g/m*3 16.07 C 5.1 km/h
1171 15-03-2020 18:00:00 12.35 C 6.97 g/m*3 12.35 C 4.66667 km/h
1172 15-03-2020 19:00:00 9.23333 C 6.59 g/m*3 8.48 C 6.4 km/h
1173 15-03-2020 20:00:00 8.125 C 6.49 g/m*3 7.39 C 5.73333 km/h
1174 15-03-2020 21:00:00 7.28333 C 6.35 g/m*3 7.28 C 4.8 km/h
1175 15-03-2020 22:00:00 6.15 C 6.02 g/m*3 6.15 C 0.13333 km/h
Sensor: Nr:Datum:Temp:Abs-Feuchte:Windchill:Wind:
Aussen-T/F 1176 15-03-2020 23:00:00 5.25833 C 5.94 g/m*3 5.26 C 0.13333 km/h
1177 16-03-2020 00:00:00 4.5 C 5.73 g/m*3 4.5 C 0 km/h
1178 16-03-2020 01:00:00 3.80833 C 5.6 g/m*3 3.81 C 0 km/h
1179 16-03-2020 02:00:00 3.50833 C 5.56 g/m*3 3.51 C 0 km/h
1180 16-03-2020 03:00:00 3.33333 C 5.48 g/m*3 3.33 C 0 km/h
1181 16-03-2020 04:00:00 2.74167 C 5.37 g/m*3 2.74 C 0 km/h
1182 16-03-2020 05:00:00 2.425 C 5.28 g/m*3 2.42 C 0 km/h
1183 16-03-2020 06:00:00 1.86667 C 5.12 g/m*3 1.87 C 0 km/h
1184 16-03-2020 07:00:00 2.06667 C 5.25 g/m*3 2.07 C 0 km/h
1185 16-03-2020 08:00:00 2.86667 C 5.59 g/m*3 2.87 C 0 km/h
1186 16-03-2020 09:00:00 4.21667 C 6.12 g/m*3 4.22 C 0 km/h
1187 16-03-2020 10:00:00 7.075 C 7.09 g/m*3 7.08 C 0 km/h
1188 16-03-2020 11:00:00 12.10833 C 8.17 g/m*3 12.11 C 3.33333 km/h
1189 16-03-2020 12:00:00 15.2 C 8.43 g/m*3 15.2 C 5.21667 km/h
1190 16-03-2020 13:00:00 16.525 C 8.53 g/m*3 16.52 C 3.6 km/h
1191 16-03-2020 14:00:00 17.4 C 8.72 g/m*3 17.4 C 5.75 km/h
1192 16-03-2020 15:00:00 17.8 C 8.8 g/m*3 17.8 C 8.06667 km/h
1193 16-03-2020 16:00:00 18.45 C 8.81 g/m*3 18.45 C 8.06667 km/h
1194 16-03-2020 17:00:00 18.5 C 8.79 g/m*3 18.5 C 8.46667 km/h
1195 16-03-2020 18:00:00 15.41667 C 8.83 g/m*3 15.42 C 5.6 km/h
1196 16-03-2020 19:00:00 12.325 C 8.49 g/m*3 12.33 C 6.13333 km/h
1197 16-03-2020 20:00:00 11.16667 C 8.28 g/m*3 11.17 C 3.46667 km/h
1198 16-03-2020 21:00:00 10.23333 C 8.14 g/m*3 10.23 C 2.93333 km/h
1199 16-03-2020 22:00:00 9.95 C 8.09 g/m*3 9.95 C 1.73333 km/h
1200 16-03-2020 23:00:00 9.71667 C 8.14 g/m*3 9.72 C 0.4 km/h
Sensor: Nr:Datum:Temp:Abs-Feuchte:Windchill:Wind:
Aussen-T/F 1201 17-03-2020 00:00:00 9.75833 C 8.19 g/m*3 9.76 C 0 km/h
1202 17-03-2020 01:00:00 9.40833 C 8.12 g/m*3 9.41 C 0 km/h
1203 17-03-2020 02:00:00 9.24167 C 8.13 g/m*3 9.24 C 0 km/h
1204 17-03-2020 03:00:00 8.99167 C 8.03 g/m*3 8.99 C 0 km/h
1205 17-03-2020 04:00:00 9 C 8.13 g/m*3 9 C 0.4 km/h
1206 17-03-2020 05:00:00 9.06667 C 8.09 g/m*3 9.07 C 0.93333 km/h
1207 17-03-2020 06:00:00 8.66667 C 7.88 g/m*3 8.67 C 0.13333 km/h
1208 17-03-2020 07:00:00 9.11667 C 8.07 g/m*3 9.12 C 1.33333 km/h
1209 17-03-2020 08:00:00 9.98333 C 8.16 g/m*3 9.98 C 1.46667 km/h
1210 17-03-2020 09:00:00 10.30833 C 8.1 g/m*3 10.31 C 0.4 km/h
1211 17-03-2020 10:00:00 10.9 C 8.25 g/m*3 10.9 C 1.2 km/h
1212 17-03-2020 11:00:00 12.05833 C 8.4 g/m*3 12.06 C 2.8 km/h
1213 17-03-2020 12:00:00 13.75 C 8.5 g/m*3 13.75 C 4.95 km/h
1214 17-03-2020 13:00:00 15.025 C 8.56 g/m*3 15.03 C 5.08333 km/h
1215 17-03-2020 14:00:00 15.6 C 8.4 g/m*3 15.6 C 4.825 km/h
1216 17-03-2020 15:00:00 16.14167 C 8.02 g/m*3 16.14 C 5.075 km/h
1217 17-03-2020 16:00:00 17.5 C 8.05 g/m*3 17.5 C 5.35833 km/h
1218 17-03-2020 17:00:00 18.05833 C 8.28 g/m*3 18.06 C 1.46667 km/h
1219 17-03-2020 18:00:00 14.55833 C 8.52 g/m*3 14.56 C 4.13333 km/h
1220 17-03-2020 19:00:00 11.35 C 8.08 g/m*3 11.35 C 4.53333 km/h
1221 17-03-2020 20:00:00 10.20833 C 7.91 g/m*3 10.21 C 3.61667 km/h
1222 17-03-2020 21:00:00 9.44167 C 7.69 g/m*3 9.44 C 0.53333 km/h
1223 17-03-2020 22:00:00 7.98333 C 7.23 g/m*3 7.98 C 0 km/h
1224 17-03-2020 23:00:00 7.00833 C 7.01 g/m*3 7.01 C 0 km/h
1225 18-03-2020 00:00:00 6.625 C 6.95 g/m*3 6.63 C 0 km/h
Sensor: Nr:Datum:Temp:Abs-Feuchte:Windchill:Wind:
Aussen-T/F 1226 18-03-2020 01:00:00 6.38333 C 6.9 g/m*3 6.38 C 0.13333 km/h
1227 18-03-2020 02:00:00 5.79167 C 6.66 g/m*3 5.79 C 0.4 km/h
1228 18-03-2020 03:00:00 4.975 C 6.37 g/m*3 4.97 C 0 km/h
1229 18-03-2020 04:00:00 4.50833 C 6.23 g/m*3 4.51 C 0 km/h
1230 18-03-2020 05:00:00 4.19167 C 6.12 g/m*3 4.19 C 0.26667 km/h
1231 18-03-2020 06:00:00 3.91667 C 6.06 g/m*3 3.92 C 0.13333 km/h
1232 18-03-2020 07:00:00 4.30833 C 6.23 g/m*3 4.31 C 1.46667 km/h
1233 18-03-2020 08:00:00 5.275 C 6.68 g/m*3 5.28 C 1.2 km/h
1234 18-03-2020 09:00:00 7.74167 C 7.89 g/m*3 7.74 C 3.86667 km/h
1235 18-03-2020 10:00:00 10.825 C 8.84 g/m*3 10.67 C 5.075 km/h
1236 18-03-2020 11:00:00 12.54167 C 9.05 g/m*3 12.54 C 5.88333 km/h
1237 18-03-2020 12:00:00 14.40833 C 9.43 g/m*3 14.41 C 3.20833 km/h
1238 18-03-2020 13:00:00 16.68333 C 9.05 g/m*3 16.68 C 8.2 km/h
1239 18-03-2020 14:00:00 16.56667 C 8.54 g/m*3 16.57 C 7.79167 km/h
1240 18-03-2020 15:00:00 16.88333 C 8.71 g/m*3 16.88 C 6.30833 km/h
1241 18-03-2020 16:00:00 16.33333 C 8.48 g/m*3 16.33 C 9.55 km/h
1242 18-03-2020 17:00:00 15.99167 C 8.28 g/m*3 15.99 C 7.79167 km/h
1243 18-03-2020 18:00:00 15.44167 C 8.44 g/m*3 15.44 C 3.6 km/h
1244 18-03-2020 19:00:00 11.71667 C 8 g/m*3 11.72 C 4.13333 km/h
1245 18-03-2020 20:00:00 10.775 C 8 g/m*3 10.78 C 0 km/h
1246 18-03-2020 21:00:00 10.04167 C 7.81 g/m*3 10.04 C 0 km/h
1247 18-03-2020 22:00:00 8.78333 C 7.54 g/m*3 8.78 C 0 km/h
1248 18-03-2020 23:00:00 8.45 C 7.59 g/m*3 8.45 C 0 km/h
1249 19-03-2020 00:00:00 9.06667 C 7.7 g/m*3 9.07 C 3.73333 km/h
1250 19-03-2020 01:00:00 9.34167 C 7.66 g/m*3 9.34 C 1.46667 km/h
Sensor: Nr:Datum:Temp:Abs-Feuchte:Windchill:Wind:
Aussen-T/F 1251 19-03-2020 02:00:00 9.1 C 7.65 g/m*3 9.1 C 0 km/h
1252 19-03-2020 03:00:00 8.8 C 7.6 g/m*3 8.8 C 0.26667 km/h
1253 19-03-2020 04:00:00 8.75833 C 7.67 g/m*3 8.76 C 0 km/h
1254 19-03-2020 05:00:00 8.94167 C 7.63 g/m*3 8.94 C 0.8 km/h
1255 19-03-2020 06:00:00 8.74167 C 7.58 g/m*3 8.74 C 0.4 km/h
1256 19-03-2020 07:00:00 8.69167 C 7.67 g/m*3 8.69 C 0.13333 km/h
1257 19-03-2020 08:00:00 9.61667 C 7.88 g/m*3 9.62 C 3.2 km/h
1258 19-03-2020 09:00:00 10.74167 C 8.08 g/m*3 10.74 C 3.46667 km/h
1259 19-03-2020 10:00:00 12.2 C 8.34 g/m*3 12.2 C 0 km/h
1260 19-03-2020 11:00:00 14.25833 C 8.74 g/m*3 14.26 C 0 km/h
1261 19-03-2020 12:00:00 15.7 C 8.93 g/m*3 15.7 C 1.46667 km/h
1262 19-03-2020 13:00:00 17.51667 C 8.26 g/m*3 17.52 C 5.48333 km/h
1263 19-03-2020 14:00:00 17.15 C 8.16 g/m*3 17.15 C 4.4 km/h
1264 19-03-2020 15:00:00 17.43333 C 8.12 g/m*3 17.43 C 4.4 km/h
1265 19-03-2020 16:00:00 17.46667 C 7.91 g/m*3 17.47 C 3.6 km/h
1266 19-03-2020 17:00:00 17.11667 C 7.92 g/m*3 17.12 C 6.44167 km/h
1267 19-03-2020 18:00:00 15.75 C 8.54 g/m*3 15.75 C 2.94167 km/h
1268 19-03-2020 19:00:00 12.25 C 8.15 g/m*3 12.25 C 0.26667 km/h
1269 19-03-2020 20:00:00 11.19167 C 8.22 g/m*3 11.19 C 0 km/h
1270 19-03-2020 21:00:00 11.24167 C 8.33 g/m*3 11.24 C 0 km/h
1271 19-03-2020 22:00:00 10.36667 C 8.15 g/m*3 10.37 C 0 km/h
1272 19-03-2020 23:00:00 9.83333 C 8 g/m*3 9.83 C 0 km/h
1273 20-03-2020 00:00:00 9.30833 C 7.89 g/m*3 9.31 C 0 km/h
1274 20-03-2020 01:00:00 9.04167 C 7.87 g/m*3 9.04 C 0 km/h
1275 20-03-2020 02:00:00 8.4 C 7.59 g/m*3 8.4 C 0 km/h
Sensor: Nr:Datum:Temp:Abs-Feuchte:Windchill:Wind:
Aussen-T/F 1276 20-03-2020 03:00:00 7.78333 C 7.43 g/m*3 7.78 C 0 km/h
1277 20-03-2020 04:00:00 7.84167 C 7.52 g/m*3 7.84 C 0 km/h
1278 20-03-2020 05:00:00 7.16667 C 7.21 g/m*3 7.17 C 0 km/h
1279 20-03-2020 06:00:00 6.04167 C 6.77 g/m*3 6.04 C 0 km/h
1280 20-03-2020 07:00:00 6.00833 C 6.87 g/m*3 6.01 C 0 km/h
1281 20-03-2020 08:00:00 7.125 C 7.44 g/m*3 7.13 C 0 km/h
1282 20-03-2020 09:00:00 9.00833 C 8.32 g/m*3 9.01 C 4.15833 km/h
1283 20-03-2020 10:00:00 11.21667 C 8.87 g/m*3 11.22 C 6.01667 km/h
1284 20-03-2020 11:00:00 12.88333 C 9.17 g/m*3 12.88 C 7.24167 km/h
1285 20-03-2020 12:00:00 14.04167 C 9.32 g/m*3 14.04 C 8.60833 km/h
1286 20-03-2020 13:00:00 14.58333 C 9.32 g/m*3 14.58 C 14.1 km/h
1287 20-03-2020 14:00:00 14.84167 C 9.26 g/m*3 14.84 C 13.56667 km/h
1288 20-03-2020 15:00:00 14.61667 C 9.3 g/m*3 14.62 C 15.56667 km/h
1289 20-03-2020 16:00:00 14.41667 C 9.18 g/m*3 14.42 C 14.63333 km/h
1290 20-03-2020 17:00:00 13.80833 C 8.84 g/m*3 13.81 C 13.15833 km/h
1291 20-03-2020 18:00:00 11.83333 C 8.38 g/m*3 11.83 C 10.35833 km/h
1292 20-03-2020 19:00:00 11.21667 C 8.19 g/m*3 11.22 C 11.03333 km/h
1293 20-03-2020 20:00:00 10.4 C 7.92 g/m*3 9.99 C 5.76667 km/h
1294 20-03-2020 21:00:00 9.68333 C 7.4 g/m*3 8 C 11.54167 km/h
1295 20-03-2020 22:00:00 8.56667 C 6.98 g/m*3 6.38 C 13.29167 km/h
1296 20-03-2020 23:00:00 8.15833 C 6.61 g/m*3 6.27 C 10.9 km/h
1297 21-03-2020 00:00:00 7.8 C 6.07 g/m*3 5.82 C 11.00833 km/h
1298 21-03-2020 01:00:00 7.38333 C 6.08 g/m*3 5.39 C 10.6 km/h
1299 21-03-2020 02:00:00 6.11667 C 6.32 g/m*3 3.72 C 11.41667 km/h
1300 21-03-2020 03:00:00 5.28333 C 6.31 g/m*3 5.28 C 4.025 km/h
Sensor: Nr:Datum:Temp:Abs-Feuchte:Windchill:Wind:
Aussen-T/F 1301 21-03-2020 04:00:00 4.85 C 6.22 g/m*3 4.85 C 4.95833 km/h
1302 21-03-2020 05:00:00 4.625 C 6.2 g/m*3 4.63 C 0.8 km/h
1303 21-03-2020 06:00:00 4.6 C 6.23 g/m*3 4.6 C 0.53333 km/h
1304 21-03-2020 07:00:00 4.73333 C 6.34 g/m*3 4.73 C 0.4 km/h
1305 21-03-2020 08:00:00 5.1 C 6.5 g/m*3 5.1 C 1.6 km/h
1306 21-03-2020 09:00:00 5.525 C 6.67 g/m*3 5.53 C 2.94167 km/h
1307 21-03-2020 10:00:00 6.38333 C 6.62 g/m*3 4.19 C 10.625 km/h
1308 21-03-2020 11:00:00 7.125 C 6.22 g/m*3 4.91 C 11.56667 km/h
1309 21-03-2020 12:00:00 7.63333 C 5.87 g/m*3 4.9 C 15.7 km/h
1310 21-03-2020 13:00:00 8.08333 C 5.48 g/m*3 4.95 C 20.10833 km/h
1311 21-03-2020 14:00:00 8.49167 C 5.3 g/m*3 5.74 C 17.56667 km/h
1312 21-03-2020 15:00:00 8.99167 C 5.16 g/m*3 6.38 C 17.43333 km/h
1313 21-03-2020 16:00:00 9.45833 C 5.1 g/m*3 7.55 C 12.76667 km/h
1314 21-03-2020 17:00:00 8.56667 C 4.74 g/m*3 6.18 C 14.76667 km/h
1315 21-03-2020 18:00:00 7.04167 C 4.58 g/m*3 5.62 C 7.64167 km/h
1316 21-03-2020 19:00:00 5.58333 C 4.63 g/m*3 4.52 C 5.625 km/h
1317 21-03-2020 20:00:00 4.48333 C 4.45 g/m*3 4.48 C 4.69167 km/h
1318 21-03-2020 21:00:00 4.025 C 4.34 g/m*3 1.87 C 8.45833 km/h
1319 21-03-2020 22:00:00 3.30833 C 4.25 g/m*3 1.17 C 7.925 km/h
1320 21-03-2020 23:00:00 2.80833 C 4.18 g/m*3 1.14 C 6.16667 km/h
1321 22-03-2020 00:00:00 2.175 C 4.14 g/m*3 0.62 C 5.625 km/h
1322 22-03-2020 01:00:00 2.3 C 4.04 g/m*3 0.11 C 7.50833 km/h
1323 22-03-2020 02:00:00 1.775 C 4.01 g/m*3 -0.15 C 6.45 km/h
1324 22-03-2020 03:00:00 1.14167 C 3.97 g/m*3 1.14 C 4.275 km/h
1325 22-03-2020 04:00:00 1.04167 C 3.92 g/m*3 -1.23 C 7.125 km/h
Sensor: Nr:Datum:Temp:Abs-Feuchte:Windchill:Wind:
Aussen-T/F 1326 22-03-2020 05:00:00 0.69167 C 3.85 g/m*3 -0.85 C 5.09167 km/h
1327 22-03-2020 06:00:00 0.45833 C 3.78 g/m*3 -1.61 C 6.29167 km/h
1328 22-03-2020 07:00:00 0.85833 C 3.75 g/m*3 -1.05 C 6.04167 km/h
1329 22-03-2020 08:00:00 1.49167 C 3.71 g/m*3 -1.34 C 9.26667 km/h
1330 22-03-2020 09:00:00 2.66667 C 3.62 g/m*3 -0.56 C 11.95833 km/h
1331 22-03-2020 10:00:00 4.59167 C 3.35 g/m*3 1.35 C 14.36667 km/h
1332 22-03-2020 11:00:00 6.21667 C 2.92 g/m*3 2.81 C 18.24167 km/h
1333 22-03-2020 12:00:00 7.49167 C 2.84 g/m*3 4.32 C 19.04167 km/h
1334 22-03-2020 13:00:00 8.85 C 2.98 g/m*3 5.86 C 20.64167 km/h
1335 22-03-2020 14:00:00 9.41667 C 3.07 g/m*3 7.06 C 16.1 km/h
1336 22-03-2020 15:00:00 10.14167 C 3.18 g/m*3 8.2 C 14.1 km/h
1337 22-03-2020 16:00:00 11.00833 C 3.26 g/m*3 11.01 C 13.16667 km/h
1338 22-03-2020 17:00:00 10.6 C 3.71 g/m*3 8.88 C 13.16667 km/h
1339 22-03-2020 18:00:00 8.81667 C 3.86 g/m*3 7.18 C 10.20833 km/h
1340 22-03-2020 19:00:00 5.625 C 4.06 g/m*3 5.63 C 3.74167 km/h
1341 22-03-2020 20:00:00 3.9 C 4.02 g/m*3 3.9 C 4.81667 km/h
1342 22-03-2020 21:00:00 2.89167 C 3.84 g/m*3 2.89 C 4.14167 km/h
1343 22-03-2020 22:00:00 2.525 C 3.76 g/m*3 2.53 C 4.68333 km/h
1344 22-03-2020 23:00:00 1.38333 C 3.72 g/m*3 1.38 C 4.55 km/h
1345 23-03-2020 00:00:00 0.425 C 3.66 g/m*3 0.43 C 2.26667 km/h
1346 23-03-2020 01:00:00 -0.31667 C 3.58 g/m*3 -0.32 C 3.06667 km/h
1347 23-03-2020 02:00:00 -0.69167 C 3.48 g/m*3 -0.69 C 4 km/h
1348 23-03-2020 03:00:00 -1.04167 C 3.4 g/m*3 -1.04 C 3.86667 km/h
1349 23-03-2020 04:00:00 -1.51667 C 3.33 g/m*3 -1.52 C 3.33333 km/h
1350 23-03-2020 05:00:00 -2 C 3.29 g/m*3 -2 C 2.66667 km/h
Sensor: Nr:Datum:Temp:Abs-Feuchte:Windchill:Wind:
Aussen-T/F 1351 23-03-2020 06:00:00 -2.33333 C 3.26 g/m*3 -2.33 C 2.66667 km/h
1352 23-03-2020 07:00:00 -2.05833 C 3.3 g/m*3 -2.06 C 3.875 km/h
1353 23-03-2020 08:00:00 -0.3 C 3.14 g/m*3 -2.74 C 6.975 km/h
1354 23-03-2020 09:00:00 1.63333 C 2.94 g/m*3 -1.31 C 9.8 km/h
1355 23-03-2020 10:00:00 3.825 C 2.78 g/m*3 1.15 C 10.48333 km/h
1356 23-03-2020 11:00:00 6.01667 C 2.5 g/m*3 3.24 C 13.43333 km/h
1357 23-03-2020 12:00:00 7.51667 C 2.26 g/m*3 4.79 C 15.43333 km/h
1358 23-03-2020 13:00:00 8.5 C 2.2 g/m*3 5.67 C 18.23333 km/h
1359 23-03-2020 14:00:00 8.9 C 2.14 g/m*3 6.49 C 15.56667 km/h
1360 23-03-2020 15:00:00 9.425 C 2.24 g/m*3 7.37 C 13.7 km/h
1361 23-03-2020 16:00:00 10.23333 C 2.3 g/m*3 8.62 C 11.83333 km/h
1362 23-03-2020 17:00:00 10.25833 C 2.48 g/m*3 9.04 C 9.40833 km/h
1363 23-03-2020 18:00:00 8.53333 C 2.84 g/m*3 8.53 C 4.80833 km/h
1364 23-03-2020 19:00:00 3.775 C 3.43 g/m*3 2.56 C 5.33333 km/h
1365 23-03-2020 20:00:00 2.15833 C 3.48 g/m*3 0.66 C 5.46667 km/h
1366 23-03-2020 21:00:00 1.325 C 3.53 g/m*3 1.33 C 4 km/h
1367 23-03-2020 22:00:00 0.16667 C 3.55 g/m*3 0.17 C 1.33333 km/h
1368 23-03-2020 23:00:00 -0.50833 C 3.56 g/m*3 -0.51 C 0 km/h
1369 24-03-2020 00:00:00 -1 C 3.51 g/m*3 -1 C 0 km/h
1370 24-03-2020 01:00:00 -1.425 C 3.44 g/m*3 -1.43 C 0.8 km/h
1371 24-03-2020 02:00:00 -1.78333 C 3.41 g/m*3 -1.78 C 0.26667 km/h
1372 24-03-2020 03:00:00 -2.38333 C 3.33 g/m*3 -2.38 C 0 km/h
1373 24-03-2020 04:00:00 -2.8 C 3.19 g/m*3 -2.8 C 0 km/h
1374 24-03-2020 05:00:00 -3.04167 C 3.17 g/m*3 -3.04 C 0 km/h
1375 24-03-2020 06:00:00 -3.41667 C 3.12 g/m*3 -3.42 C 0 km/h
Sensor: Nr:Datum:Temp:Abs-Feuchte:Windchill:Wind:
Aussen-T/F 1376 24-03-2020 07:00:00 -3.125 C 3.2 g/m*3 -3.13 C 0 km/h
1377 24-03-2020 08:00:00 -2.225 C 3.32 g/m*3 -2.23 C 1.86667 km/h
1378 24-03-2020 09:00:00 0.31667 C 3.36 g/m*3 0.32 C 4.80833 km/h
1379 24-03-2020 10:00:00 4.33333 C 2.72 g/m*3 1.88 C 9.93333 km/h
1380 24-03-2020 11:00:00 6.63333 C 2.56 g/m*3 4.36 C 11.3 km/h
1381 24-03-2020 12:00:00 8.31667 C 2.53 g/m*3 6.12 C 13.03333 km/h
1382 24-03-2020 13:00:00 9.175 C 2.58 g/m*3 7.16 C 13.03333 km/h
1383 24-03-2020 14:00:00 9.44167 C 2.44 g/m*3 7.32 C 14.23333 km/h
1384 24-03-2020 15:00:00 9.93333 C 2.44 g/m*3 7.86 C 14.76667 km/h
1385 24-03-2020 16:00:00 10.81667 C 2.41 g/m*3 9.29 C 12.09167 km/h
1386 24-03-2020 17:00:00 11.11667 C 2.34 g/m*3 11.12 C 10.09167 km/h
1387 24-03-2020 18:00:00 9.46667 C 2.78 g/m*3 9.47 C 4.95 km/h
1388 24-03-2020 19:00:00 4.46667 C 3.34 g/m*3 3.25 C 5.6 km/h
1389 24-03-2020 20:00:00 2.8 C 3.35 g/m*3 1.19 C 6 km/h
1390 24-03-2020 21:00:00 1.96667 C 3.29 g/m*3 0.14 C 6.26667 km/h
1391 24-03-2020 22:00:00 1.09167 C 3.36 g/m*3 1.09 C 3.6 km/h
1392 24-03-2020 23:00:00 0.00833 C 3.25 g/m*3 0.01 C 0.66667 km/h
1393 25-03-2020 00:00:00 -0.625 C 3.22 g/m*3 -0.63 C 0.53333 km/h
1394 25-03-2020 01:00:00 -0.70833 C 3.16 g/m*3 -0.71 C 0 km/h
1395 25-03-2020 02:00:00 -0.93333 C 3.07 g/m*3 -0.93 C 0 km/h
1396 25-03-2020 03:00:00 -1.15833 C 3.07 g/m*3 -1.16 C 0 km/h
1397 25-03-2020 04:00:00 -1.91667 C 3.08 g/m*3 -1.92 C 0.66667 km/h
1398 25-03-2020 05:00:00 -2.48333 C 3.03 g/m*3 -2.48 C 1.33333 km/h
1399 25-03-2020 06:00:00 -3.025 C 3.05 g/m*3 -3.03 C 0 km/h
1400 25-03-2020 07:00:00 -2.86667 C 3.18 g/m*3 -2.87 C 0 km/h
Sensor: Nr:Datum:Temp:Abs-Feuchte:Windchill:Wind:
Aussen-T/F 1401 25-03-2020 08:00:00 -1.975 C 3.22 g/m*3 -1.98 C 0.93333 km/h
1402 25-03-2020 09:00:00 0.10833 C 3.35 g/m*3 0.11 C 4.95833 km/h
1403 25-03-2020 10:00:00 4.20833 C 3.06 g/m*3 1.16 C 12.75833 km/h
1404 25-03-2020 11:00:00 6.46667 C 2.85 g/m*3 3.95 C 12.48333 km/h
1405 25-03-2020 12:00:00 8.375 C 2.7 g/m*3 6.09 C 13.7 km/h
1406 25-03-2020 13:00:00 9.775 C 2.59 g/m*3 7.73 C 14.23333 km/h
1407 25-03-2020 14:00:00 10.125 C 2.51 g/m*3 7.92 C 16.23333 km/h
1408 25-03-2020 15:00:00 10.8 C 2.64 g/m*3 8.78 C 16.1 km/h
1409 25-03-2020 16:00:00 12.03333 C 2.48 g/m*3 12.03 C 12.625 km/h
1410 25-03-2020 17:00:00 12.09167 C 2.55 g/m*3 12.09 C 13.15833 km/h
1411 25-03-2020 18:00:00 10.28333 C 3.09 g/m*3 9.82 C 5.9 km/h
1412 25-03-2020 19:00:00 6.25833 C 3.41 g/m*3 6.26 C 3.875 km/h
1413 25-03-2020 20:00:00 4.81667 C 3.39 g/m*3 4.82 C 4.40833 km/h
1414 25-03-2020 21:00:00 5.13333 C 3.26 g/m*3 3.91 C 5.89167 km/h
1415 25-03-2020 22:00:00 3.25 C 3.47 g/m*3 3.25 C 3.6 km/h
1416 25-03-2020 23:00:00 2.01667 C 3.46 g/m*3 2.02 C 2.26667 km/h
1417 26-03-2020 00:00:00 1.325 C 3.42 g/m*3 1.33 C 3.2 km/h
1418 26-03-2020 01:00:00 0.875 C 3.37 g/m*3 0.88 C 2.4 km/h
1419 26-03-2020 02:00:00 0.66667 C 3.31 g/m*3 0.67 C 2.8 km/h
1420 26-03-2020 03:00:00 0.35833 C 3.3 g/m*3 0.36 C 2.66667 km/h
1421 26-03-2020 04:00:00 0.05 C 3.32 g/m*3 0.05 C 2.53333 km/h
1422 26-03-2020 05:00:00 -0.06667 C 3.35 g/m*3 -0.07 C 3.2 km/h
1423 26-03-2020 06:00:00 -0.30833 C 3.34 g/m*3 -0.31 C 2.66667 km/h
1424 26-03-2020 07:00:00 0.21667 C 3.37 g/m*3 0.22 C 3.88333 km/h
1425 26-03-2020 08:00:00 1.95833 C 3.37 g/m*3 -0.41 C 7.91667 km/h
Sensor: Nr:Datum:Temp:Abs-Feuchte:Windchill:Wind:
Aussen-T/F 1426 26-03-2020 09:00:00 3.79167 C 3.41 g/m*3 1.35 C 9.40833 km/h
1427 26-03-2020 10:00:00 5.625 C 3.43 g/m*3 2.84 C 13.01667 km/h
1428 26-03-2020 11:00:00 7.03333 C 3.47 g/m*3 4.43 C 13.83333 km/h
1429 26-03-2020 12:00:00 8.575 C 3.54 g/m*3 6.24 C 14.35833 km/h
1430 26-03-2020 13:00:00 9.725 C 3.63 g/m*3 7.35 C 16.9 km/h
1431 26-03-2020 14:00:00 10.54167 C 3.78 g/m*3 8.64 C 14.5 km/h
1432 26-03-2020 15:00:00 11.33333 C 3.94 g/m*3 11.33 C 15.03333 km/h
1433 26-03-2020 16:00:00 11.85833 C 4.23 g/m*3 11.86 C 11.80833 km/h
1434 26-03-2020 17:00:00 11.30833 C 4.31 g/m*3 11.31 C 16.23333 km/h
1435 26-03-2020 18:00:00 10.51667 C 4.47 g/m*3 9.22 C 10.19167 km/h
1436 26-03-2020 19:00:00 7.54167 C 4.76 g/m*3 7.54 C 2.26667 km/h
1437 26-03-2020 20:00:00 5.7 C 4.74 g/m*3 5.7 C 2.13333 km/h
1438 26-03-2020 21:00:00 4.70833 C 4.72 g/m*3 4.71 C 3.33333 km/h
1439 26-03-2020 22:00:00 4.28333 C 4.75 g/m*3 4.28 C 4 km/h
1440 26-03-2020 23:00:00 4.09167 C 4.76 g/m*3 4.09 C 2.26667 km/h
1441 27-03-2020 00:00:00 3.825 C 4.75 g/m*3 3.83 C 2.8 km/h
1442 27-03-2020 01:00:00 3.24167 C 4.73 g/m*3 3.24 C 0.8 km/h
1443 27-03-2020 02:00:00 2.91667 C 4.68 g/m*3 2.92 C 0.4 km/h
1444 27-03-2020 03:00:00 2.43333 C 4.59 g/m*3 2.43 C 1.06667 km/h
1445 27-03-2020 04:00:00 2.1 C 4.54 g/m*3 2.1 C 0 km/h
1446 27-03-2020 05:00:00 1.39167 C 4.42 g/m*3 1.39 C 0 km/h
1447 27-03-2020 06:00:00 0.74167 C 4.38 g/m*3 0.74 C 0 km/h
1448 27-03-2020 07:00:00 1.025 C 4.54 g/m*3 1.02 C 0 km/h
1449 27-03-2020 08:00:00 2.1 C 4.82 g/m*3 2.1 C 0 km/h
1450 27-03-2020 09:00:00 3.93333 C 5.13 g/m*3 3.93 C 0 km/h
Sensor: Nr:Datum:Temp:Abs-Feuchte:Windchill:Wind:
Aussen-T/F 1451 27-03-2020 10:00:00 7.24167 C 5.36 g/m*3 7.24 C 0.8 km/h
1452 27-03-2020 11:00:00 10.925 C 5.3 g/m*3 10.53 C 6.025 km/h
1453 27-03-2020 12:00:00 13.36667 C 5.3 g/m*3 13.37 C 13.3 km/h
1454 27-03-2020 13:00:00 14.76667 C 5.47 g/m*3 14.77 C 13.43333 km/h
1455 27-03-2020 14:00:00 15.425 C 5.53 g/m*3 15.43 C 15.16667 km/h
1456 27-03-2020 15:00:00 15.89167 C 5.65 g/m*3 15.89 C 18.9 km/h
1457 27-03-2020 16:00:00 16.65 C 5.73 g/m*3 16.65 C 16.23333 km/h
1458 27-03-2020 17:00:00 16.525 C 5.7 g/m*3 16.52 C 13.55833 km/h
1459 27-03-2020 18:00:00 14.875 C 6.28 g/m*3 14.88 C 5.48333 km/h
1460 27-03-2020 19:00:00 11.05 C 6.11 g/m*3 11.05 C 3.6 km/h
1461 27-03-2020 20:00:00 9.46667 C 6.14 g/m*3 9.47 C 3.33333 km/h
1462 27-03-2020 21:00:00 7.94167 C 6.05 g/m*3 7.94 C 0 km/h
1463 27-03-2020 22:00:00 6.68333 C 5.89 g/m*3 6.68 C 0 km/h
1464 27-03-2020 23:00:00 5.975 C 5.84 g/m*3 5.98 C 0 km/h
1465 28-03-2020 00:00:00 5.66667 C 5.84 g/m*3 5.67 C 0 km/h
1466 28-03-2020 01:00:00 5.075 C 5.7 g/m*3 5.08 C 0 km/h
1467 28-03-2020 02:00:00 4.34167 C 5.6 g/m*3 4.34 C 0 km/h
1468 28-03-2020 03:00:00 3.75 C 5.44 g/m*3 3.75 C 0 km/h
1469 28-03-2020 04:00:00 2.775 C 5.23 g/m*3 2.78 C 0 km/h
1470 28-03-2020 05:00:00 2.31667 C 5.16 g/m*3 2.32 C 0 km/h
1471 28-03-2020 06:00:00 1.86667 C 5.07 g/m*3 1.87 C 0 km/h
1472 28-03-2020 07:00:00 2.41667 C 5.32 g/m*3 2.42 C 0 km/h
1473 28-03-2020 08:00:00 3.40833 C 5.68 g/m*3 3.41 C 0 km/h
1474 28-03-2020 09:00:00 6.05 C 6.58 g/m*3 6.05 C 0 km/h
1475 28-03-2020 10:00:00 9.85833 C 6.92 g/m*3 9.86 C 0.4 km/h
Sensor: Nr:Datum:Temp:Abs-Feuchte:Windchill:Wind:
Aussen-T/F 1476 28-03-2020 11:00:00 13.38333 C 6.96 g/m*3 13.38 C 1.6 km/h
1477 28-03-2020 12:00:00 16.03333 C 6.74 g/m*3 16.03 C 4 km/h
1478 28-03-2020 13:00:00 17.66667 C 6.59 g/m*3 17.67 C 9.39167 km/h
1479 28-03-2020 14:00:00 18.25 C 6.64 g/m*3 18.25 C 10.9 km/h
1480 28-03-2020 15:00:00 18.325 C 6.29 g/m*3 18.33 C 13.83333 km/h
1481 28-03-2020 16:00:00 18.05 C 5.91 g/m*3 18.05 C 17.43333 km/h
1482 28-03-2020 17:00:00 16.825 C 5.05 g/m*3 16.83 C 16.36667 km/h
1483 28-03-2020 18:00:00 14.525 C 4.97 g/m*3 14.53 C 11.95833 km/h
1484 28-03-2020 19:00:00 12.35833 C 5.08 g/m*3 12.36 C 10.75833 km/h
1485 28-03-2020 20:00:00 10.94167 C 5.14 g/m*3 10.48 C 6.29167 km/h
1486 28-03-2020 21:00:00 9.40833 C 5.27 g/m*3 9.41 C 3.475 km/h
1487 28-03-2020 22:00:00 9.03333 C 5.45 g/m*3 7.64 C 9.13333 km/h
1488 28-03-2020 23:00:00 8.04167 C 5.84 g/m*3 6.28 C 10.08333 km/h
1489 29-03-2020 00:00:00 7.14167 C 5.77 g/m*3 5.31 C 9.54167 km/h
1490 29-03-2020 01:00:00 6.59167 C 5.44 g/m*3 3.97 C 13.3 km/h
1491 29-03-2020 02:00:00 5.74167 C 5.03 g/m*3 2.87 C 13.7 km/h
1492 29-03-2020 04:00:00 4.88333 C 4.71 g/m*3 2.47 C 10.20833 km/h
1493 29-03-2020 05:00:00 4.575 C 4.68 g/m*3 1.48 C 13.43333 km/h
1494 29-03-2020 06:00:00 3.8 C 4.5 g/m*3 2.48 C 5.63333 km/h
1495 29-03-2020 07:00:00 4.04167 C 4.89 g/m*3 1.75 C 9 km/h
1496 29-03-2020 08:00:00 4.36667 C 4.97 g/m*3 1.5 C 11.95833 km/h
1497 29-03-2020 09:00:00 4.64167 C 4.95 g/m*3 1.32 C 14.9 km/h
1498 29-03-2020 10:00:00 5.64167 C 4.94 g/m*3 2.09 C 18.23333 km/h
1499 29-03-2020 11:00:00 6.44167 C 4.56 g/m*3 2.7 C 21.71667 km/h
1500 29-03-2020 12:00:00 6.04167 C 4.7 g/m*3 2.43 C 19.56667 km/h
Sensor: Nr:Datum:Temp:Abs-Feuchte:Windchill:Wind:
Aussen-T/F 1501 29-03-2020 13:00:00 6.68333 C 4.36 g/m*3 3.38 C 18.36667 km/h
1502 29-03-2020 14:00:00 6.9 C 4.38 g/m*3 3.73 C 17.7 km/h
1503 29-03-2020 15:00:00 7.1 C 4.48 g/m*3 4 C 17.56667 km/h
1504 29-03-2020 16:00:00 6.90833 C 4.4 g/m*3 3.83 C 17.03333 km/h
1505 29-03-2020 17:00:00 6.89167 C 4.74 g/m*3 3.61 C 18.63333 km/h
1506 29-03-2020 18:00:00 6.06667 C 5.08 g/m*3 2.37 C 20.375 km/h
1507 29-03-2020 19:00:00 4.35 C 5.43 g/m*3 0.68 C 16.75833 km/h
1508 29-03-2020 20:00:00 3.88333 C 5.43 g/m*3 3.88 C 4.675 km/h
1509 29-03-2020 21:00:00 4.34167 C 5.06 g/m*3 1.79 C 10.35833 km/h
1510 29-03-2020 22:00:00 4.26667 C 4.77 g/m*3 0.72 C 15.83333 km/h
1511 29-03-2020 23:00:00 4.025 C 4.39 g/m*3 0.54 C 15.03333 km/h
1512 30-03-2020 00:00:00 2.95 C 4.06 g/m*3 1.03 C 6.98333 km/h
1513 30-03-2020 01:00:00 1.29167 C 3.91 g/m*3 1.29 C 3.46667 km/h
1514 30-03-2020 02:00:00 -0.3 C 3.74 g/m*3 -0.3 C 1.33333 km/h
1515 30-03-2020 03:00:00 -1.20833 C 3.63 g/m*3 -1.21 C 2.4 km/h
1516 30-03-2020 04:00:00 -1.74167 C 3.57 g/m*3 -1.74 C 1.46667 km/h
1517 30-03-2020 05:00:00 -2.05 C 3.43 g/m*3 -2.05 C 1.33333 km/h
1518 30-03-2020 06:00:00 -2.9 C 3.3 g/m*3 -2.9 C 0.93333 km/h
1519 30-03-2020 07:00:00 -3.05 C 3.28 g/m*3 -3.05 C 0.8 km/h
1520 30-03-2020 08:00:00 -3.225 C 3.28 g/m*3 -3.23 C 0.4 km/h
1521 30-03-2020 09:00:00 -2.225 C 3.36 g/m*3 -2.23 C 1.33333 km/h
1522 30-03-2020 10:00:00 -0.64167 C 3.46 g/m*3 -0.64 C 4.15 km/h
1523 30-03-2020 11:00:00 2.7 C 2.96 g/m*3 0.66 C 7.25 km/h
1524 30-03-2020 12:00:00 4.41667 C 2.58 g/m*3 2.66 C 7.25 km/h
1525 30-03-2020 13:00:00 5.98333 C 2.66 g/m*3 4.11 C 8.73333 km/h
Sensor: Nr:Datum:Temp:Abs-Feuchte:Windchill:Wind:
Aussen-T/F 1526 30-03-2020 14:00:00 7.20833 C 2.68 g/m*3 5.18 C 10.60833 km/h
1527 30-03-2020 15:00:00 8.075 C 3.04 g/m*3 5.84 C 12.9 km/h
1528 30-03-2020 16:00:00 9.05833 C 3.41 g/m*3 7.06 C 12.76667 km/h
1529 30-03-2020 17:00:00 9.51667 C 3.76 g/m*3 7.23 C 15.7 km/h
1530 30-03-2020 18:00:00 8.54167 C 4.11 g/m*3 6.41 C 12.9 km/h
1531 30-03-2020 19:00:00 7.58333 C 4.25 g/m*3 6.32 C 7.39167 km/h
1532 30-03-2020 20:00:00 4.33333 C 4.3 g/m*3 4.33 C 2.26667 km/h
1533 30-03-2020 21:00:00 3.80833 C 4.62 g/m*3 3.81 C 3.6 km/h
1534 30-03-2020 22:00:00 4.1 C 4.71 g/m*3 4.1 C 0.93333 km/h
1535 30-03-2020 23:00:00 4.375 C 4.72 g/m*3 4.38 C 1.46667 km/h
1536 31-03-2020 00:00:00 4.48333 C 4.78 g/m*3 4.48 C 1.46667 km/h
1537 31-03-2020 01:00:00 4.60833 C 5.19 g/m*3 4.61 C 2.13333 km/h
1538 31-03-2020 02:00:00 4.13333 C 5.33 g/m*3 4.13 C 1.33333 km/h
1539 31-03-2020 03:00:00 3.14167 C 5.23 g/m*3 3.14 C 1.06667 km/h
1540 31-03-2020 04:00:00 3.35 C 5.47 g/m*3 3.35 C 0.26667 km/h
1541 31-03-2020 05:00:00 3.275 C 5.38 g/m*3 3.28 C 0.66667 km/h
1542 31-03-2020 06:00:00 2.16667 C 5.09 g/m*3 2.17 C 0.53333 km/h
1543 31-03-2020 07:00:00 2.65833 C 5.34 g/m*3 2.66 C 0 km/h
1544 31-03-2020 08:00:00 3.45833 C 5.51 g/m*3 3.46 C 2.55 km/h
1545 31-03-2020 09:00:00 4.51667 C 5.06 g/m*3 2.7 C 7.51667 km/h
1546 31-03-2020 10:00:00 4.85 C 4.84 g/m*3 2.67 C 9.14167 km/h
1547 31-03-2020 11:00:00 5.25 C 4.59 g/m*3 2.69 C 11.29167 km/h
1548 31-03-2020 12:00:00 6.64167 C 4.26 g/m*3 4.42 C 11.01667 km/h
1549 31-03-2020 13:00:00 7.34167 C 3.8 g/m*3 5.1 C 11.96667 km/h
1550 31-03-2020 14:00:00 8.60833 C 3.71 g/m*3 6.32 C 14.1 km/h
Sensor: Nr:Datum:Temp:Abs-Feuchte:Windchill:Wind:
Aussen-T/F 1551 31-03-2020 15:00:00 9.04167 C 3.57 g/m*3 6.98 C 13.15833 km/h
1552 31-03-2020 16:00:00 9.81667 C 3.53 g/m*3 7.65 C 15.3 km/h
1553 31-03-2020 17:00:00 10.84167 C 3.53 g/m*3 9.54 C 10.61667 km/h
1554 31-03-2020 18:00:00 10.775 C 3.53 g/m*3 9.68 C 9.25833 km/h
1555 31-03-2020 19:00:00 9.675 C 3.67 g/m*3 9.68 C 4.96667 km/h
1556 31-03-2020 20:00:00 5.45 C 4.04 g/m*3 5.45 C 4.13333 km/h
1557 31-03-2020 21:00:00 3.39167 C 3.95 g/m*3 3.39 C 3.86667 km/h
1558 31-03-2020 22:00:00 2.40833 C 3.9 g/m*3 2.41 C 4.53333 km/h
1559 31-03-2020 23:00:00 1.425 C 3.88 g/m*3 1.43 C 4 km/h
1560 01-04-2020 00:00:00 0.59167 C 3.79 g/m*3 0.59 C 2.93333 km/h
1561 01-04-2020 01:00:00 -0.14167 C 3.74 g/m*3 -0.14 C 0.93333 km/h
1562 01-04-2020 02:00:00 -1.025 C 3.61 g/m*3 -1.02 C 0 km/h
1563 01-04-2020 03:00:00 -1.64167 C 3.49 g/m*3 -1.64 C 0 km/h
1564 01-04-2020 04:00:00 -2.175 C 3.37 g/m*3 -2.17 C 0 km/h
1565 01-04-2020 05:00:00 -2.66667 C 3.32 g/m*3 -2.67 C 0 km/h
1566 01-04-2020 06:00:00 -3.05 C 3.3 g/m*3 -3.05 C 0 km/h
1567 01-04-2020 07:00:00 -3.325 C 3.28 g/m*3 -3.33 C 0 km/h
1568 01-04-2020 08:00:00 -2.94167 C 3.4 g/m*3 -2.94 C 0 km/h
1569 01-04-2020 09:00:00 -2.1 C 3.54 g/m*3 -2.1 C 0.26667 km/h
1570 01-04-2020 10:00:00 -0.075 C 3.97 g/m*3 -0.08 C 0.13333 km/h
1571 01-04-2020 11:00:00 3.90833 C 4.05 g/m*3 3.91 C 1.2 km/h
1572 01-04-2020 12:00:00 7.29167 C 3.62 g/m*3 6.43 C 5.75 km/h
1573 01-04-2020 13:00:00 8.80833 C 3.59 g/m*3 7.88 C 6.83333 km/h
1574 01-04-2020 14:00:00 9.89167 C 3.54 g/m*3 8.84 C 8.19167 km/h
1575 01-04-2020 15:00:00 10.65833 C 3.25 g/m*3 10.03 C 6.84167 km/h
Sensor: Nr:Datum:Temp:Abs-Feuchte:Windchill:Wind:
Aussen-T/F 1576 01-04-2020 16:00:00 11.7 C 3.37 g/m*3 11.7 C 5.9 km/h
1577 01-04-2020 17:00:00 13.075 C 3.67 g/m*3 13.08 C 6.70833 km/h
1578 01-04-2020 18:00:00 12.9 C 3.68 g/m*3 12.9 C 6.16667 km/h
1579 01-04-2020 19:00:00 11.90833 C 3.66 g/m*3 11.91 C 5.88333 km/h
1580 01-04-2020 20:00:00 8.54167 C 3.83 g/m*3 8.08 C 5.075 km/h
1581 01-04-2020 21:00:00 5.31667 C 4.09 g/m*3 5.32 C 4.93333 km/h
1582 01-04-2020 22:00:00 3.75 C 4.08 g/m*3 3.75 C 2.66667 km/h
1583 01-04-2020 23:00:00 2.44167 C 4.08 g/m*3 2.44 C 0.93333 km/h
1584 02-04-2020 00:00:00 1.21667 C 3.94 g/m*3 1.22 C 1.2 km/h
1585 02-04-2020 01:00:00 0.4 C 3.91 g/m*3 0.4 C 0 km/h
1586 02-04-2020 02:00:00 -0.18333 C 3.86 g/m*3 -0.18 C 0 km/h
1587 02-04-2020 03:00:00 -0.58333 C 3.82 g/m*3 -0.58 C 0.13333 km/h
1588 02-04-2020 04:00:00 -0.825 C 3.79 g/m*3 -0.83 C 0.26667 km/h
1589 02-04-2020 05:00:00 -1.56667 C 3.69 g/m*3 -1.57 C 0 km/h
1590 02-04-2020 06:00:00 -1.725 C 3.7 g/m*3 -1.73 C 0 km/h
1591 02-04-2020 07:00:00 -1.9 C 3.69 g/m*3 -1.9 C 0.4 km/h
1592 02-04-2020 08:00:00 -1.35833 C 3.85 g/m*3 -1.36 C 0.13333 km/h
1593 02-04-2020 09:00:00 -0.64167 C 4.03 g/m*3 -0.64 C 0.13333 km/h
1594 02-04-2020 10:00:00 1.39167 C 4.55 g/m*3 1.39 C 0 km/h
1595 02-04-2020 11:00:00 5.44167 C 4.94 g/m*3 5.44 C 1.46667 km/h
1596 02-04-2020 12:00:00 8.83333 C 4.88 g/m*3 8.83 C 4.14167 km/h
1597 02-04-2020 13:00:00 10.78333 C 4.51 g/m*3 9.87 C 8.31667 km/h
1598 02-04-2020 14:00:00 12.31667 C 4.66 g/m*3 12.32 C 8.60833 km/h
1599 02-04-2020 15:00:00 13.25833 C 4.71 g/m*3 13.26 C 9.29167 km/h
1600 02-04-2020 16:00:00 13.56667 C 4.95 g/m*3 13.57 C 10.875 km/h
Sensor: Nr:Datum:Temp:Abs-Feuchte:Windchill:Wind:
Aussen-T/F 1601 02-04-2020 17:00:00 13.58333 C 5.31 g/m*3 13.58 C 13.3 km/h
1602 02-04-2020 18:00:00 12.2 C 5.45 g/m*3 12.2 C 13.03333 km/h
1603 02-04-2020 19:00:00 10.68333 C 5.09 g/m*3 9.75 C 8.31667 km/h
1604 02-04-2020 20:00:00 8.79167 C 5.03 g/m*3 8 C 6.30833 km/h
1605 02-04-2020 21:00:00 6.64167 C 5.06 g/m*3 6.64 C 4 km/h
1606 02-04-2020 22:00:00 5.86667 C 5.09 g/m*3 5.87 C 3.73333 km/h
1607 02-04-2020 23:00:00 5.25833 C 5.14 g/m*3 5.26 C 3.73333 km/h
1608 03-04-2020 00:00:00 3.475 C 4.93 g/m*3 3.48 C 1.86667 km/h
1609 03-04-2020 01:00:00 3.025 C 4.89 g/m*3 1.64 C 5.50833 km/h
1610 03-04-2020 02:00:00 3.1 C 4.95 g/m*3 3.1 C 2.93333 km/h
1611 03-04-2020 03:00:00 4.2 C 5.23 g/m*3 4.2 C 3.475 km/h
1612 03-04-2020 04:00:00 5.28333 C 5.37 g/m*3 5.28 C 2.95 km/h
1613 03-04-2020 05:00:00 5.30833 C 5.46 g/m*3 5.31 C 2.26667 km/h
1614 03-04-2020 06:00:00 5.68333 C 5.56 g/m*3 5.68 C 4.275 km/h
1615 03-04-2020 07:00:00 6.05833 C 5.61 g/m*3 4.54 C 7.38333 km/h
1616 03-04-2020 08:00:00 6.39167 C 5.74 g/m*3 4.36 C 9.83333 km/h
1617 03-04-2020 09:00:00 7.6 C 6.09 g/m*3 6.21 C 7.925 km/h
1618 03-04-2020 10:00:00 9.06667 C 6.5 g/m*3 7.67 C 9.15833 km/h
1619 03-04-2020 11:00:00 10.85 C 6.61 g/m*3 9.47 C 11.15833 km/h
1620 03-04-2020 12:00:00 11.35 C 6.29 g/m*3 11.35 C 11.83333 km/h
1621 03-04-2020 13:00:00 11.575 C 6.2 g/m*3 11.58 C 11.43333 km/h
1622 03-04-2020 14:00:00 11.66667 C 6.02 g/m*3 11.67 C 10.625 km/h
1623 03-04-2020 15:00:00 11.75 C 5.88 g/m*3 11.75 C 11.03333 km/h
1624 03-04-2020 16:00:00 12.25 C 5.44 g/m*3 12.25 C 12.76667 km/h
1625 03-04-2020 17:00:00 12.13333 C 5.29 g/m*3 12.13 C 12.63333 km/h
Sensor: Nr:Datum:Temp:Abs-Feuchte:Windchill:Wind:
Aussen-T/F 1626 03-04-2020 18:00:00 11.51667 C 5.4 g/m*3 11.52 C 11.56667 km/h
1627 03-04-2020 19:00:00 10.73333 C 5.45 g/m*3 9.56 C 9.69167 km/h
1628 03-04-2020 20:00:00 9.88333 C 5.23 g/m*3 9.13 C 6.83333 km/h
1629 03-04-2020 21:00:00 9.225 C 4.95 g/m*3 9.23 C 4.81667 km/h
1630 03-04-2020 22:00:00 7.96667 C 5.03 g/m*3 7.97 C 4 km/h
1631 03-04-2020 23:00:00 6.8 C 4.88 g/m*3 6.8 C 2.66667 km/h
1632 04-04-2020 00:00:00 5.65 C 4.76 g/m*3 5.65 C 2.93333 km/h
1633 04-04-2020 01:00:00 4.69167 C 4.73 g/m*3 4.69 C 3.2 km/h
1634 04-04-2020 02:00:00 2.50833 C 4.59 g/m*3 2.51 C 0.13333 km/h
1635 04-04-2020 03:00:00 1.41667 C 4.51 g/m*3 1.42 C 0.8 km/h
1636 04-04-2020 04:00:00 0.46667 C 4.34 g/m*3 0.47 C 0.13333 km/h
1637 04-04-2020 05:00:00 -0.05 C 4.28 g/m*3 -0.05 C 0.26667 km/h
1638 04-04-2020 06:00:00 -0.41667 C 4.21 g/m*3 -0.42 C 0.8 km/h
1639 04-04-2020 07:00:00 -0.76667 C 4.15 g/m*3 -0.77 C 0.13333 km/h
1640 04-04-2020 08:00:00 -0.50833 C 4.29 g/m*3 -0.51 C 0.13333 km/h
1641 04-04-2020 09:00:00 0.55833 C 4.59 g/m*3 0.56 C 0.8 km/h
1642 04-04-2020 10:00:00 2.78333 C 5.18 g/m*3 2.78 C 0 km/h
1643 04-04-2020 11:00:00 6.91667 C 5.66 g/m*3 6.92 C 2.54167 km/h
1644 04-04-2020 12:00:00 9.94167 C 5.38 g/m*3 9.16 C 6.98333 km/h
1645 04-04-2020 13:00:00 11.425 C 5.34 g/m*3 11.43 C 10.35833 km/h
1646 04-04-2020 14:00:00 12.76667 C 5.27 g/m*3 12.77 C 13.43333 km/h
1647 04-04-2020 15:00:00 13.55833 C 5.32 g/m*3 13.56 C 12.35833 km/h
1648 04-04-2020 16:00:00 14.85833 C 5.41 g/m*3 14.86 C 10.49167 km/h
1649 04-04-2020 17:00:00 15.90833 C 5.65 g/m*3 15.91 C 9.29167 km/h
1650 04-04-2020 18:00:00 16.275 C 5.97 g/m*3 16.27 C 9.54167 km/h
Sensor: Nr:Datum:Temp:Abs-Feuchte:Windchill:Wind:
Aussen-T/F 1651 04-04-2020 19:00:00 15.125 C 6.19 g/m*3 15.13 C 4.81667 km/h
1652 04-04-2020 20:00:00 10.55833 C 5.94 g/m*3 10.11 C 6 km/h
1653 04-04-2020 21:00:00 8.21667 C 5.54 g/m*3 8.22 C 4.675 km/h
1654 04-04-2020 22:00:00 6.325 C 5.38 g/m*3 6.33 C 0.26667 km/h
1655 04-04-2020 23:00:00 4.74167 C 5.09 g/m*3 4.74 C 0 km/h
1656 05-04-2020 00:00:00 3.59167 C 4.98 g/m*3 3.59 C 0 km/h
1657 05-04-2020 01:00:00 2.9 C 4.96 g/m*3 2.9 C 0 km/h
1658 05-04-2020 02:00:00 2.31667 C 4.9 g/m*3 2.32 C 0.26667 km/h
1659 05-04-2020 03:00:00 1.81667 C 4.82 g/m*3 1.82 C 0.26667 km/h
1660 05-04-2020 04:00:00 1.28333 C 4.75 g/m*3 1.28 C 0 km/h
1661 05-04-2020 05:00:00 0.73333 C 4.63 g/m*3 0.73 C 0 km/h
1662 05-04-2020 06:00:00 0.36667 C 4.58 g/m*3 0.37 C 0 km/h
1663 05-04-2020 07:00:00 0.325 C 4.61 g/m*3 0.33 C 0 km/h
1664 05-04-2020 08:00:00 0.925 C 4.85 g/m*3 0.93 C 0 km/h
1665 05-04-2020 09:00:00 2.525 C 5.44 g/m*3 2.53 C 0 km/h
1666 05-04-2020 10:00:00 5.60833 C 6.31 g/m*3 5.61 C 0 km/h
1667 05-04-2020 11:00:00 11.425 C 6.61 g/m*3 11.43 C 5.36667 km/h
1668 05-04-2020 12:00:00 16.28333 C 5.52 g/m*3 16.28 C 11.825 km/h
1669 05-04-2020 13:00:00 17.225 C 5.45 g/m*3 17.23 C 12.5 km/h
1670 05-04-2020 14:00:00 18.21667 C 5.55 g/m*3 18.22 C 14.36667 km/h
1671 05-04-2020 15:00:00 18.91667 C 5.46 g/m*3 18.92 C 9.39167 km/h
1672 05-04-2020 16:00:00 19.7 C 5.52 g/m*3 19.7 C 14.23333 km/h
1673 05-04-2020 17:00:00 20.9 C 5.6 g/m*3 20.9 C 10.08333 km/h
1674 05-04-2020 18:00:00 20.60833 C 5.55 g/m*3 20.61 C 9.28333 km/h
1675 05-04-2020 19:00:00 19.36667 C 5.88 g/m*3 19.37 C 4.275 km/h
Sensor: Nr:Datum:Temp:Abs-Feuchte:Windchill:Wind:
Aussen-T/F 1676 05-04-2020 20:00:00 13.875 C 5.99 g/m*3 13.88 C 6 km/h
1677 05-04-2020 21:00:00 11.36667 C 5.91 g/m*3 11.37 C 5.86667 km/h
1678 05-04-2020 22:00:00 9.58333 C 5.76 g/m*3 9.58 C 2.53333 km/h
1679 05-04-2020 23:00:00 8.01667 C 5.7 g/m*3 8.02 C 0.13333 km/h
1680 06-04-2020 00:00:00 6.9 C 5.61 g/m*3 6.9 C 0 km/h
1681 06-04-2020 01:00:00 5.84167 C 5.56 g/m*3 5.84 C 0 km/h
1682 06-04-2020 02:00:00 4.94167 C 5.45 g/m*3 4.94 C 0 km/h
1683 06-04-2020 03:00:00 4.16667 C 5.32 g/m*3 4.17 C 0 km/h
1684 06-04-2020 04:00:00 3.625 C 5.23 g/m*3 3.63 C 0 km/h
1685 06-04-2020 05:00:00 2.99167 C 5.14 g/m*3 2.99 C 0 km/h
1686 06-04-2020 06:00:00 2.26667 C 5 g/m*3 2.27 C 0 km/h
1687 06-04-2020 07:00:00 2.375 C 5.14 g/m*3 2.38 C 0 km/h
1688 06-04-2020 08:00:00 3.25833 C 5.44 g/m*3 3.26 C 0.13333 km/h
1689 06-04-2020 09:00:00 4.5 C 5.78 g/m*3 4.5 C 0.13333 km/h
1690 06-04-2020 10:00:00 7.48333 C 6.5 g/m*3 7.48 C 0.26667 km/h
1691 06-04-2020 11:00:00 14.03333 C 6.7 g/m*3 14.03 C 7.65 km/h
1692 06-04-2020 12:00:00 18.70833 C 5.85 g/m*3 18.71 C 12.63333 km/h
1693 06-04-2020 13:00:00 20.18333 C 6.06 g/m*3 20.18 C 9.55833 km/h
1694 06-04-2020 14:00:00 21.85833 C 6.06 g/m*3 21.86 C 10.89167 km/h
1695 06-04-2020 15:00:00 22.68333 C 5.03 g/m*3 22.68 C 18.23333 km/h
1696 06-04-2020 16:00:00 23.78333 C 5.52 g/m*3 23.78 C 11.68333 km/h
1697 06-04-2020 17:00:00 23.825 C 5.82 g/m*3 23.83 C 15.3 km/h
1698 06-04-2020 18:00:00 23.45833 C 5.57 g/m*3 23.46 C 13.03333 km/h
1699 06-04-2020 19:00:00 21.58333 C 6.13 g/m*3 21.58 C 6.56667 km/h
1700 06-04-2020 20:00:00 16.28333 C 6.48 g/m*3 16.28 C 5.73333 km/h
Sensor: Nr:Datum:Temp:Abs-Feuchte:Windchill:Wind:
Aussen-T/F 1701 06-04-2020 21:00:00 13.21667 C 6.46 g/m*3 13.22 C 2.26667 km/h
1702 06-04-2020 22:00:00 11.06667 C 6.32 g/m*3 11.07 C 0.8 km/h
1703 06-04-2020 23:00:00 10.00833 C 6.15 g/m*3 10.01 C 1.60833 km/h
1704 07-04-2020 00:00:00 9.56667 C 6.36 g/m*3 9.57 C 1.875 km/h
1705 07-04-2020 01:00:00 9.68333 C 6.57 g/m*3 9.68 C 1.46667 km/h
1706 07-04-2020 02:00:00 9.24167 C 6.56 g/m*3 9.24 C 0.26667 km/h
1707 07-04-2020 03:00:00 8.15 C 6.66 g/m*3 8.15 C 0.13333 km/h
1708 07-04-2020 04:00:00 7.98333 C 6.68 g/m*3 7.98 C 0 km/h
1709 07-04-2020 05:00:00 6.725 C 6.42 g/m*3 6.73 C 0 km/h
1710 07-04-2020 06:00:00 5.975 C 6.32 g/m*3 5.98 C 0 km/h
1711 07-04-2020 07:00:00 5.65833 C 6.39 g/m*3 5.66 C 0 km/h
1712 07-04-2020 08:00:00 6.50833 C 6.73 g/m*3 6.51 C 0.26667 km/h
1713 07-04-2020 09:00:00 7.83333 C 7.32 g/m*3 7.83 C 0 km/h
1714 07-04-2020 10:00:00 10.73333 C 8.39 g/m*3 10.73 C 0 km/h
1715 07-04-2020 11:00:00 14.89167 C 9.14 g/m*3 14.89 C 1.86667 km/h
1716 07-04-2020 12:00:00 17.65833 C 9.23 g/m*3 17.66 C 4.13333 km/h
1717 07-04-2020 13:00:00 19.4 C 9.13 g/m*3 19.4 C 5.88333 km/h
1718 07-04-2020 14:00:00 20.875 C 8.99 g/m*3 20.88 C 8.06667 km/h
1719 07-04-2020 15:00:00 21.86667 C 8.73 g/m*3 21.87 C 10.09167 km/h
1720 07-04-2020 16:00:00 22.43333 C 8.39 g/m*3 22.43 C 7.50833 km/h
1721 07-04-2020 17:00:00 23.35833 C 7.69 g/m*3 23.36 C 6.025 km/h
1722 07-04-2020 18:00:00 23.46667 C 7.72 g/m*3 23.47 C 6.58333 km/h
1723 07-04-2020 19:00:00 21.05 C 8.37 g/m*3 21.05 C 4 km/h
1724 07-04-2020 20:00:00 16.79167 C 8.03 g/m*3 16.79 C 5.74167 km/h
1725 07-04-2020 21:00:00 14.95833 C 8.2 g/m*3 14.96 C 5.73333 km/h
Sensor: Nr:Datum:Temp:Abs-Feuchte:Windchill:Wind:
Aussen-T/F 1726 07-04-2020 22:00:00 13.575 C 8.25 g/m*3 13.58 C 2.93333 km/h
1727 07-04-2020 23:00:00 12.94167 C 8.36 g/m*3 12.94 C 3.33333 km/h
1728 08-04-2020 00:00:00 12.11667 C 8.36 g/m*3 12.12 C 3.33333 km/h
1729 08-04-2020 01:00:00 10.99167 C 8.15 g/m*3 10.99 C 1.2 km/h
1730 08-04-2020 02:00:00 9.44167 C 7.72 g/m*3 9.44 C 0 km/h
1731 08-04-2020 03:00:00 7.95 C 7.33 g/m*3 7.95 C 0 km/h
1732 08-04-2020 04:00:00 7.175 C 7.16 g/m*3 7.18 C 0 km/h
1733 08-04-2020 05:00:00 6.48333 C 6.93 g/m*3 6.48 C 0 km/h
1734 08-04-2020 06:00:00 5.95 C 6.76 g/m*3 5.95 C 0 km/h
1735 08-04-2020 07:00:00 5.85833 C 6.79 g/m*3 5.86 C 0.13333 km/h
1736 08-04-2020 08:00:00 6.64167 C 7.21 g/m*3 6.64 C 0 km/h
1737 08-04-2020 09:00:00 7.875 C 7.87 g/m*3 7.88 C 0 km/h
1738 08-04-2020 10:00:00 10.2 C 9 g/m*3 10.2 C 0 km/h
1739 08-04-2020 11:00:00 14.9 C 10.07 g/m*3 14.9 C 0.26667 km/h
1740 08-04-2020 12:00:00 19.86667 C 8.9 g/m*3 19.87 C 3.48333 km/h
1741 08-04-2020 13:00:00 21.76667 C 6.78 g/m*3 21.77 C 7.78333 km/h
1742 08-04-2020 14:00:00 22.86667 C 5.86 g/m*3 22.87 C 7.79167 km/h
1743 08-04-2020 15:00:00 23.1 C 6.2 g/m*3 23.1 C 8.875 km/h
1744 08-04-2020 16:00:00 24.20833 C 6.02 g/m*3 24.21 C 6.16667 km/h
1745 08-04-2020 17:00:00 25.29167 C 5.87 g/m*3 25.29 C 6.575 km/h
1746 08-04-2020 18:00:00 25.375 C 6.21 g/m*3 25.38 C 4.40833 km/h
1747 08-04-2020 19:00:00 22.95833 C 7.23 g/m*3 22.96 C 2.53333 km/h
1748 08-04-2020 20:00:00 17.6 C 7.02 g/m*3 17.6 C 4.93333 km/h
1749 08-04-2020 21:00:00 14.65 C 7 g/m*3 14.65 C 2.4 km/h
1750 08-04-2020 22:00:00 12.70833 C 6.98 g/m*3 12.71 C 0.26667 km/h
Sensor: Nr:Datum:Temp:Abs-Feuchte:Windchill:Wind:
Aussen-T/F 1751 08-04-2020 23:00:00 11.65833 C 6.95 g/m*3 11.66 C 0.66667 km/h
1752 09-04-2020 00:00:00 11.4 C 6.99 g/m*3 11.4 C 0.93333 km/h
1753 09-04-2020 01:00:00 10.33333 C 7.07 g/m*3 10.33 C 1.33333 km/h
1754 09-04-2020 02:00:00 9.40833 C 7.01 g/m*3 9.41 C 0 km/h
1755 09-04-2020 03:00:00 9.68333 C 7.16 g/m*3 9.68 C 2.275 km/h
1756 09-04-2020 04:00:00 9.98333 C 7.35 g/m*3 9.98 C 3.075 km/h
1757 09-04-2020 05:00:00 9.06667 C 7.14 g/m*3 9.07 C 0 km/h
1758 09-04-2020 06:00:00 7.90833 C 6.89 g/m*3 7.91 C 0 km/h
1759 09-04-2020 07:00:00 7.55833 C 6.94 g/m*3 7.56 C 0 km/h
1760 09-04-2020 08:00:00 7.91667 C 7.22 g/m*3 7.92 C 0.13333 km/h
1761 09-04-2020 09:00:00 9.25833 C 7.8 g/m*3 9.26 C 0 km/h
1762 09-04-2020 10:00:00 11.775 C 8.55 g/m*3 11.78 C 0 km/h
1763 09-04-2020 11:00:00 16.34167 C 8.89 g/m*3 16.34 C 0.4 km/h
1764 09-04-2020 12:00:00 19.93333 C 8.94 g/m*3 19.93 C 2.13333 km/h
1765 09-04-2020 13:00:00 21.825 C 8.34 g/m*3 21.83 C 5.63333 km/h
1766 09-04-2020 14:00:00 23.09167 C 7.27 g/m*3 23.09 C 6.84167 km/h
1767 09-04-2020 15:00:00 23.71667 C 7.32 g/m*3 23.72 C 11.425 km/h
1768 09-04-2020 16:00:00 24.3 C 7.47 g/m*3 24.3 C 11.28333 km/h
1769 09-04-2020 17:00:00 24.7 C 7.49 g/m*3 24.7 C 11.3 km/h
1770 09-04-2020 18:00:00 24.00833 C 7.76 g/m*3 24.01 C 11.56667 km/h
1771 09-04-2020 19:00:00 22.30833 C 8 g/m*3 22.31 C 7.53333 km/h
1772 09-04-2020 20:00:00 18.3 C 8.42 g/m*3 18.3 C 3.06667 km/h
1773 09-04-2020 21:00:00 15.94167 C 8.33 g/m*3 15.94 C 2.26667 km/h
1774 09-04-2020 22:00:00 14.73333 C 8.27 g/m*3 14.73 C 3.46667 km/h
1775 09-04-2020 23:00:00 13.50833 C 8.16 g/m*3 13.51 C 2.66667 km/h
Sensor: Nr:Datum:Temp:Abs-Feuchte:Windchill:Wind:
Aussen-T/F 1776 10-04-2020 00:00:00 12.04167 C 8 g/m*3 12.04 C 2 km/h
1777 10-04-2020 01:00:00 10.34167 C 7.72 g/m*3 10.34 C 0 km/h
1778 10-04-2020 02:00:00 9.29167 C 7.48 g/m*3 9.29 C 0 km/h
1779 10-04-2020 03:00:00 8.3 C 7.23 g/m*3 8.3 C 0 km/h
1780 10-04-2020 04:00:00 7.45 C 7.02 g/m*3 7.45 C 0 km/h
1781 10-04-2020 05:00:00 6.94167 C 6.93 g/m*3 6.94 C 0 km/h
1782 10-04-2020 06:00:00 6.30833 C 6.75 g/m*3 6.31 C 0 km/h
1783 10-04-2020 07:00:00 6.05 C 6.74 g/m*3 6.05 C 0.13333 km/h
1784 10-04-2020 08:00:00 6.525 C 7.03 g/m*3 6.53 C 0 km/h
1785 10-04-2020 09:00:00 7.91667 C 7.7 g/m*3 7.92 C 0 km/h
1786 10-04-2020 10:00:00 10.53333 C 8.57 g/m*3 10.53 C 0.8 km/h
1787 10-04-2020 11:00:00 15.09167 C 9.26 g/m*3 15.09 C 2 km/h
1788 10-04-2020 12:00:00 18.73333 C 8.33 g/m*3 18.73 C 6.575 km/h
1789 10-04-2020 13:00:00 20.01667 C 7.8 g/m*3 20.02 C 8.73333 km/h
1790 10-04-2020 14:00:00 21.06667 C 7.51 g/m*3 21.07 C 7.38333 km/h
1791 10-04-2020 15:00:00 21.975 C 6.93 g/m*3 21.98 C 6.84167 km/h
1792 10-04-2020 16:00:00 23.04167 C 7.55 g/m*3 23.04 C 8.06667 km/h
1793 10-04-2020 17:00:00 24 C 7.36 g/m*3 24 C 9.41667 km/h
1794 10-04-2020 18:00:00 23.1 C 7.36 g/m*3 23.1 C 10.9 km/h
1795 10-04-2020 19:00:00 21.46667 C 7.23 g/m*3 21.47 C 10.76667 km/h
1796 10-04-2020 20:00:00 17.7 C 7.72 g/m*3 17.7 C 2.4 km/h
1797 10-04-2020 21:00:00 14.525 C 7.54 g/m*3 14.53 C 2.66667 km/h
1798 10-04-2020 22:00:00 14.05 C 7.71 g/m*3 14.05 C 2 km/h
1799 10-04-2020 23:00:00 12.80833 C 7.4 g/m*3 12.81 C 2.66667 km/h
1800 11-04-2020 00:00:00 11.16667 C 7.24 g/m*3 11.17 C 2.4 km/h
Sensor: Nr:Datum:Temp:Abs-Feuchte:Windchill:Wind:
Aussen-T/F 1801 11-04-2020 01:00:00 10 C 6.87 g/m*3 10 C 0.13333 km/h
1802 11-04-2020 02:00:00 8.975 C 6.52 g/m*3 8.98 C 1.73333 km/h
1803 11-04-2020 03:00:00 8.5 C 6.08 g/m*3 8.5 C 3.86667 km/h
1804 11-04-2020 04:00:00 7.86667 C 5.72 g/m*3 7.87 C 4.26667 km/h
1805 11-04-2020 05:00:00 7.06667 C 5.47 g/m*3 7.07 C 2.53333 km/h
1806 11-04-2020 06:00:00 5.80833 C 5.43 g/m*3 5.81 C 0 km/h
1807 11-04-2020 07:00:00 5.225 C 5.4 g/m*3 5.23 C 0 km/h
1808 11-04-2020 08:00:00 5.8 C 5.54 g/m*3 5.8 C 0.8 km/h
1809 11-04-2020 09:00:00 7.31667 C 5.82 g/m*3 7.32 C 0.66667 km/h
1810 11-04-2020 10:00:00 10.08333 C 6.12 g/m*3 10.08 C 1.6 km/h
1811 11-04-2020 11:00:00 14.15833 C 6.11 g/m*3 14.16 C 0.93333 km/h
1812 11-04-2020 12:00:00 18.01667 C 6.09 g/m*3 18.02 C 6.725 km/h
1813 11-04-2020 13:00:00 19.75833 C 6.13 g/m*3 19.76 C 10.89167 km/h
1814 11-04-2020 14:00:00 21.23333 C 6.67 g/m*3 21.23 C 9.15833 km/h
1815 11-04-2020 15:00:00 22.14167 C 6.85 g/m*3 22.14 C 8.325 km/h
1816 11-04-2020 16:00:00 23.375 C 7.28 g/m*3 23.38 C 4.675 km/h
1817 11-04-2020 17:00:00 24.39167 C 7.23 g/m*3 24.39 C 8.6 km/h
1818 11-04-2020 18:00:00 24.025 C 7.17 g/m*3 24.03 C 7.26667 km/h
1819 11-04-2020 19:00:00 22.83333 C 7.5 g/m*3 22.83 C 3.86667 km/h
1820 11-04-2020 20:00:00 17.31667 C 7.62 g/m*3 17.32 C 5.06667 km/h
1821 11-04-2020 21:00:00 15.18333 C 7.35 g/m*3 15.18 C 5.6 km/h
1822 11-04-2020 22:00:00 14.175 C 7.52 g/m*3 14.18 C 3.2 km/h
1823 11-04-2020 23:00:00 13.15833 C 7.51 g/m*3 13.16 C 0.4 km/h
1824 12-04-2020 00:00:00 11.83333 C 7.41 g/m*3 11.83 C 0 km/h
1825 12-04-2020 01:00:00 11.01667 C 7.11 g/m*3 11.02 C 0 km/h
Sensor: Nr:Datum:Temp:Abs-Feuchte:Windchill:Wind:
Aussen-T/F 1826 12-04-2020 02:00:00 10.75 C 7.26 g/m*3 10.75 C 0 km/h
1827 12-04-2020 03:00:00 10.375 C 7.35 g/m*3 10.38 C 0 km/h
1828 12-04-2020 04:00:00 9.7 C 7.23 g/m*3 9.7 C 0.66667 km/h
1829 12-04-2020 05:00:00 8.675 C 7.09 g/m*3 8.68 C 0 km/h
1830 12-04-2020 06:00:00 7.925 C 6.99 g/m*3 7.93 C 0.8 km/h
1831 12-04-2020 07:00:00 7.38333 C 6.94 g/m*3 7.38 C 0 km/h
1832 12-04-2020 08:00:00 8.00833 C 7.34 g/m*3 8.01 C 0.13333 km/h
1833 12-04-2020 09:00:00 9.375 C 8.01 g/m*3 9.38 C 0.53333 km/h
1834 12-04-2020 10:00:00 12.29167 C 8.95 g/m*3 12.29 C 0.8 km/h
1835 12-04-2020 11:00:00 16.63333 C 9.45 g/m*3 16.63 C 2.13333 km/h
1836 12-04-2020 12:00:00 20.175 C 8.56 g/m*3 20.18 C 6.15 km/h
1837 12-04-2020 13:00:00 21.58333 C 6.9 g/m*3 21.58 C 11.43333 km/h
1838 12-04-2020 14:00:00 22.41667 C 6.38 g/m*3 22.42 C 11.15 km/h
1839 12-04-2020 15:00:00 23.375 C 6.16 g/m*3 23.38 C 11.28333 km/h
1840 12-04-2020 16:00:00 23.85 C 6.33 g/m*3 23.85 C 7.125 km/h
1841 12-04-2020 17:00:00 24.33333 C 6.28 g/m*3 24.33 C 7.25 km/h
1842 12-04-2020 18:00:00 24.49167 C 6.06 g/m*3 24.49 C 6.56667 km/h
1843 12-04-2020 19:00:00 22.625 C 6.54 g/m*3 22.63 C 4.68333 km/h
1844 12-04-2020 20:00:00 17.7 C 6.93 g/m*3 17.7 C 6.275 km/h
1845 12-04-2020 21:00:00 14.60833 C 7.13 g/m*3 14.61 C 2 km/h
1846 12-04-2020 22:00:00 13.06667 C 6.99 g/m*3 13.07 C 0.13333 km/h
1847 12-04-2020 23:00:00 11.45 C 6.86 g/m*3 11.45 C 0.26667 km/h
1848 13-04-2020 00:00:00 10.64167 C 7.03 g/m*3 10.64 C 0 km/h
1849 13-04-2020 01:00:00 9.74167 C 6.96 g/m*3 9.74 C 0.4 km/h
1850 13-04-2020 02:00:00 9.38333 C 6.92 g/m*3 9.38 C 2.26667 km/h
Sensor: Nr:Datum:Temp:Abs-Feuchte:Windchill:Wind:
Aussen-T/F 1851 13-04-2020 03:00:00 8.675 C 6.87 g/m*3 8.68 C 1.6 km/h
1852 13-04-2020 04:00:00 7.66667 C 6.76 g/m*3 7.67 C 1.06667 km/h
1853 13-04-2020 05:00:00 7.55 C 6.9 g/m*3 7.55 C 1.33333 km/h
1854 13-04-2020 06:00:00 7.31667 C 6.77 g/m*3 7.32 C 0 km/h
1855 13-04-2020 07:00:00 7.56667 C 7.02 g/m*3 7.57 C 1.06667 km/h
1856 13-04-2020 08:00:00 9.325 C 7.73 g/m*3 9.32 C 4.40833 km/h
1857 13-04-2020 09:00:00 11.49167 C 8.63 g/m*3 11.49 C 10.75833 km/h
1858 13-04-2020 10:00:00 11.25 C 8.01 g/m*3 11.25 C 10.5 km/h
1859 13-04-2020 11:00:00 11.18333 C 7.48 g/m*3 11.18 C 14.76667 km/h
1860 13-04-2020 12:00:00 10.36667 C 7.31 g/m*3 8.08 C 17.56667 km/h
1861 13-04-2020 13:00:00 9.525 C 7.19 g/m*3 6.89 C 18.9 km/h
1862 13-04-2020 14:00:00 8.55833 C 7.08 g/m*3 6.87 C 10.21667 km/h
1863 13-04-2020 15:00:00 10.56667 C 6.1 g/m*3 8.52 C 15.83333 km/h
1864 13-04-2020 16:00:00 11.425 C 5.11 g/m*3 11.43 C 17.96667 km/h
1865 13-04-2020 17:00:00 12.55 C 4.8 g/m*3 12.55 C 16.63333 km/h
1866 13-04-2020 18:00:00 12.51667 C 4.42 g/m*3 12.52 C 16.63333 km/h
1867 13-04-2020 19:00:00 10.925 C 4.21 g/m*3 9.02 C 15.3 km/h
1868 13-04-2020 20:00:00 9.14167 C 4.06 g/m*3 7.45 C 10.9 km/h
1869 13-04-2020 21:00:00 7.91667 C 3.98 g/m*3 6.51 C 8.20833 km/h
1870 13-04-2020 22:00:00 6.05833 C 4.21 g/m*3 6.06 C 2.4 km/h
1871 13-04-2020 23:00:00 4.29167 C 4.25 g/m*3 4.29 C 3.475 km/h
1872 14-04-2020 00:00:00 4.05833 C 4.15 g/m*3 4.06 C 2.94167 km/h
1873 14-04-2020 01:00:00 3.55 C 4.15 g/m*3 3.55 C 2.26667 km/h
1874 14-04-2020 02:00:00 2.05 C 4.15 g/m*3 2.05 C 0.66667 km/h
1875 14-04-2020 03:00:00 1.48333 C 4.14 g/m*3 1.48 C 2.4 km/h
Sensor: Nr:Datum:Temp:Abs-Feuchte:Windchill:Wind:
Aussen-T/F 1876 14-04-2020 04:00:00 1.16667 C 4.11 g/m*3 1.17 C 2.4 km/h
1877 14-04-2020 05:00:00 0.775 C 4.14 g/m*3 0.78 C 1.73333 km/h
1878 14-04-2020 06:00:00 0.41667 C 4.18 g/m*3 0.42 C 0.53333 km/h
1879 14-04-2020 07:00:00 1.325 C 4.49 g/m*3 1.33 C 0 km/h
1880 14-04-2020 08:00:00 2.54167 C 4.77 g/m*3 2.54 C 0.8 km/h
1881 14-04-2020 09:00:00 4.325 C 5.02 g/m*3 4.33 C 2 km/h
1882 14-04-2020 10:00:00 6.44167 C 4.99 g/m*3 5.21 C 6.56667 km/h
1883 14-04-2020 11:00:00 7.76667 C 4.54 g/m*3 5.38 C 13.43333 km/h
1884 14-04-2020 12:00:00 8.19167 C 4.54 g/m*3 6.38 C 10.475 km/h
1885 14-04-2020 13:00:00 9.03333 C 4.62 g/m*3 7.69 C 8.88333 km/h
1886 14-04-2020 14:00:00 9.88333 C 4.58 g/m*3 8.69 C 8.89167 km/h
1887 14-04-2020 15:00:00 10.85 C 4.59 g/m*3 9.7 C 9.68333 km/h
1888 14-04-2020 16:00:00 11.825 C 4.7 g/m*3 11.83 C 10.35 km/h
1889 14-04-2020 17:00:00 12.29167 C 4.63 g/m*3 12.29 C 10.21667 km/h
1890 14-04-2020 18:00:00 12.79167 C 4.65 g/m*3 12.79 C 9.825 km/h
1891 14-04-2020 19:00:00 11.43333 C 4.59 g/m*3 11.43 C 7.78333 km/h
1892 14-04-2020 20:00:00 8.83333 C 4.85 g/m*3 8.83 C 4.4 km/h
1893 14-04-2020 21:00:00 6.10833 C 4.9 g/m*3 6.11 C 4.93333 km/h
1894 14-04-2020 22:00:00 5.36667 C 4.9 g/m*3 5.37 C 2 km/h
1895 14-04-2020 23:00:00 4.175 C 4.85 g/m*3 4.18 C 0.66667 km/h
1896 15-04-2020 00:00:00 2.9 C 4.72 g/m*3 2.9 C 0 km/h
1897 15-04-2020 01:00:00 2.075 C 4.64 g/m*3 2.08 C 0 km/h
1898 15-04-2020 02:00:00 1.41667 C 4.56 g/m*3 1.42 C 0 km/h
1899 15-04-2020 03:00:00 0.85 C 4.49 g/m*3 0.85 C 0 km/h
1900 15-04-2020 04:00:00 0.53333 C 4.46 g/m*3 0.53 C 0 km/h
Sensor: Nr:Datum:Temp:Abs-Feuchte:Windchill:Wind:
Aussen-T/F 1901 15-04-2020 05:00:00 0.325 C 4.46 g/m*3 0.33 C 0 km/h
1902 15-04-2020 06:00:00 0.1 C 4.42 g/m*3 0.1 C 0 km/h
1903 15-04-2020 07:00:00 0.21667 C 4.51 g/m*3 0.22 C 0.26667 km/h
1904 15-04-2020 08:00:00 1.48333 C 4.87 g/m*3 1.48 C 0.53333 km/h
1905 15-04-2020 09:00:00 3.29167 C 5.13 g/m*3 3.29 C 0 km/h
1906 15-04-2020 10:00:00 5.81667 C 5.52 g/m*3 5.82 C 0.26667 km/h
1907 15-04-2020 11:00:00 9.31667 C 5.73 g/m*3 9.32 C 4.15 km/h
1908 15-04-2020 12:00:00 12.63333 C 5.19 g/m*3 12.63 C 5.775 km/h
1909 15-04-2020 13:00:00 13.91667 C 5.21 g/m*3 13.92 C 8.875 km/h
1910 15-04-2020 14:00:00 15.54167 C 5.18 g/m*3 15.54 C 7.8 km/h
1911 15-04-2020 15:00:00 17.1 C 5.41 g/m*3 17.1 C 9.4 km/h
1912 15-04-2020 16:00:00 18.90833 C 5.52 g/m*3 18.91 C 7.125 km/h
1913 15-04-2020 17:00:00 20.475 C 5.58 g/m*3 20.48 C 8.2 km/h
1914 15-04-2020 18:00:00 20.275 C 5.71 g/m*3 20.27 C 8.325 km/h
1915 15-04-2020 19:00:00 19.18333 C 5.74 g/m*3 19.18 C 4.54167 km/h
1916 15-04-2020 20:00:00 13.96667 C 5.95 g/m*3 13.97 C 5.6 km/h
1917 15-04-2020 21:00:00 11.1 C 5.96 g/m*3 11.1 C 3.46667 km/h
1918 15-04-2020 22:00:00 9.10833 C 5.96 g/m*3 9.11 C 0.66667 km/h
1919 15-04-2020 23:00:00 7.63333 C 5.73 g/m*3 7.63 C 0 km/h
1920 16-04-2020 00:00:00 6.51667 C 5.67 g/m*3 6.52 C 0.26667 km/h
1921 16-04-2020 01:00:00 5.7 C 5.57 g/m*3 5.7 C 0 km/h
1922 16-04-2020 02:00:00 4.9 C 5.49 g/m*3 4.9 C 0 km/h
1923 16-04-2020 03:00:00 4.05833 C 5.38 g/m*3 4.06 C 0 km/h
1924 16-04-2020 04:00:00 3.61667 C 5.34 g/m*3 3.62 C 0.26667 km/h
1925 16-04-2020 05:00:00 3.14167 C 5.28 g/m*3 3.14 C 0.13333 km/h
Sensor: Nr:Datum:Temp:Abs-Feuchte:Windchill:Wind:
Aussen-T/F 1926 16-04-2020 06:00:00 2.625 C 5.17 g/m*3 2.63 C 0.13333 km/h
1927 16-04-2020 07:00:00 2.58333 C 5.25 g/m*3 2.58 C 0 km/h
1928 16-04-2020 08:00:00 3.31667 C 5.56 g/m*3 3.32 C 0.26667 km/h
1929 16-04-2020 09:00:00 4.80833 C 6.05 g/m*3 4.81 C 0.4 km/h
1930 16-04-2020 10:00:00 8.1 C 6.84 g/m*3 8.1 C 0.26667 km/h
1931 16-04-2020 11:00:00 14.74167 C 7.34 g/m*3 14.74 C 8.075 km/h
1932 16-04-2020 12:00:00 18.85833 C 7.33 g/m*3 18.86 C 12.23333 km/h
1933 16-04-2020 13:00:00 20.64167 C 7.19 g/m*3 20.64 C 11.16667 km/h
1934 16-04-2020 14:00:00 21.975 C 6.99 g/m*3 21.98 C 9.80833 km/h
1935 16-04-2020 15:00:00 23.25 C 7.35 g/m*3 23.25 C 12.76667 km/h
1936 16-04-2020 16:00:00 24.3 C 7.39 g/m*3 24.3 C 13.3 km/h
1937 16-04-2020 17:00:00 24.23333 C 7.92 g/m*3 24.23 C 12.1 km/h
1938 16-04-2020 18:00:00 24.75 C 7.91 g/m*3 24.75 C 12.9 km/h
1939 16-04-2020 19:00:00 22.9 C 8.06 g/m*3 22.9 C 7.66667 km/h
1940 16-04-2020 20:00:00 19.45833 C 7.8 g/m*3 19.46 C 7.93333 km/h
1941 16-04-2020 21:00:00 16.75833 C 7.86 g/m*3 16.76 C 3.34167 km/h
1942 16-04-2020 22:00:00 14.275 C 7.96 g/m*3 14.28 C 2.93333 km/h
1943 16-04-2020 23:00:00 12.48333 C 7.93 g/m*3 12.48 C 0.66667 km/h
1944 17-04-2020 00:00:00 11.40833 C 7.8 g/m*3 11.41 C 0.26667 km/h
1945 17-04-2020 01:00:00 10.48333 C 7.72 g/m*3 10.48 C 0.93333 km/h
1946 17-04-2020 02:00:00 9.85833 C 7.63 g/m*3 9.86 C 0.66667 km/h
1947 17-04-2020 03:00:00 8.51667 C 7.41 g/m*3 8.52 C 1.06667 km/h
1948 17-04-2020 04:00:00 8.41667 C 7.48 g/m*3 8.42 C 0.66667 km/h
1949 17-04-2020 05:00:00 7.63333 C 7.17 g/m*3 7.63 C 0.13333 km/h
1950 17-04-2020 06:00:00 6.81667 C 6.99 g/m*3 6.82 C 0 km/h
Sensor: Nr:Datum:Temp:Abs-Feuchte:Windchill:Wind:
Aussen-T/F 1951 17-04-2020 07:00:00 6.73333 C 7.06 g/m*3 6.73 C 0 km/h
1952 17-04-2020 08:00:00 7.375 C 7.46 g/m*3 7.38 C 0 km/h
1953 17-04-2020 09:00:00 8.95833 C 8.25 g/m*3 8.96 C 0 km/h
1954 17-04-2020 10:00:00 11.325 C 9.06 g/m*3 11.33 C 0 km/h
1955 17-04-2020 11:00:00 15.38333 C 9.52 g/m*3 15.38 C 1.06667 km/h
1956 17-04-2020 12:00:00 18.95833 C 9.28 g/m*3 18.96 C 2.66667 km/h
1957 17-04-2020 13:00:00 20.8 C 9.1 g/m*3 20.8 C 4.80833 km/h
1958 17-04-2020 14:00:00 22.30833 C 9.38 g/m*3 22.31 C 5.75833 km/h
1959 17-04-2020 15:00:00 23.375 C 9.26 g/m*3 23.38 C 8.59167 km/h
1960 17-04-2020 16:00:00 24.18333 C 9.21 g/m*3 24.18 C 7.525 km/h
1961 17-04-2020 17:00:00 25.4 C 8.97 g/m*3 25.4 C 6.99167 km/h
1962 17-04-2020 18:00:00 25.85 C 9.48 g/m*3 25.85 C 3.6 km/h
1963 17-04-2020 19:00:00 24.36667 C 10.48 g/m*3 24.37 C 3.86667 km/h
1964 17-04-2020 20:00:00 19.575 C 9.95 g/m*3 19.58 C 4.93333 km/h
1965 17-04-2020 21:00:00 17.50833 C 9.83 g/m*3 17.51 C 4.4 km/h
1966 17-04-2020 22:00:00 15.94167 C 9.47 g/m*3 15.94 C 2.4 km/h
1967 17-04-2020 23:00:00 14.55 C 9.33 g/m*3 14.55 C 0.93333 km/h
1968 18-04-2020 00:00:00 13.10833 C 8.9 g/m*3 13.11 C 0.26667 km/h
1969 18-04-2020 01:00:00 11.925 C 8.45 g/m*3 11.93 C 0 km/h
1970 18-04-2020 02:00:00 11.00833 C 8.32 g/m*3 11.01 C 0 km/h
1971 18-04-2020 03:00:00 9.95833 C 8.06 g/m*3 9.96 C 0 km/h
1972 18-04-2020 04:00:00 9.38333 C 8 g/m*3 9.38 C 0 km/h
1973 18-04-2020 05:00:00 9.05 C 7.9 g/m*3 9.05 C 0 km/h
1974 18-04-2020 06:00:00 8.84167 C 7.87 g/m*3 8.84 C 0 km/h
1975 18-04-2020 07:00:00 9.40833 C 8.32 g/m*3 9.41 C 0.66667 km/h
Sensor: Nr:Datum:Temp:Abs-Feuchte:Windchill:Wind:
Aussen-T/F 1976 18-04-2020 08:00:00 10.325 C 8.8 g/m*3 10.33 C 0.13333 km/h
1977 18-04-2020 09:00:00 12.14167 C 9.47 g/m*3 12.14 C 2.26667 km/h
1978 18-04-2020 10:00:00 15.03333 C 9.99 g/m*3 15.03 C 3.875 km/h
1979 18-04-2020 11:00:00 16.93333 C 10.39 g/m*3 16.93 C 2.13333 km/h
1980 18-04-2020 12:00:00 18.275 C 10.63 g/m*3 18.27 C 0.8 km/h
1981 18-04-2020 13:00:00 19.65833 C 10.49 g/m*3 19.66 C 3.475 km/h
1982 18-04-2020 14:00:00 20.63333 C 10.76 g/m*3 20.63 C 4.41667 km/h
1983 18-04-2020 15:00:00 21.25 C 10.83 g/m*3 21.25 C 10.34167 km/h
1984 18-04-2020 16:00:00 19.825 C 11.38 g/m*3 19.83 C 12.88333 km/h
1985 18-04-2020 17:00:00 18.4 C 12.18 g/m*3 18.4 C 2.275 km/h
1986 18-04-2020 18:00:00 17.45 C 11.89 g/m*3 17.45 C 3.89167 km/h
1987 18-04-2020 19:00:00 17.74167 C 11.09 g/m*3 17.74 C 7.79167 km/h
1988 18-04-2020 20:00:00 16.5 C 10.58 g/m*3 16.5 C 2.275 km/h
1989 18-04-2020 21:00:00 14.95833 C 10.55 g/m*3 14.96 C 0.8 km/h
1990 18-04-2020 22:00:00 14.10833 C 10.23 g/m*3 14.11 C 2.8 km/h
1991 18-04-2020 23:00:00 12.58333 C 9.73 g/m*3 12.58 C 2.26667 km/h
1992 19-04-2020 00:00:00 11.13333 C 9.18 g/m*3 11.13 C 0.13333 km/h
1993 19-04-2020 01:00:00 10.325 C 8.93 g/m*3 10.33 C 0.13333 km/h
1994 19-04-2020 02:00:00 10.125 C 8.91 g/m*3 10.13 C 0.53333 km/h
1995 19-04-2020 03:00:00 9.65833 C 8.65 g/m*3 9.66 C 0.8 km/h
1996 19-04-2020 04:00:00 9.5 C 8.69 g/m*3 9.5 C 0.93333 km/h
1997 19-04-2020 05:00:00 9.89167 C 8.96 g/m*3 9.89 C 1.06667 km/h
1998 19-04-2020 06:00:00 10.15833 C 9.11 g/m*3 10.16 C 0.13333 km/h
1999 19-04-2020 07:00:00 10.40833 C 9.26 g/m*3 10.41 C 0 km/h
2000 19-04-2020 08:00:00 11.18333 C 9.72 g/m*3 11.18 C 1.06667 km/h
Sensor: Nr:Datum:Temp:Abs-Feuchte:Windchill:Wind:
Aussen-T/F 2001 19-04-2020 09:00:00 12.53333 C 10.16 g/m*3 12.53 C 0.93333 km/h
2002 19-04-2020 10:00:00 13.93333 C 10.24 g/m*3 13.93 C 1.2 km/h
2003 19-04-2020 11:00:00 14.25833 C 10.1 g/m*3 14.26 C 6.425 km/h
2004 19-04-2020 12:00:00 14.40833 C 9.96 g/m*3 14.41 C 5.88333 km/h
2005 19-04-2020 13:00:00 16.3 C 10.04 g/m*3 16.3 C 6.16667 km/h
2006 19-04-2020 14:00:00 17.04167 C 9.92 g/m*3 17.04 C 10.88333 km/h
2007 19-04-2020 15:00:00 16.43333 C 9.22 g/m*3 16.43 C 9.81667 km/h
2008 19-04-2020 16:00:00 17.53333 C 9.09 g/m*3 17.53 C 13.7 km/h
2009 19-04-2020 17:00:00 17.4 C 8.6 g/m*3 17.4 C 20.5 km/h
2010 19-04-2020 18:00:00 17.28333 C 7.91 g/m*3 17.28 C 15.975 km/h
2011 19-04-2020 19:00:00 16.63333 C 7.31 g/m*3 16.63 C 7.90833 km/h
2012 19-04-2020 20:00:00 13.9 C 7.41 g/m*3 13.9 C 0.8 km/h
2013 19-04-2020 21:00:00 11.775 C 7.08 g/m*3 11.78 C 0 km/h
2014 19-04-2020 22:00:00 11.125 C 6.52 g/m*3 11.13 C 1.06667 km/h
2015 19-04-2020 23:00:00 10.64167 C 5.96 g/m*3 10.64 C 3.34167 km/h
2016 20-04-2020 00:00:00 10.3 C 5.6 g/m*3 10.3 C 2.66667 km/h
2017 20-04-2020 01:00:00 9.81667 C 5.38 g/m*3 9.82 C 4.41667 km/h
2018 20-04-2020 02:00:00 8.10833 C 5.4 g/m*3 8.11 C 0.93333 km/h
2019 20-04-2020 03:00:00 7.21667 C 5.35 g/m*3 7.22 C 1.33333 km/h
2020 20-04-2020 04:00:00 6.60833 C 5.29 g/m*3 6.61 C 1.46667 km/h
2021 20-04-2020 05:00:00 6.575 C 5.29 g/m*3 6.58 C 1.6 km/h
2022 20-04-2020 06:00:00 6.36667 C 5.28 g/m*3 6.37 C 1.6 km/h
2023 20-04-2020 07:00:00 6.90833 C 5.29 g/m*3 6.91 C 3.475 km/h
2024 20-04-2020 08:00:00 8.33333 C 5.35 g/m*3 7.59 C 5.88333 km/h
2025 20-04-2020 09:00:00 9.20833 C 5.58 g/m*3 8.51 C 6.18333 km/h
Sensor: Nr:Datum:Temp:Abs-Feuchte:Windchill:Wind:
Aussen-T/F 2026 20-04-2020 10:00:00 11.50833 C 5.62 g/m*3 11.51 C 10.09167 km/h
2027 20-04-2020 11:00:00 14.16667 C 5.43 g/m*3 14.17 C 15.96667 km/h
2028 20-04-2020 12:00:00 15.05833 C 5.16 g/m*3 15.06 C 16.50833 km/h
2029 20-04-2020 13:00:00 16.025 C 5.17 g/m*3 16.02 C 13.95833 km/h
2030 20-04-2020 14:00:00 17.26667 C 5.11 g/m*3 17.27 C 17.83333 km/h
2031 20-04-2020 15:00:00 18.40833 C 5.04 g/m*3 18.41 C 16.63333 km/h
2032 20-04-2020 16:00:00 19.5 C 5.13 g/m*3 19.5 C 19.71667 km/h
2033 20-04-2020 17:00:00 19.83333 C 5.49 g/m*3 19.83 C 20.50833 km/h
2034 20-04-2020 18:00:00 18.66667 C 5.83 g/m*3 18.67 C 21.31667 km/h
2035 20-04-2020 19:00:00 17.61667 C 5.44 g/m*3 17.62 C 16.375 km/h
2036 20-04-2020 20:00:00 15.35 C 5.27 g/m*3 15.35 C 9.78333 km/h
2037 20-04-2020 21:00:00 13.21667 C 5.11 g/m*3 13.22 C 5.225 km/h
2038 20-04-2020 22:00:00 12.40833 C 5.04 g/m*3 12.41 C 5.76667 km/h
2039 20-04-2020 23:00:00 11.69167 C 4.83 g/m*3 11.69 C 5.9 km/h
2040 21-04-2020 00:00:00 10.975 C 4.83 g/m*3 10.58 C 6.03333 km/h
2041 21-04-2020 01:00:00 9.35833 C 4.99 g/m*3 9.36 C 2.40833 km/h
2042 21-04-2020 02:00:00 9.41667 C 4.96 g/m*3 8.94 C 5.49167 km/h
2043 21-04-2020 03:00:00 9.54167 C 5 g/m*3 9.01 C 5.76667 km/h
2044 21-04-2020 04:00:00 8.425 C 5.13 g/m*3 8.43 C 4.15 km/h
2045 21-04-2020 05:00:00 7.825 C 5.2 g/m*3 7.83 C 2.80833 km/h
2046 21-04-2020 06:00:00 7.01667 C 5.26 g/m*3 7.02 C 2.13333 km/h
2047 21-04-2020 07:00:00 6.96667 C 5.34 g/m*3 6.97 C 2.14167 km/h
2048 21-04-2020 08:00:00 8.04167 C 5.47 g/m*3 7.37 C 5.49167 km/h
2049 21-04-2020 09:00:00 10.08333 C 5.45 g/m*3 8.99 C 8.59167 km/h
2050 21-04-2020 10:00:00 12.33333 C 5.33 g/m*3 12.33 C 12.48333 km/h
Sensor: Nr:Datum:Temp:Abs-Feuchte:Windchill:Wind:
Aussen-T/F 2051 21-04-2020 11:00:00 14.51667 C 5.28 g/m*3 14.52 C 14.76667 km/h
2052 21-04-2020 12:00:00 16.14167 C 5.2 g/m*3 16.14 C 16.9 km/h
2053 21-04-2020 13:00:00 17.4 C 5.21 g/m*3 17.4 C 16.9 km/h
2054 21-04-2020 14:00:00 18.95833 C 5.27 g/m*3 18.96 C 19.56667 km/h
2055 21-04-2020 15:00:00 20.21667 C 5.37 g/m*3 20.22 C 24.275 km/h
2056 21-04-2020 16:00:00 20.80833 C 5.48 g/m*3 20.81 C 25.60833 km/h
2057 21-04-2020 17:00:00 21.14167 C 5.66 g/m*3 21.14 C 20.65 km/h
2058 21-04-2020 18:00:00 20.84167 C 5.82 g/m*3 20.84 C 16.64167 km/h
2059 21-04-2020 19:00:00 19.58333 C 5.89 g/m*3 19.58 C 15.96667 km/h
2060 21-04-2020 20:00:00 17.18333 C 5.96 g/m*3 17.18 C 5.9 km/h
2061 21-04-2020 21:00:00 14.54167 C 5.97 g/m*3 14.54 C 2.4 km/h
2062 21-04-2020 22:00:00 13.075 C 6.05 g/m*3 13.08 C 2.66667 km/h
2063 21-04-2020 23:00:00 11.90833 C 6.04 g/m*3 11.91 C 1.86667 km/h
2064 22-04-2020 00:00:00 11.28333 C 5.94 g/m*3 11.28 C 2.93333 km/h
2065 22-04-2020 01:00:00 10.53333 C 5.95 g/m*3 10.53 C 2.14167 km/h
2066 22-04-2020 02:00:00 9.98333 C 5.92 g/m*3 9.98 C 2.93333 km/h
2067 22-04-2020 03:00:00 9.25833 C 5.89 g/m*3 9.26 C 0.93333 km/h
2068 22-04-2020 04:00:00 8.41667 C 5.78 g/m*3 8.42 C 0.8 km/h
2069 22-04-2020 05:00:00 7.49167 C 5.71 g/m*3 7.49 C 1.06667 km/h
2070 22-04-2020 06:00:00 6.575 C 5.65 g/m*3 6.58 C 1.46667 km/h
2071 22-04-2020 07:00:00 6.19167 C 5.83 g/m*3 6.19 C 2.53333 km/h
2072 22-04-2020 08:00:00 7.35833 C 6.05 g/m*3 7.36 C 3.75 km/h
2073 22-04-2020 09:00:00 10.36667 C 6.02 g/m*3 10.03 C 5.49167 km/h
2074 22-04-2020 10:00:00 13.09167 C 5.88 g/m*3 13.09 C 8.06667 km/h
2075 22-04-2020 11:00:00 15.875 C 5.68 g/m*3 15.88 C 11.15 km/h
Sensor: Nr:Datum:Temp:Abs-Feuchte:Windchill:Wind:
Aussen-T/F 2076 22-04-2020 12:00:00 17.65 C 5.35 g/m*3 17.65 C 16.9 km/h
2077 22-04-2020 13:00:00 18.93333 C 5.55 g/m*3 18.93 C 12.63333 km/h
2078 22-04-2020 14:00:00 20.18333 C 5.74 g/m*3 20.18 C 14.23333 km/h
2079 22-04-2020 15:00:00 21.40833 C 5.75 g/m*3 21.41 C 15.56667 km/h
2080 22-04-2020 16:00:00 22.575 C 5.77 g/m*3 22.58 C 17.3 km/h
2081 22-04-2020 17:00:00 22.65833 C 5.69 g/m*3 22.66 C 20.11667 km/h
2082 22-04-2020 18:00:00 22.38333 C 5.59 g/m*3 22.38 C 18.50833 km/h
2083 22-04-2020 19:00:00 21.275 C 5.58 g/m*3 21.28 C 12.09167 km/h
2084 22-04-2020 20:00:00 18.38333 C 6.04 g/m*3 18.38 C 2.94167 km/h
2085 22-04-2020 21:00:00 14.96667 C 6.03 g/m*3 14.97 C 1.46667 km/h
2086 22-04-2020 22:00:00 13.81667 C 6.08 g/m*3 13.82 C 2.4 km/h
2087 22-04-2020 23:00:00 13.74167 C 6.1 g/m*3 13.74 C 3.33333 km/h
2088 23-04-2020 00:00:00 12.85 C 6.12 g/m*3 12.85 C 3.46667 km/h
2089 23-04-2020 01:00:00 12.08333 C 6.14 g/m*3 12.08 C 3.34167 km/h
2090 23-04-2020 02:00:00 10.35833 C 6.15 g/m*3 10.36 C 2 km/h
2091 23-04-2020 03:00:00 9.51667 C 6.13 g/m*3 9.52 C 1.6 km/h
2092 23-04-2020 04:00:00 8.39167 C 6.05 g/m*3 8.39 C 0.8 km/h
2093 23-04-2020 05:00:00 6.975 C 5.97 g/m*3 6.98 C 0.26667 km/h
2094 23-04-2020 06:00:00 6.3 C 5.9 g/m*3 6.3 C 0.13333 km/h
2095 23-04-2020 07:00:00 5.95833 C 6.06 g/m*3 5.96 C 0.13333 km/h
2096 23-04-2020 08:00:00 6.26667 C 6.41 g/m*3 6.27 C 0.8 km/h
2097 23-04-2020 09:00:00 8.35 C 7.02 g/m*3 8.35 C 1.46667 km/h
2098 23-04-2020 10:00:00 11.61667 C 7.35 g/m*3 11.62 C 2.00833 km/h
2099 23-04-2020 11:00:00 16.36667 C 6.94 g/m*3 16.37 C 8.19167 km/h
2100 23-04-2020 12:00:00 18.08333 C 6.71 g/m*3 18.08 C 10.48333 km/h
Sensor: Nr:Datum:Temp:Abs-Feuchte:Windchill:Wind:
Aussen-T/F 2101 23-04-2020 13:00:00 19.425 C 5.88 g/m*3 19.43 C 9.675 km/h
2102 23-04-2020 14:00:00 20.66667 C 5.93 g/m*3 20.67 C 9.55833 km/h
2103 23-04-2020 15:00:00 22 C 5.97 g/m*3 22 C 8.475 km/h
2104 23-04-2020 16:00:00 23.20833 C 6.07 g/m*3 23.21 C 10.225 km/h
2105 23-04-2020 17:00:00 24.35833 C 6.12 g/m*3 24.36 C 7.24167 km/h
2106 23-04-2020 18:00:00 25.35833 C 6.18 g/m*3 25.36 C 5.36667 km/h
2107 23-04-2020 19:00:00 22.41667 C 8.81 g/m*3 22.42 C 3.875 km/h
2108 23-04-2020 20:00:00 14.64167 C 8.41 g/m*3 14.64 C 6.85833 km/h
2109 23-04-2020 21:00:00 12.975 C 7.37 g/m*3 12.98 C 1.6 km/h
2110 23-04-2020 22:00:00 11.525 C 7.02 g/m*3 11.53 C 0 km/h
2111 23-04-2020 23:00:00 10.15833 C 6.76 g/m*3 10.16 C 0 km/h
2112 24-04-2020 00:00:00 9.33333 C 6.63 g/m*3 9.33 C 0.4 km/h
2113 24-04-2020 01:00:00 8.5 C 6.57 g/m*3 8.5 C 0.8 km/h
2114 24-04-2020 02:00:00 7.70833 C 6.46 g/m*3 7.71 C 0.4 km/h
2115 24-04-2020 03:00:00 6.975 C 6.41 g/m*3 6.98 C 0.4 km/h
2116 24-04-2020 04:00:00 6.50833 C 6.39 g/m*3 6.51 C 0.53333 km/h
2117 24-04-2020 05:00:00 6.41667 C 6.43 g/m*3 6.42 C 0.4 km/h
2118 24-04-2020 06:00:00 6.36667 C 6.47 g/m*3 6.37 C 0.66667 km/h
2119 24-04-2020 07:00:00 6.59167 C 6.63 g/m*3 6.59 C 0.13333 km/h
2120 24-04-2020 08:00:00 7.83333 C 7.04 g/m*3 7.83 C 0.4 km/h
2121 24-04-2020 09:00:00 10.66667 C 7.6 g/m*3 10.67 C 0.26667 km/h
2122 24-04-2020 10:00:00 12.975 C 8.09 g/m*3 12.98 C 2.13333 km/h
2123 24-04-2020 11:00:00 15.21667 C 8.39 g/m*3 15.22 C 1.46667 km/h
2124 24-04-2020 12:00:00 17.58333 C 8.57 g/m*3 17.58 C 5.1 km/h
2125 24-04-2020 13:00:00 20.025 C 7.18 g/m*3 20.02 C 9.825 km/h
Sensor: Nr:Datum:Temp:Abs-Feuchte:Windchill:Wind:
Aussen-T/F 2126 24-04-2020 14:00:00 21.325 C 7.67 g/m*3 21.33 C 10.23333 km/h
2127 24-04-2020 15:00:00 22.06667 C 7.35 g/m*3 22.07 C 11.03333 km/h
2128 24-04-2020 16:00:00 22.84167 C 6.48 g/m*3 22.84 C 11.69167 km/h
2129 24-04-2020 17:00:00 22.55 C 5.98 g/m*3 22.55 C 14.36667 km/h
2130 24-04-2020 18:00:00 21.59167 C 6.68 g/m*3 21.59 C 14.23333 km/h
2131 24-04-2020 19:00:00 20.31667 C 7.25 g/m*3 20.32 C 12.9 km/h
2132 24-04-2020 20:00:00 18.15833 C 7.43 g/m*3 18.16 C 5.50833 km/h
2133 24-04-2020 21:00:00 15.80833 C 7.19 g/m*3 15.81 C 3.2 km/h
2134 24-04-2020 22:00:00 14.64167 C 6.99 g/m*3 14.64 C 3.20833 km/h
2135 24-04-2020 23:00:00 13.10833 C 6.03 g/m*3 13.11 C 2.675 km/h
2136 25-04-2020 00:00:00 12.88333 C 6.03 g/m*3 12.88 C 5.89167 km/h
2137 25-04-2020 01:00:00 11.725 C 6.53 g/m*3 11.73 C 5.61667 km/h
2138 25-04-2020 02:00:00 10.53333 C 6.62 g/m*3 10.53 C 3.875 km/h
2139 25-04-2020 03:00:00 10.20833 C 6.64 g/m*3 9.74 C 5.9 km/h
2140 25-04-2020 04:00:00 9.44167 C 6.57 g/m*3 8.55 C 7.10833 km/h
2141 25-04-2020 05:00:00 8.28333 C 6.77 g/m*3 8.28 C 4.68333 km/h
2142 25-04-2020 06:00:00 8.35833 C 6.96 g/m*3 7.1 C 7.91667 km/h
2143 25-04-2020 07:00:00 8.49167 C 6.76 g/m*3 7.31 C 7.65833 km/h
2144 25-04-2020 08:00:00 8.59167 C 6.61 g/m*3 7.19 C 8.74167 km/h
2145 25-04-2020 09:00:00 9.025 C 6.45 g/m*3 7.68 C 8.88333 km/h
2146 25-04-2020 10:00:00 9.625 C 6.37 g/m*3 8.7 C 7.39167 km/h
2147 25-04-2020 11:00:00 10.43333 C 6.37 g/m*3 9.5 C 8.075 km/h
2148 25-04-2020 12:00:00 11.21667 C 6.37 g/m*3 11.22 C 8.725 km/h
2149 25-04-2020 13:00:00 12.575 C 6.45 g/m*3 12.58 C 7.66667 km/h
2150 25-04-2020 14:00:00 13.925 C 6.51 g/m*3 13.93 C 8.18333 km/h
Sensor: Nr:Datum:Temp:Abs-Feuchte:Windchill:Wind:
Aussen-T/F 2151 25-04-2020 15:00:00 15.71667 C 6.65 g/m*3 15.72 C 7.79167 km/h
2152 25-04-2020 16:00:00 17.66667 C 6.61 g/m*3 17.67 C 8.19167 km/h
2153 25-04-2020 17:00:00 19.04167 C 6.55 g/m*3 19.04 C 7.8 km/h
2154 25-04-2020 18:00:00 18.825 C 6.69 g/m*3 18.83 C 9.28333 km/h
2155 25-04-2020 19:00:00 17.125 C 6.61 g/m*3 17.13 C 6.975 km/h
2156 25-04-2020 20:00:00 14.51667 C 6.57 g/m*3 14.52 C 3.73333 km/h
2157 25-04-2020 21:00:00 11.65 C 6.43 g/m*3 11.65 C 3.73333 km/h
2158 25-04-2020 22:00:00 10.49167 C 6.37 g/m*3 10.21 C 5.35 km/h
2159 25-04-2020 23:00:00 9.18333 C 6.37 g/m*3 9.18 C 2.53333 km/h
2160 26-04-2020 00:00:00 7.45 C 6.24 g/m*3 7.45 C 0.13333 km/h
2161 26-04-2020 01:00:00 6.125 C 6.1 g/m*3 6.13 C 0.13333 km/h
2162 26-04-2020 02:00:00 5.325 C 6 g/m*3 5.33 C 0.53333 km/h
2163 26-04-2020 03:00:00 4.76667 C 5.89 g/m*3 4.77 C 0.4 km/h
2164 26-04-2020 04:00:00 4.03333 C 5.72 g/m*3 4.03 C 0 km/h
2165 26-04-2020 05:00:00 3.475 C 5.61 g/m*3 3.48 C 0 km/h
2166 26-04-2020 06:00:00 2.925 C 5.46 g/m*3 2.93 C 0 km/h
2167 26-04-2020 07:00:00 3.09167 C 5.58 g/m*3 3.09 C 0 km/h
2168 26-04-2020 08:00:00 3.94167 C 5.97 g/m*3 3.94 C 0.13333 km/h
2169 26-04-2020 09:00:00 5.61667 C 6.72 g/m*3 5.62 C 0 km/h
2170 26-04-2020 10:00:00 8.06667 C 7.53 g/m*3 8.07 C 0.4 km/h
2171 26-04-2020 11:00:00 12.21667 C 7.72 g/m*3 12.22 C 1.73333 km/h
2172 26-04-2020 12:00:00 15.26667 C 6.94 g/m*3 15.27 C 4.825 km/h
2173 26-04-2020 13:00:00 16.9 C 6.56 g/m*3 16.9 C 7.79167 km/h
2174 26-04-2020 14:00:00 17.8 C 6.73 g/m*3 17.8 C 9.00833 km/h
2175 26-04-2020 15:00:00 19.10833 C 6.59 g/m*3 19.11 C 7.10833 km/h
Sensor: Nr:Datum:Temp:Abs-Feuchte:Windchill:Wind:
Aussen-T/F 2176 26-04-2020 16:00:00 21.13333 C 6.43 g/m*3 21.13 C 7.24167 km/h
2177 26-04-2020 17:00:00 22.33333 C 5.95 g/m*3 22.33 C 6.15 km/h
2178 26-04-2020 18:00:00 22.68333 C 5.48 g/m*3 22.68 C 5.06667 km/h
2179 26-04-2020 19:00:00 21.1 C 5.65 g/m*3 21.1 C 3.2 km/h
2180 26-04-2020 20:00:00 17.01667 C 6.39 g/m*3 17.02 C 4.66667 km/h
2181 26-04-2020 21:00:00 13.325 C 6.34 g/m*3 13.33 C 4.4 km/h
2182 26-04-2020 22:00:00 11.36667 C 6.72 g/m*3 11.37 C 0.4 km/h
2183 26-04-2020 23:00:00 9.58333 C 6.4 g/m*3 9.58 C 0.4 km/h
2184 27-04-2020 00:00:00 8.48333 C 6.3 g/m*3 8.48 C 0.13333 km/h
2185 27-04-2020 01:00:00 7.49167 C 6.25 g/m*3 7.49 C 0 km/h
2186 27-04-2020 02:00:00 6.675 C 6.16 g/m*3 6.68 C 0.26667 km/h
2187 27-04-2020 03:00:00 6.125 C 6.16 g/m*3 6.13 C 0.4 km/h
2188 27-04-2020 04:00:00 5.38333 C 6 g/m*3 5.38 C 0 km/h
2189 27-04-2020 05:00:00 4.51667 C 5.85 g/m*3 4.52 C 0 km/h
2190 27-04-2020 06:00:00 4.23333 C 5.86 g/m*3 4.23 C 0.13333 km/h
2191 27-04-2020 07:00:00 4.48333 C 6.02 g/m*3 4.48 C 0.26667 km/h
2192 27-04-2020 08:00:00 5.44167 C 6.44 g/m*3 5.44 C 0.66667 km/h
2193 27-04-2020 09:00:00 6.91667 C 7.03 g/m*3 6.92 C 0.13333 km/h
2194 27-04-2020 10:00:00 9.85 C 8.03 g/m*3 9.85 C 0.26667 km/h
2195 27-04-2020 11:00:00 15.41667 C 7.76 g/m*3 15.42 C 4 km/h
2196 27-04-2020 12:00:00 18.025 C 7.43 g/m*3 18.02 C 4.94167 km/h
2197 27-04-2020 13:00:00 19.6 C 6.92 g/m*3 19.6 C 9 km/h
2198 27-04-2020 14:00:00 20.8 C 7.05 g/m*3 20.8 C 10.08333 km/h
2199 27-04-2020 15:00:00 22.41667 C 6.91 g/m*3 22.42 C 11.03333 km/h
2200 27-04-2020 16:00:00 22.7 C 6.94 g/m*3 22.7 C 12.63333 km/h
Sensor: Nr:Datum:Temp:Abs-Feuchte:Windchill:Wind:
Aussen-T/F 2201 27-04-2020 17:00:00 21.45833 C 7.34 g/m*3 21.46 C 10.475 km/h
2202 27-04-2020 18:00:00 22.59167 C 7.73 g/m*3 22.59 C 6.96667 km/h
2203 27-04-2020 19:00:00 20.38333 C 8.48 g/m*3 20.38 C 5.475 km/h
2204 27-04-2020 20:00:00 16.55 C 8.26 g/m*3 16.55 C 6 km/h
2205 27-04-2020 21:00:00 14.55 C 8.22 g/m*3 14.55 C 4.26667 km/h
2206 27-04-2020 22:00:00 13.2 C 8.18 g/m*3 13.2 C 1.46667 km/h
2207 27-04-2020 23:00:00 12.11667 C 8.05 g/m*3 12.12 C 0 km/h
2208 28-04-2020 00:00:00 10.725 C 7.89 g/m*3 10.73 C 0 km/h
2209 28-04-2020 01:00:00 9.875 C 7.75 g/m*3 9.88 C 0 km/h
2210 28-04-2020 02:00:00 9.11667 C 7.63 g/m*3 9.12 C 0.26667 km/h
2211 28-04-2020 03:00:00 8.80833 C 7.62 g/m*3 8.81 C 0.4 km/h
2212 28-04-2020 04:00:00 8.05 C 7.43 g/m*3 8.05 C 2.15 km/h
2213 28-04-2020 05:00:00 8.14167 C 7.59 g/m*3 8.14 C 1.33333 km/h
2214 28-04-2020 06:00:00 7.875 C 7.49 g/m*3 7.88 C 0 km/h
2215 28-04-2020 07:00:00 8.86667 C 8.02 g/m*3 8.87 C 0.26667 km/h
2216 28-04-2020 08:00:00 10.00833 C 8.62 g/m*3 10.01 C 0.13333 km/h
2217 28-04-2020 09:00:00 11.13333 C 9.26 g/m*3 11.13 C 0.4 km/h
2218 28-04-2020 10:00:00 12.60833 C 9.99 g/m*3 12.61 C 0 km/h
2219 28-04-2020 11:00:00 14.01667 C 11.02 g/m*3 14.02 C 0.53333 km/h
2220 28-04-2020 12:00:00 14.95833 C 11.85 g/m*3 14.96 C 0.26667 km/h
2221 28-04-2020 13:00:00 15.05833 C 12 g/m*3 15.06 C 4.7 km/h
2222 28-04-2020 14:00:00 16.275 C 12.58 g/m*3 16.27 C 13.69167 km/h
2223 28-04-2020 15:00:00 16.24167 C 12.15 g/m*3 16.24 C 15.43333 km/h
2224 28-04-2020 16:00:00 16.81667 C 11.91 g/m*3 16.82 C 17.3 km/h
2225 28-04-2020 17:00:00 16.90833 C 11.26 g/m*3 16.91 C 13.56667 km/h
Sensor: Nr:Datum:Temp:Abs-Feuchte:Windchill:Wind:
Aussen-T/F 2226 28-04-2020 18:00:00 17.675 C 10.97 g/m*3 17.68 C 12.09167 km/h
2227 28-04-2020 19:00:00 16.925 C 10.77 g/m*3 16.93 C 6.43333 km/h
2228 28-04-2020 20:00:00 14.95833 C 10.45 g/m*3 14.96 C 5.46667 km/h
2229 28-04-2020 21:00:00 13.4 C 10.01 g/m*3 13.4 C 9.675 km/h
2230 28-04-2020 22:00:00 13.30833 C 10 g/m*3 13.31 C 3.86667 km/h
2231 28-04-2020 23:00:00 12.88333 C 10.03 g/m*3 12.88 C 1.33333 km/h
2232 29-04-2020 00:00:00 12.35833 C 9.81 g/m*3 12.36 C 1.73333 km/h
2233 29-04-2020 01:00:00 11.95833 C 9.73 g/m*3 11.96 C 1.6 km/h
2234 29-04-2020 02:00:00 12.05833 C 9.66 g/m*3 12.06 C 7.11667 km/h
2235 29-04-2020 03:00:00 12.025 C 9.4 g/m*3 12.03 C 3.86667 km/h
2236 29-04-2020 04:00:00 12.00833 C 9.49 g/m*3 12.01 C 1.33333 km/h
2237 29-04-2020 05:00:00 11.8 C 9.38 g/m*3 11.8 C 1.46667 km/h
2238 29-04-2020 06:00:00 11.65833 C 9.35 g/m*3 11.66 C 1.60833 km/h
2239 29-04-2020 07:00:00 12.03333 C 9.48 g/m*3 12.03 C 4.96667 km/h
2240 29-04-2020 08:00:00 12.81667 C 9.47 g/m*3 12.82 C 9.68333 km/h
2241 29-04-2020 09:00:00 13.40833 C 9.28 g/m*3 13.41 C 15.56667 km/h
2242 29-04-2020 10:00:00 14.65 C 9.11 g/m*3 14.65 C 13.43333 km/h
2243 29-04-2020 11:00:00 15.75833 C 9.06 g/m*3 15.76 C 16.10833 km/h
2244 29-04-2020 12:00:00 16 C 8.8 g/m*3 16 C 14.9 km/h
2245 29-04-2020 13:00:00 16.225 C 8.99 g/m*3 16.23 C 16.63333 km/h
2246 29-04-2020 14:00:00 15.96667 C 9.23 g/m*3 15.97 C 13.83333 km/h
2247 29-04-2020 15:00:00 17.4 C 9.41 g/m*3 17.4 C 13.96667 km/h
2248 29-04-2020 16:00:00 17.14167 C 9.28 g/m*3 17.14 C 13.56667 km/h
2249 29-04-2020 17:00:00 17.875 C 9.67 g/m*3 17.88 C 10.49167 km/h
2250 29-04-2020 18:00:00 17.85833 C 9.23 g/m*3 17.86 C 10.21667 km/h
Sensor: Nr:Datum:Temp:Abs-Feuchte:Windchill:Wind:
Aussen-T/F 2251 29-04-2020 19:00:00 17.35 C 9.38 g/m*3 17.35 C 7.65833 km/h
2252 29-04-2020 20:00:00 15.3 C 9.11 g/m*3 15.3 C 2.66667 km/h
2253 29-04-2020 21:00:00 13.6 C 9.05 g/m*3 13.6 C 2 km/h
2254 29-04-2020 22:00:00 13.275 C 9.18 g/m*3 13.28 C 2 km/h
2255 29-04-2020 23:00:00 13.15 C 9.36 g/m*3 13.15 C 0.93333 km/h
2256 30-04-2020 00:00:00 13.225 C 9.32 g/m*3 13.23 C 3.625 km/h
2257 30-04-2020 01:00:00 13.43333 C 9.22 g/m*3 13.43 C 5.35833 km/h
2258 30-04-2020 02:00:00 12.70833 C 9.33 g/m*3 12.71 C 4.95 km/h
2259 30-04-2020 03:00:00 12.00833 C 9.07 g/m*3 12.01 C 2.8 km/h
2260 30-04-2020 04:00:00 11.49167 C 9.32 g/m*3 11.49 C 0.53333 km/h
2261 30-04-2020 05:00:00 11.29167 C 9.52 g/m*3 11.29 C 1.2 km/h
2262 30-04-2020 06:00:00 11.2 C 9.54 g/m*3 11.2 C 2.54167 km/h
2263 30-04-2020 07:00:00 10.71667 C 9.25 g/m*3 10.06 C 6.98333 km/h
2264 30-04-2020 08:00:00 10.475 C 9.09 g/m*3 9.5 C 8.33333 km/h
2265 30-04-2020 09:00:00 11.65833 C 9.44 g/m*3 11.66 C 9.69167 km/h
2266 30-04-2020 10:00:00 13.16667 C 9.41 g/m*3 13.17 C 13.43333 km/h
2267 30-04-2020 11:00:00 13.85833 C 9.25 g/m*3 13.86 C 10.09167 km/h
2268 30-04-2020 12:00:00 13.925 C 8.65 g/m*3 13.93 C 16.375 km/h
2269 30-04-2020 13:00:00 14.075 C 8.1 g/m*3 14.08 C 16.775 km/h
2270 30-04-2020 14:00:00 15.525 C 8.05 g/m*3 15.53 C 17.03333 km/h
2271 30-04-2020 15:00:00 15.88333 C 7.98 g/m*3 15.88 C 11.01667 km/h
2272 30-04-2020 16:00:00 15.61667 C 8.24 g/m*3 15.62 C 6.29167 km/h
2273 30-04-2020 17:00:00 13.375 C 9.09 g/m*3 13.38 C 9.54167 km/h
2274 30-04-2020 18:00:00 10.88333 C 8.99 g/m*3 9.63 C 10.34167 km/h
2275 30-04-2020 19:00:00 10.65833 C 8.96 g/m*3 10.06 C 6.7 km/h
Sensor: Nr:Datum:Temp:Abs-Feuchte:Windchill:Wind:
Aussen-T/F 2276 30-04-2020 20:00:00 10.375 C 8.76 g/m*3 10.38 C 1.73333 km/h
2277 30-04-2020 21:00:00 9.425 C 8.45 g/m*3 9.43 C 1.06667 km/h
2278 30-04-2020 22:00:00 9.23333 C 8.46 g/m*3 9.23 C 2.26667 km/h
2279 30-04-2020 23:00:00 8.98333 C 8.39 g/m*3 8.57 C 5.1 km/h
2280 01-05-2020 00:00:00 8.93333 C 8.34 g/m*3 8.13 C 6.425 km/h
2281 01-05-2020 01:00:00 8.325 C 8.01 g/m*3 6.69 C 9.66667 km/h
2282 01-05-2020 02:00:00 8.15833 C 7.85 g/m*3 6.8 C 8.18333 km/h
2283 01-05-2020 03:00:00 8.075 C 7.84 g/m*3 7.45 C 5.35833 km/h
2284 01-05-2020 04:00:00 7.825 C 7.72 g/m*3 7.83 C 1.6 km/h
2285 01-05-2020 05:00:00 8.525 C 8.17 g/m*3 7.45 C 7.24167 km/h
2286 01-05-2020 06:00:00 8.38333 C 7.93 g/m*3 7.72 C 5.625 km/h
2287 01-05-2020 07:00:00 8.05833 C 7.85 g/m*3 8.06 C 1.88333 km/h
2288 01-05-2020 08:00:00 8.84167 C 8.25 g/m*3 8.84 C 1.06667 km/h
2289 01-05-2020 09:00:00 9.925 C 8.78 g/m*3 9.34 C 6.16667 km/h
2290 01-05-2020 10:00:00 10.80833 C 8.73 g/m*3 9.61 C 9.94167 km/h
2291 01-05-2020 11:00:00 12.25 C 8.63 g/m*3 12.25 C 12.76667 km/h
2292 01-05-2020 12:00:00 11.96667 C 8.74 g/m*3 11.97 C 9.68333 km/h
2293 01-05-2020 13:00:00 11.11667 C 8.59 g/m*3 11.12 C 11.28333 km/h
2294 01-05-2020 14:00:00 12.925 C 8.57 g/m*3 12.93 C 14.5 km/h
2295 01-05-2020 15:00:00 13.96667 C 8.46 g/m*3 13.97 C 13.825 km/h
2296 01-05-2020 16:00:00 14.46667 C 9.13 g/m*3 14.47 C 13.43333 km/h
2297 01-05-2020 17:00:00 14.76667 C 9.05 g/m*3 14.77 C 13.16667 km/h
2298 01-05-2020 18:00:00 13.45 C 9.33 g/m*3 13.45 C 5.89167 km/h
2299 01-05-2020 19:00:00 12.66667 C 8.77 g/m*3 12.67 C 6.83333 km/h
2300 01-05-2020 20:00:00 11.25833 C 8.26 g/m*3 11.26 C 7.4 km/h
Sensor: Nr:Datum:Temp:Abs-Feuchte:Windchill:Wind:
Aussen-T/F 2301 01-05-2020 21:00:00 10.26667 C 8.18 g/m*3 10.03 C 5.08333 km/h
2302 01-05-2020 22:00:00 9.28333 C 7.96 g/m*3 8.91 C 5.09167 km/h
2303 01-05-2020 23:00:00 9.6 C 8.12 g/m*3 8.31 C 9.14167 km/h
2304 02-05-2020 00:00:00 9.41667 C 8.06 g/m*3 9.42 C 4.28333 km/h
2305 02-05-2020 01:00:00 9.3 C 8.02 g/m*3 8.03 C 8.75833 km/h
2306 02-05-2020 02:00:00 8.85833 C 7.91 g/m*3 8.07 C 6.30833 km/h
2307 02-05-2020 03:00:00 9.33333 C 7.94 g/m*3 8.81 C 5.63333 km/h
2308 02-05-2020 04:00:00 9.05833 C 7.86 g/m*3 9.06 C 3.88333 km/h
2309 02-05-2020 05:00:00 8.96667 C 7.7 g/m*3 7.75 C 8.20833 km/h
2310 02-05-2020 06:00:00 8.25833 C 7.38 g/m*3 6.66 C 9.41667 km/h
2311 02-05-2020 07:00:00 8.49167 C 7.42 g/m*3 6.5 C 11.95 km/h
2312 02-05-2020 08:00:00 9.28333 C 7.63 g/m*3 7.49 C 11.7 km/h
2313 02-05-2020 09:00:00 10.19167 C 7.64 g/m*3 7.82 C 17.96667 km/h
2314 02-05-2020 10:00:00 8.675 C 7.47 g/m*3 6.76 C 11.68333 km/h
2315 02-05-2020 11:00:00 8.6 C 8.01 g/m*3 7.5 C 7.38333 km/h
2316 02-05-2020 12:00:00 10.09167 C 8.16 g/m*3 8.49 C 11.55 km/h
2317 02-05-2020 13:00:00 11.49167 C 7.99 g/m*3 11.49 C 16.23333 km/h
2318 02-05-2020 14:00:00 11.825 C 7.82 g/m*3 11.83 C 18.90833 km/h
2319 02-05-2020 15:00:00 9.575 C 8.24 g/m*3 8.44 C 8.325 km/h
2320 02-05-2020 16:00:00 13.45 C 9.07 g/m*3 13.45 C 7.90833 km/h
2321 02-05-2020 17:00:00 14.04167 C 8.79 g/m*3 14.04 C 7.93333 km/h
2322 02-05-2020 18:00:00 13.38333 C 7.71 g/m*3 13.38 C 13.03333 km/h
2323 02-05-2020 19:00:00 11.7 C 7.57 g/m*3 11.7 C 10.34167 km/h
2324 02-05-2020 20:00:00 11.43333 C 7.69 g/m*3 11.43 C 6.03333 km/h
2325 02-05-2020 21:00:00 8.71667 C 7.42 g/m*3 7.88 C 6.43333 km/h
Sensor: Nr:Datum:Temp:Abs-Feuchte:Windchill:Wind:
Aussen-T/F 2326 02-05-2020 22:00:00 7.43333 C 7.15 g/m*3 7.43 C 1.86667 km/h
2327 02-05-2020 23:00:00 6.875 C 7.06 g/m*3 6.88 C 3.33333 km/h
2328 03-05-2020 00:00:00 6.375 C 6.89 g/m*3 6.38 C 2.66667 km/h
2329 03-05-2020 01:00:00 5.60833 C 6.6 g/m*3 5.61 C 0.8 km/h
2330 03-05-2020 02:00:00 5.26667 C 6.5 g/m*3 5.27 C 1.46667 km/h
2331 03-05-2020 03:00:00 4.81667 C 6.35 g/m*3 4.82 C 2.13333 km/h
2332 03-05-2020 04:00:00 4.23333 C 6.12 g/m*3 4.23 C 0.26667 km/h
2333 03-05-2020 05:00:00 3.53333 C 5.86 g/m*3 3.53 C 0.4 km/h
2334 03-05-2020 06:00:00 4.21667 C 6.19 g/m*3 4.22 C 0.93333 km/h
2335 03-05-2020 07:00:00 4.5 C 6.31 g/m*3 4.5 C 4.40833 km/h
2336 03-05-2020 08:00:00 4.94167 C 6.52 g/m*3 4.94 C 2.13333 km/h
2337 03-05-2020 09:00:00 6.21667 C 7.14 g/m*3 6.22 C 2.53333 km/h
2338 03-05-2020 10:00:00 8.56667 C 8.17 g/m*3 8.57 C 0.8 km/h
2339 03-05-2020 11:00:00 12.21667 C 8.49 g/m*3 12.22 C 6.16667 km/h
2340 03-05-2020 12:00:00 14.23333 C 7.22 g/m*3 14.23 C 8.88333 km/h
2341 03-05-2020 13:00:00 15.40833 C 6.64 g/m*3 15.41 C 10.75833 km/h
2342 03-05-2020 14:00:00 16.23333 C 6.6 g/m*3 16.23 C 9.41667 km/h
2343 03-05-2020 15:00:00 17.39167 C 6.83 g/m*3 17.39 C 9.825 km/h
2344 03-05-2020 16:00:00 17.38333 C 7.07 g/m*3 17.38 C 8.875 km/h
2345 03-05-2020 17:00:00 16.975 C 7.13 g/m*3 16.98 C 8.2 km/h
2346 03-05-2020 18:00:00 16.625 C 7.57 g/m*3 16.63 C 4.94167 km/h
2347 03-05-2020 19:00:00 15.84167 C 8.7 g/m*3 15.84 C 3.86667 km/h
2348 03-05-2020 20:00:00 13.48333 C 8.62 g/m*3 13.48 C 5.6 km/h
2349 03-05-2020 21:00:00 12.08333 C 8.36 g/m*3 12.08 C 3.33333 km/h
2350 03-05-2020 22:00:00 11.75 C 8.37 g/m*3 11.75 C 0.4 km/h
Sensor: Nr:Datum:Temp:Abs-Feuchte:Windchill:Wind:
Aussen-T/F 2351 03-05-2020 23:00:00 11.46667 C 8.28 g/m*3 11.47 C 1.2 km/h
2352 04-05-2020 00:00:00 11.31667 C 8.3 g/m*3 11.32 C 0 km/h
2353 04-05-2020 01:00:00 11.075 C 8.2 g/m*3 11.08 C 0.53333 km/h
2354 04-05-2020 02:00:00 11.025 C 8.33 g/m*3 11.03 C 0 km/h
2355 04-05-2020 03:00:00 10 C 7.89 g/m*3 10 C 0.66667 km/h
2356 04-05-2020 04:00:00 9.28333 C 7.82 g/m*3 9.28 C 0 km/h
2357 04-05-2020 05:00:00 9.71667 C 8.13 g/m*3 9.72 C 0 km/h
2358 04-05-2020 06:00:00 9.875 C 8.3 g/m*3 9.88 C 0 km/h
2359 04-05-2020 07:00:00 10.49167 C 8.64 g/m*3 10.49 C 1.875 km/h
2360 04-05-2020 08:00:00 11.59167 C 9.38 g/m*3 11.59 C 3.20833 km/h
2361 04-05-2020 09:00:00 11.86667 C 9.8 g/m*3 11.87 C 1.46667 km/h
2362 04-05-2020 10:00:00 13.20833 C 10.36 g/m*3 13.21 C 6.44167 km/h
2363 04-05-2020 11:00:00 13.23333 C 10.31 g/m*3 13.23 C 6.44167 km/h
2364 04-05-2020 12:00:00 12.65 C 10.19 g/m*3 12.65 C 9 km/h
2365 04-05-2020 13:00:00 14.00833 C 10.36 g/m*3 14.01 C 7.79167 km/h
2366 04-05-2020 14:00:00 14.725 C 10.21 g/m*3 14.73 C 12.1 km/h
2367 04-05-2020 15:00:00 14.33333 C 9.85 g/m*3 14.33 C 8.88333 km/h
2368 04-05-2020 16:00:00 14.59167 C 9.28 g/m*3 14.59 C 11.43333 km/h
2369 04-05-2020 17:00:00 14.3 C 8.87 g/m*3 14.3 C 11.28333 km/h
2370 04-05-2020 18:00:00 14.05833 C 8.52 g/m*3 14.06 C 5.475 km/h
2371 04-05-2020 19:00:00 13.45 C 9.03 g/m*3 13.45 C 0.66667 km/h
2372 04-05-2020 20:00:00 12.61667 C 9.07 g/m*3 12.62 C 1.73333 km/h
2373 04-05-2020 21:00:00 10.54167 C 7.76 g/m*3 10.54 C 1.06667 km/h
2374 04-05-2020 22:00:00 8.55 C 7.16 g/m*3 8.55 C 0.93333 km/h
2375 04-05-2020 23:00:00 7.25833 C 6.87 g/m*3 7.26 C 2.4 km/h
Sensor: Nr:Datum:Temp:Abs-Feuchte:Windchill:Wind:
Aussen-T/F 2376 05-05-2020 00:00:00 6.40833 C 6.65 g/m*3 6.41 C 1.33333 km/h
2377 05-05-2020 01:00:00 5.625 C 6.46 g/m*3 5.63 C 0 km/h
2378 05-05-2020 02:00:00 4.9 C 6.26 g/m*3 4.9 C 0 km/h
2379 05-05-2020 03:00:00 4.81667 C 6.3 g/m*3 4.82 C 0.53333 km/h
2380 05-05-2020 04:00:00 4.51667 C 6.2 g/m*3 4.52 C 0 km/h
2381 05-05-2020 05:00:00 4.23333 C 6.13 g/m*3 4.23 C 0 km/h
2382 05-05-2020 06:00:00 4.39167 C 6.22 g/m*3 4.39 C 0 km/h
2383 05-05-2020 07:00:00 5.38333 C 6.69 g/m*3 5.38 C 0 km/h
2384 05-05-2020 08:00:00 6.54167 C 7.19 g/m*3 6.54 C 0.8 km/h
2385 05-05-2020 09:00:00 7.90833 C 7.27 g/m*3 7.18 C 5.61667 km/h
2386 05-05-2020 10:00:00 9.675 C 7.07 g/m*3 9.12 C 5.90833 km/h
2387 05-05-2020 11:00:00 11.85833 C 7.03 g/m*3 11.86 C 8.33333 km/h
2388 05-05-2020 12:00:00 12.825 C 7.11 g/m*3 12.83 C 7.50833 km/h
2389 05-05-2020 13:00:00 13.35833 C 6.97 g/m*3 13.36 C 7.10833 km/h
2390 05-05-2020 14:00:00 14.09167 C 6.5 g/m*3 14.09 C 7.24167 km/h
2391 05-05-2020 15:00:00 16.15 C 5.81 g/m*3 16.15 C 11.425 km/h
2392 05-05-2020 16:00:00 17.71667 C 5.41 g/m*3 17.72 C 9.8 km/h
2393 05-05-2020 17:00:00 18.20833 C 4.99 g/m*3 18.21 C 10.21667 km/h
2394 05-05-2020 18:00:00 18.11667 C 4.67 g/m*3 18.12 C 10.21667 km/h
2395 05-05-2020 19:00:00 17.075 C 4.51 g/m*3 17.08 C 10.09167 km/h
2396 05-05-2020 20:00:00 15.075 C 4.86 g/m*3 15.08 C 6.98333 km/h
2397 05-05-2020 21:00:00 11.24167 C 5.89 g/m*3 11.24 C 3.6 km/h
2398 05-05-2020 22:00:00 9.13333 C 5.8 g/m*3 9.13 C 3.6 km/h
2399 05-05-2020 23:00:00 8.15 C 5.65 g/m*3 8.15 C 2.53333 km/h
2400 06-05-2020 00:00:00 7.225 C 5.63 g/m*3 7.23 C 2.13333 km/h
Sensor: Nr:Datum:Temp:Abs-Feuchte:Windchill:Wind:
Aussen-T/F 2401 06-05-2020 01:00:00 5.90833 C 5.55 g/m*3 5.91 C 1.33333 km/h
2402 06-05-2020 02:00:00 4.51667 C 5.43 g/m*3 4.52 C 0 km/h
2403 06-05-2020 03:00:00 3.55 C 5.3 g/m*3 3.55 C 0 km/h
2404 06-05-2020 04:00:00 3.01667 C 5.25 g/m*3 3.02 C 0 km/h
2405 06-05-2020 05:00:00 2.55833 C 5.19 g/m*3 2.56 C 0.13333 km/h
2406 06-05-2020 06:00:00 2.1 C 5.12 g/m*3 2.1 C 0 km/h
2407 06-05-2020 07:00:00 2.43333 C 5.32 g/m*3 2.43 C 0.26667 km/h
2408 06-05-2020 08:00:00 3.50833 C 5.78 g/m*3 3.51 C 0.13333 km/h
2409 06-05-2020 09:00:00 5.75 C 6.6 g/m*3 5.75 C 0.53333 km/h
2410 06-05-2020 10:00:00 9.43333 C 6.4 g/m*3 8.39 C 7.79167 km/h
2411 06-05-2020 11:00:00 12.89167 C 4.86 g/m*3 12.89 C 9.80833 km/h
2412 06-05-2020 12:00:00 13.75 C 4.66 g/m*3 13.75 C 9.125 km/h
2413 06-05-2020 13:00:00 14.6 C 4.97 g/m*3 14.6 C 10.35 km/h
2414 06-05-2020 14:00:00 15.80833 C 4.81 g/m*3 15.81 C 11.15833 km/h
2415 06-05-2020 15:00:00 17.31667 C 4.82 g/m*3 17.32 C 11.15833 km/h
2416 06-05-2020 16:00:00 18.90833 C 4.97 g/m*3 18.91 C 10.34167 km/h
2417 06-05-2020 17:00:00 19.7 C 5.17 g/m*3 19.7 C 7.10833 km/h
2418 06-05-2020 18:00:00 20.23333 C 5.27 g/m*3 20.23 C 6.28333 km/h
2419 06-05-2020 19:00:00 19.125 C 5.42 g/m*3 19.13 C 4.95 km/h
2420 06-05-2020 20:00:00 16.2 C 6.88 g/m*3 16.2 C 5.225 km/h
2421 06-05-2020 21:00:00 12.05 C 6.59 g/m*3 12.05 C 5.51667 km/h
2422 06-05-2020 22:00:00 9.7 C 6.55 g/m*3 9.7 C 1.86667 km/h
2423 06-05-2020 23:00:00 8.04167 C 6.33 g/m*3 8.04 C 0 km/h
2424 07-05-2020 00:00:00 6.85833 C 6.16 g/m*3 6.86 C 0.53333 km/h
2425 07-05-2020 01:00:00 6.425 C 6.14 g/m*3 6.43 C 0.66667 km/h
Sensor: Nr:Datum:Temp:Abs-Feuchte:Windchill:Wind:
Aussen-T/F 2426 07-05-2020 02:00:00 5.54167 C 5.99 g/m*3 5.54 C 0 km/h
2427 07-05-2020 03:00:00 4.825 C 5.89 g/m*3 4.83 C 0 km/h
2428 07-05-2020 04:00:00 4.26667 C 5.78 g/m*3 4.27 C 0 km/h
2429 07-05-2020 05:00:00 3.675 C 5.65 g/m*3 3.68 C 0.4 km/h
2430 07-05-2020 06:00:00 3.4 C 5.62 g/m*3 3.4 C 0.13333 km/h
2431 07-05-2020 07:00:00 3.575 C 5.75 g/m*3 3.58 C 0.13333 km/h
2432 07-05-2020 08:00:00 4.40833 C 6.12 g/m*3 4.41 C 0.13333 km/h
2433 07-05-2020 09:00:00 6.24167 C 6.91 g/m*3 6.24 C 0 km/h
2434 07-05-2020 10:00:00 9.14167 C 7.81 g/m*3 9.14 C 0.8 km/h
2435 07-05-2020 11:00:00 13.8 C 7.87 g/m*3 13.8 C 2 km/h
2436 07-05-2020 12:00:00 16.45 C 6.5 g/m*3 16.45 C 6.03333 km/h
2437 07-05-2020 13:00:00 17.80833 C 6.93 g/m*3 17.81 C 8.46667 km/h
2438 07-05-2020 14:00:00 19.06667 C 6.69 g/m*3 19.07 C 7.38333 km/h
2439 07-05-2020 15:00:00 20.79167 C 6.7 g/m*3 20.79 C 7.38333 km/h
2440 07-05-2020 16:00:00 22.85833 C 6.95 g/m*3 22.86 C 6.425 km/h
2441 07-05-2020 17:00:00 23.225 C 6.84 g/m*3 23.23 C 6.70833 km/h
2442 07-05-2020 18:00:00 23.425 C 6.86 g/m*3 23.43 C 6.7 km/h
2443 07-05-2020 19:00:00 22.66667 C 7.9 g/m*3 22.67 C 4.54167 km/h
2444 07-05-2020 20:00:00 18.3 C 8.22 g/m*3 18.3 C 6.29167 km/h
2445 07-05-2020 21:00:00 15.26667 C 8.04 g/m*3 15.27 C 3.86667 km/h
2446 07-05-2020 22:00:00 13.04167 C 8.02 g/m*3 13.04 C 0.13333 km/h
2447 07-05-2020 23:00:00 11.76667 C 7.73 g/m*3 11.77 C 0.13333 km/h
2448 08-05-2020 00:00:00 10.66667 C 7.47 g/m*3 10.67 C 0 km/h
2449 08-05-2020 01:00:00 9.825 C 7.45 g/m*3 9.82 C 0.66667 km/h
2450 08-05-2020 02:00:00 9.275 C 7.4 g/m*3 9.28 C 0 km/h
Sensor: Nr:Datum:Temp:Abs-Feuchte:Windchill:Wind:
Aussen-T/F 2451 08-05-2020 03:00:00 8.275 C 7.21 g/m*3 8.28 C 0 km/h
2452 08-05-2020 04:00:00 7.61667 C 7.08 g/m*3 7.62 C 0 km/h
2453 08-05-2020 05:00:00 7.65 C 7.22 g/m*3 7.65 C 0.4 km/h
2454 08-05-2020 06:00:00 7.20833 C 7.08 g/m*3 7.21 C 0.13333 km/h
2455 08-05-2020 07:00:00 7.275 C 7.25 g/m*3 7.28 C 0.4 km/h
2456 08-05-2020 08:00:00 8.43333 C 7.79 g/m*3 8.43 C 0.13333 km/h
2457 08-05-2020 09:00:00 9.88333 C 8.39 g/m*3 9.88 C 0.53333 km/h
2458 08-05-2020 10:00:00 12.45833 C 9.17 g/m*3 12.46 C 0.26667 km/h
2459 08-05-2020 11:00:00 16.40833 C 9.44 g/m*3 16.41 C 1.6 km/h
2460 08-05-2020 12:00:00 19.05833 C 8.07 g/m*3 19.06 C 2.66667 km/h
2461 08-05-2020 13:00:00 20.78333 C 7.61 g/m*3 20.78 C 5.49167 km/h
2462 08-05-2020 14:00:00 22.25833 C 7.06 g/m*3 22.26 C 6.15833 km/h
2463 08-05-2020 15:00:00 23.13333 C 7.01 g/m*3 23.13 C 4.8 km/h
2464 08-05-2020 16:00:00 24.94167 C 6.71 g/m*3 24.94 C 4.81667 km/h
2465 08-05-2020 17:00:00 24.59167 C 7.29 g/m*3 24.59 C 4.66667 km/h
2466 08-05-2020 18:00:00 24.575 C 7.25 g/m*3 24.58 C 6.01667 km/h
2467 08-05-2020 19:00:00 23.51667 C 7.34 g/m*3 23.52 C 6.175 km/h
2468 08-05-2020 20:00:00 19.40833 C 8.51 g/m*3 19.41 C 3.2 km/h
2469 08-05-2020 21:00:00 16.575 C 8.4 g/m*3 16.58 C 3.86667 km/h
2470 08-05-2020 22:00:00 14.98333 C 8.64 g/m*3 14.98 C 0.8 km/h
2471 08-05-2020 23:00:00 13.875 C 8.37 g/m*3 13.88 C 0 km/h
2472 09-05-2020 00:00:00 12.69167 C 8.09 g/m*3 12.69 C 0 km/h
2473 09-05-2020 01:00:00 11.875 C 8.11 g/m*3 11.88 C 0 km/h
2474 09-05-2020 02:00:00 11.85 C 8.38 g/m*3 11.85 C 0 km/h
2475 09-05-2020 03:00:00 11.29167 C 8.33 g/m*3 11.29 C 0 km/h
Sensor: Nr:Datum:Temp:Abs-Feuchte:Windchill:Wind:
Aussen-T/F 2476 09-05-2020 04:00:00 9.99167 C 7.82 g/m*3 9.99 C 0 km/h
2477 09-05-2020 05:00:00 9.425 C 7.81 g/m*3 9.43 C 0 km/h
2478 09-05-2020 06:00:00 9.925 C 8.2 g/m*3 9.93 C 0.26667 km/h
2479 09-05-2020 07:00:00 11.175 C 8.65 g/m*3 11.18 C 0 km/h
2480 09-05-2020 08:00:00 12.55 C 8.95 g/m*3 12.55 C 0.13333 km/h
2481 09-05-2020 09:00:00 14.8 C 9.45 g/m*3 14.8 C 1.06667 km/h
2482 09-05-2020 10:00:00 16.65833 C 8.9 g/m*3 16.66 C 3.075 km/h
2483 09-05-2020 11:00:00 17.99167 C 8.85 g/m*3 17.99 C 5.48333 km/h
2484 09-05-2020 12:00:00 19.55 C 9.1 g/m*3 19.55 C 4.94167 km/h
2485 09-05-2020 13:00:00 20.79167 C 9.68 g/m*3 20.79 C 5.21667 km/h
2486 09-05-2020 14:00:00 21.06667 C 10.21 g/m*3 21.07 C 5.61667 km/h
2487 09-05-2020 15:00:00 20.23333 C 11.24 g/m*3 20.23 C 7.125 km/h
2488 09-05-2020 16:00:00 21.25 C 11.65 g/m*3 21.25 C 4.675 km/h
2489 09-05-2020 17:00:00 21.28333 C 11.47 g/m*3 21.28 C 4.95833 km/h
2490 09-05-2020 18:00:00 22.2 C 11.8 g/m*3 22.2 C 7.11667 km/h
2491 09-05-2020 19:00:00 21.95833 C 11.41 g/m*3 21.96 C 4.41667 km/h
2492 09-05-2020 20:00:00 20.21667 C 11.99 g/m*3 20.22 C 2.66667 km/h
2493 09-05-2020 21:00:00 16.65 C 11.3 g/m*3 16.65 C 3.73333 km/h
2494 09-05-2020 22:00:00 14.53333 C 10.74 g/m*3 14.53 C 2.93333 km/h
2495 09-05-2020 23:00:00 13.41667 C 10.34 g/m*3 13.42 C 1.73333 km/h
2496 10-05-2020 00:00:00 12.45 C 9.94 g/m*3 12.45 C 0.26667 km/h
2497 10-05-2020 01:00:00 11.74167 C 9.58 g/m*3 11.74 C 0 km/h
2498 10-05-2020 02:00:00 11.34167 C 9.41 g/m*3 11.34 C 0 km/h
2499 10-05-2020 03:00:00 10.90833 C 9.29 g/m*3 10.91 C 0 km/h
2500 10-05-2020 04:00:00 10.8 C 9.29 g/m*3 10.8 C 0.13333 km/h
Sensor: Nr:Datum:Temp:Abs-Feuchte:Windchill:Wind:
Aussen-T/F 2501 10-05-2020 05:00:00 10.9 C 9.44 g/m*3 10.9 C 0.53333 km/h
2502 10-05-2020 06:00:00 11.10833 C 9.57 g/m*3 11.11 C 0 km/h
2503 10-05-2020 07:00:00 11.6 C 9.9 g/m*3 11.6 C 0 km/h
2504 10-05-2020 08:00:00 12.075 C 10.19 g/m*3 12.08 C 0.13333 km/h
2505 10-05-2020 09:00:00 12.9 C 10.63 g/m*3 12.9 C 0.53333 km/h
2506 10-05-2020 10:00:00 14.68333 C 11.47 g/m*3 14.68 C 0.53333 km/h
2507 10-05-2020 11:00:00 17.80833 C 12.45 g/m*3 17.81 C 2 km/h
2508 10-05-2020 12:00:00 19.84167 C 12.88 g/m*3 19.84 C 5.49167 km/h
2509 10-05-2020 13:00:00 21.11667 C 13.49 g/m*3 21.12 C 5.21667 km/h
2510 10-05-2020 14:00:00 22.225 C 13.68 g/m*3 22.23 C 6.55833 km/h
2511 10-05-2020 15:00:00 20.58333 C 12.93 g/m*3 20.58 C 7.10833 km/h
2512 10-05-2020 16:00:00 19.69167 C 13.15 g/m*3 19.69 C 8.85 km/h
2513 10-05-2020 17:00:00 18.26667 C 12.95 g/m*3 18.27 C 3.33333 km/h
2514 10-05-2020 18:00:00 18.63333 C 13.17 g/m*3 18.63 C 2.53333 km/h
2515 10-05-2020 19:00:00 18.44167 C 13.43 g/m*3 18.44 C 2.26667 km/h
2516 10-05-2020 20:00:00 17.7 C 13.2 g/m*3 17.7 C 0.66667 km/h
2517 10-05-2020 21:00:00 16.78333 C 12.83 g/m*3 16.78 C 1.06667 km/h
2518 10-05-2020 22:00:00 15.84167 C 12.37 g/m*3 15.84 C 2.13333 km/h
2519 10-05-2020 23:00:00 15.61667 C 12.38 g/m*3 15.62 C 0.53333 km/h
2520 11-05-2020 00:00:00 15.9 C 12.14 g/m*3 15.9 C 10.075 km/h
2521 11-05-2020 01:00:00 14.44167 C 10.55 g/m*3 14.44 C 13.7 km/h
2522 11-05-2020 02:00:00 12.51667 C 9.39 g/m*3 12.52 C 14.76667 km/h
2523 11-05-2020 03:00:00 10.8 C 8.34 g/m*3 8.9 C 15.03333 km/h
2524 11-05-2020 04:00:00 8.78333 C 7.8 g/m*3 6.67 C 13.16667 km/h
2525 11-05-2020 05:00:00 7.41667 C 7.36 g/m*3 4.63 C 15.7 km/h
Sensor: Nr:Datum:Temp:Abs-Feuchte:Windchill:Wind:
Aussen-T/F 2526 11-05-2020 06:00:00 6.79167 C 7.11 g/m*3 4.95 C 9.29167 km/h
2527 11-05-2020 07:00:00 6.19167 C 6.77 g/m*3 3.96 C 10.625 km/h
2528 11-05-2020 08:00:00 5.8 C 6.67 g/m*3 2.98 C 13.425 km/h
2529 11-05-2020 09:00:00 5.38333 C 6.15 g/m*3 1.8 C 17.975 km/h
2530 11-05-2020 10:00:00 5.68333 C 6.14 g/m*3 2.77 C 13.83333 km/h
2531 11-05-2020 11:00:00 6.16667 C 5.98 g/m*3 2.99 C 16.36667 km/h
2532 11-05-2020 12:00:00 6.775 C 6.01 g/m*3 3.68 C 16.90833 km/h
2533 11-05-2020 13:00:00 7.65 C 5.85 g/m*3 4.69 C 17.56667 km/h
2534 11-05-2020 14:00:00 8.975 C 5.57 g/m*3 6.22 C 18.63333 km/h
2535 11-05-2020 15:00:00 11.125 C 5.67 g/m*3 11.13 C 21.18333 km/h
2536 11-05-2020 16:00:00 12.23333 C 5.51 g/m*3 12.23 C 24.14167 km/h
2537 11-05-2020 17:00:00 12.16667 C 5.22 g/m*3 12.17 C 21.84167 km/h
2538 11-05-2020 18:00:00 11.63333 C 4.98 g/m*3 11.63 C 20.78333 km/h
2539 11-05-2020 19:00:00 11.625 C 4.88 g/m*3 11.63 C 19.04167 km/h
2540 11-05-2020 20:00:00 10.9 C 4.67 g/m*3 8.96 C 15.56667 km/h
2541 11-05-2020 21:00:00 9.975 C 4.54 g/m*3 8.54 C 10.35 km/h
2542 11-05-2020 22:00:00 9.34167 C 5 g/m*3 9.34 C 3.06667 km/h
2543 11-05-2020 23:00:00 7.56667 C 5.45 g/m*3 7.57 C 0.8 km/h
2544 12-05-2020 00:00:00 5.375 C 5.19 g/m*3 5.38 C 2.4 km/h
2545 12-05-2020 01:00:00 4.10833 C 4.99 g/m*3 4.11 C 2 km/h
2546 12-05-2020 02:00:00 4.15 C 4.86 g/m*3 4.15 C 3.73333 km/h
2547 12-05-2020 03:00:00 2.98333 C 4.75 g/m*3 1.65 C 5.34167 km/h
2548 12-05-2020 04:00:00 2.43333 C 4.68 g/m*3 0.76 C 6.025 km/h
2549 12-05-2020 05:00:00 2.01667 C 4.63 g/m*3 2.02 C 4.29167 km/h
2550 12-05-2020 06:00:00 1.14167 C 4.56 g/m*3 1.14 C 0.26667 km/h
Sensor: Nr:Datum:Temp:Abs-Feuchte:Windchill:Wind:
Aussen-T/F 2551 12-05-2020 07:00:00 1.29167 C 4.78 g/m*3 1.29 C 0.4 km/h
2552 12-05-2020 08:00:00 2.49167 C 5.2 g/m*3 2.49 C 0.4 km/h
2553 12-05-2020 09:00:00 4.41667 C 5.59 g/m*3 4.42 C 0.66667 km/h
2554 12-05-2020 10:00:00 7.05 C 5.51 g/m*3 7.05 C 3.75 km/h
2555 12-05-2020 11:00:00 9.075 C 5.03 g/m*3 8.36 C 6.175 km/h
2556 12-05-2020 12:00:00 9.925 C 4.14 g/m*3 8.72 C 9.025 km/h
2557 12-05-2020 13:00:00 10.93333 C 4.11 g/m*3 9.92 C 9 km/h
2558 12-05-2020 14:00:00 12.06667 C 4.67 g/m*3 12.07 C 10.21667 km/h
2559 12-05-2020 15:00:00 13.10833 C 4.97 g/m*3 13.11 C 11.29167 km/h
2560 12-05-2020 16:00:00 14.075 C 5.11 g/m*3 14.08 C 9.14167 km/h
2561 12-05-2020 17:00:00 14.19167 C 5.25 g/m*3 14.19 C 9.15 km/h
2562 12-05-2020 18:00:00 14.98333 C 5.36 g/m*3 14.98 C 7.38333 km/h
2563 12-05-2020 19:00:00 13.53333 C 5.25 g/m*3 13.53 C 6.56667 km/h
2564 12-05-2020 20:00:00 11.91667 C 5.68 g/m*3 11.92 C 2.53333 km/h
2565 12-05-2020 21:00:00 8.88333 C 5.86 g/m*3 8.88 C 1.6 km/h
2566 12-05-2020 22:00:00 7.41667 C 5.55 g/m*3 7.42 C 4 km/h
2567 12-05-2020 23:00:00 6.675 C 5.53 g/m*3 6.68 C 4.675 km/h
2568 13-05-2020 00:00:00 5.56667 C 5.53 g/m*3 5.57 C 0.26667 km/h
2569 13-05-2020 01:00:00 4.23333 C 5.34 g/m*3 4.23 C 0 km/h
2570 13-05-2020 02:00:00 3.325 C 5.18 g/m*3 3.33 C 0.13333 km/h
2571 13-05-2020 03:00:00 2.66667 C 5.11 g/m*3 2.67 C 0.13333 km/h
2572 13-05-2020 04:00:00 2.14167 C 5.04 g/m*3 2.14 C 0.26667 km/h
2573 13-05-2020 05:00:00 2.05833 C 5.12 g/m*3 2.06 C 0.13333 km/h
2574 13-05-2020 06:00:00 2.91667 C 5.44 g/m*3 2.92 C 0.8 km/h
2575 13-05-2020 07:00:00 3.74167 C 5.62 g/m*3 3.74 C 2.93333 km/h
Sensor: Nr:Datum:Temp:Abs-Feuchte:Windchill:Wind:
Aussen-T/F 2576 13-05-2020 08:00:00 5.33333 C 5.88 g/m*3 5.33 C 1.33333 km/h
2577 13-05-2020 09:00:00 6.41667 C 6.27 g/m*3 6.42 C 0.66667 km/h
2578 13-05-2020 10:00:00 8.96667 C 6.02 g/m*3 8.97 C 2.53333 km/h
2579 13-05-2020 11:00:00 11.75 C 5.9 g/m*3 11.75 C 7.1 km/h
2580 13-05-2020 12:00:00 13.05 C 5.69 g/m*3 13.05 C 8.475 km/h
2581 13-05-2020 13:00:00 13.64167 C 5.89 g/m*3 13.64 C 10.60833 km/h
2582 13-05-2020 14:00:00 14.16667 C 5.83 g/m*3 14.17 C 10.08333 km/h
2583 13-05-2020 15:00:00 14.65 C 5.77 g/m*3 14.65 C 13.43333 km/h
2584 13-05-2020 16:00:00 14.875 C 5.68 g/m*3 14.88 C 11.55833 km/h
2585 13-05-2020 17:00:00 14.58333 C 5.64 g/m*3 14.58 C 10.625 km/h
2586 13-05-2020 18:00:00 13.725 C 5.46 g/m*3 13.73 C 11.025 km/h
2587 13-05-2020 19:00:00 12.9 C 5.41 g/m*3 12.9 C 8.875 km/h
2588 13-05-2020 20:00:00 12.8 C 5.54 g/m*3 12.8 C 4.93333 km/h
2589 13-05-2020 21:00:00 11.775 C 6.06 g/m*3 11.78 C 8.06667 km/h
2590 13-05-2020 22:00:00 10.10833 C 6.65 g/m*3 9.27 C 7.375 km/h
2591 13-05-2020 23:00:00 8.83333 C 6.47 g/m*3 7.91 C 6.84167 km/h
2592 14-05-2020 00:00:00 8.14167 C 6.35 g/m*3 6.66 C 8.74167 km/h
2593 14-05-2020 01:00:00 7.41667 C 6.14 g/m*3 7.42 C 4.825 km/h
2594 14-05-2020 02:00:00 6.325 C 6.01 g/m*3 6.33 C 3.475 km/h
2595 14-05-2020 03:00:00 6.225 C 6.06 g/m*3 6.23 C 2 km/h
2596 14-05-2020 04:00:00 6.075 C 6.02 g/m*3 6.08 C 2.4 km/h
2597 14-05-2020 05:00:00 5.85833 C 5.97 g/m*3 4.93 C 5.35 km/h
2598 14-05-2020 06:00:00 5.05833 C 5.81 g/m*3 5.06 C 2 km/h
2599 14-05-2020 07:00:00 4.64167 C 5.89 g/m*3 4.64 C 3.21667 km/h
2600 14-05-2020 08:00:00 6.58333 C 6.1 g/m*3 5.08 C 7.64167 km/h
Sensor: Nr:Datum:Temp:Abs-Feuchte:Windchill:Wind:
Aussen-T/F 2601 14-05-2020 09:00:00 7.775 C 6.1 g/m*3 6.55 C 7.36667 km/h
2602 14-05-2020 10:00:00 9.075 C 6.17 g/m*3 8.03 C 7.50833 km/h
2603 14-05-2020 11:00:00 10.89167 C 6.24 g/m*3 9.8 C 9.4 km/h
2604 14-05-2020 12:00:00 12.19167 C 6.17 g/m*3 12.19 C 11.425 km/h
2605 14-05-2020 13:00:00 13.35 C 6.12 g/m*3 13.35 C 11.29167 km/h
2606 14-05-2020 14:00:00 14.15 C 5.88 g/m*3 14.15 C 8.58333 km/h
2607 14-05-2020 15:00:00 14.40833 C 5.82 g/m*3 14.41 C 8.19167 km/h
2608 14-05-2020 16:00:00 14.88333 C 5.68 g/m*3 14.88 C 11.3 km/h
2609 14-05-2020 17:00:00 14.39167 C 5.71 g/m*3 14.39 C 13.96667 km/h
2610 14-05-2020 18:00:00 14.85833 C 5.71 g/m*3 14.86 C 13.3 km/h
2611 14-05-2020 19:00:00 14.79167 C 5.69 g/m*3 14.79 C 5.23333 km/h
2612 14-05-2020 20:00:00 11.91667 C 6.06 g/m*3 11.92 C 2.13333 km/h
2613 14-05-2020 21:00:00 9.2 C 5.71 g/m*3 9.2 C 2.66667 km/h
2614 14-05-2020 22:00:00 7.80833 C 5.56 g/m*3 7.81 C 3.46667 km/h
2615 14-05-2020 23:00:00 7.11667 C 5.49 g/m*3 6.41 C 5.20833 km/h
2616 15-05-2020 00:00:00 6.325 C 5.5 g/m*3 6.33 C 2.8 km/h
2617 15-05-2020 01:00:00 5.45 C 5.43 g/m*3 5.45 C 3.73333 km/h
2618 15-05-2020 02:00:00 5.125 C 5.29 g/m*3 4.2 C 5.06667 km/h
2619 15-05-2020 03:00:00 4.26667 C 5.19 g/m*3 4.27 C 0.66667 km/h
2620 15-05-2020 04:00:00 3.48333 C 5.1 g/m*3 3.48 C 0.26667 km/h
2621 15-05-2020 05:00:00 2.50833 C 4.98 g/m*3 2.51 C 0 km/h
2622 15-05-2020 06:00:00 2.15 C 5.02 g/m*3 2.15 C 0 km/h
2623 15-05-2020 07:00:00 3.15833 C 5.4 g/m*3 3.16 C 1.2 km/h
2624 15-05-2020 08:00:00 4.925 C 5.79 g/m*3 4.93 C 2.53333 km/h
2625 15-05-2020 09:00:00 7.46667 C 6.02 g/m*3 6.85 C 5.08333 km/h
Sensor: Nr:Datum:Temp:Abs-Feuchte:Windchill:Wind:
Aussen-T/F 2626 15-05-2020 10:00:00 10.51667 C 6.06 g/m*3 10.06 C 6.03333 km/h
2627 15-05-2020 11:00:00 12.88333 C 5.97 g/m*3 12.88 C 9.11667 km/h
2628 15-05-2020 12:00:00 14.1 C 5.46 g/m*3 14.1 C 13.825 km/h
2629 15-05-2020 13:00:00 14.91667 C 5.69 g/m*3 14.92 C 10.88333 km/h
2630 15-05-2020 14:00:00 16.00833 C 5.85 g/m*3 16.01 C 10.75833 km/h
2631 15-05-2020 15:00:00 17.775 C 5.78 g/m*3 17.77 C 13.025 km/h
2632 15-05-2020 16:00:00 18.525 C 5.64 g/m*3 18.52 C 14.23333 km/h
2633 15-05-2020 17:00:00 18.55 C 5.34 g/m*3 18.55 C 11.83333 km/h
2634 15-05-2020 18:00:00 18.05833 C 5.25 g/m*3 18.06 C 11.56667 km/h
2635 15-05-2020 19:00:00 17.35833 C 5.03 g/m*3 17.36 C 9.825 km/h
2636 15-05-2020 20:00:00 15.7 C 5.16 g/m*3 15.7 C 4.675 km/h
2637 15-05-2020 21:00:00 12.11667 C 5.62 g/m*3 12.12 C 4.14167 km/h
2638 15-05-2020 22:00:00 10.10833 C 5.85 g/m*3 10.11 C 3.2 km/h
2639 15-05-2020 23:00:00 8.90833 C 5.88 g/m*3 8.91 C 2 km/h
2640 16-05-2020 00:00:00 7.76667 C 5.7 g/m*3 7.77 C 3.06667 km/h
2641 16-05-2020 01:00:00 6.21667 C 5.65 g/m*3 6.22 C 0.13333 km/h
2642 16-05-2020 02:00:00 4.8 C 5.5 g/m*3 4.8 C 0 km/h
2643 16-05-2020 03:00:00 4 C 5.43 g/m*3 4 C 0 km/h
2644 16-05-2020 04:00:00 3.375 C 5.35 g/m*3 3.38 C 0 km/h
2645 16-05-2020 05:00:00 2.86667 C 5.28 g/m*3 2.87 C 0.13333 km/h
2646 16-05-2020 06:00:00 2.6 C 5.27 g/m*3 2.6 C 0 km/h
2647 16-05-2020 07:00:00 2.98333 C 5.49 g/m*3 2.98 C 0 km/h
2648 16-05-2020 08:00:00 4.275 C 6 g/m*3 4.28 C 0.4 km/h
2649 16-05-2020 09:00:00 6.35 C 6.72 g/m*3 6.35 C 0 km/h
2650 16-05-2020 10:00:00 9.875 C 6.95 g/m*3 9.88 C 1.2 km/h
Sensor: Nr:Datum:Temp:Abs-Feuchte:Windchill:Wind:
Aussen-T/F 2651 16-05-2020 11:00:00 13.58333 C 6.17 g/m*3 13.58 C 6.71667 km/h
2652 16-05-2020 12:00:00 14.65 C 6 g/m*3 14.65 C 7.375 km/h
2653 16-05-2020 13:00:00 15.65833 C 6.04 g/m*3 15.66 C 7.11667 km/h
2654 16-05-2020 14:00:00 17.03333 C 5.99 g/m*3 17.03 C 9 km/h
2655 16-05-2020 15:00:00 18.6 C 5.7 g/m*3 18.6 C 9.95 km/h
2656 16-05-2020 16:00:00 19.85833 C 6.14 g/m*3 19.86 C 7.51667 km/h
2657 16-05-2020 17:00:00 18.875 C 6.28 g/m*3 18.88 C 4.41667 km/h
2658 16-05-2020 18:00:00 19.41667 C 6.32 g/m*3 19.42 C 7.38333 km/h
2659 16-05-2020 19:00:00 18.58333 C 6.47 g/m*3 18.58 C 6.56667 km/h
2660 16-05-2020 20:00:00 17.54167 C 6.7 g/m*3 17.54 C 4.66667 km/h
2661 16-05-2020 21:00:00 14.28333 C 7.11 g/m*3 14.28 C 2.26667 km/h
2662 16-05-2020 22:00:00 12.81667 C 6.99 g/m*3 12.82 C 6.41667 km/h
2663 16-05-2020 23:00:00 12.16667 C 7.05 g/m*3 12.17 C 4.54167 km/h
2664 17-05-2020 00:00:00 11.31667 C 7.09 g/m*3 11.32 C 3.46667 km/h
2665 17-05-2020 01:00:00 9.85833 C 6.99 g/m*3 9.86 C 3.73333 km/h
2666 17-05-2020 02:00:00 9.14167 C 6.89 g/m*3 8.67 C 5.35833 km/h
2667 17-05-2020 03:00:00 8.625 C 6.98 g/m*3 8.63 C 3.74167 km/h
2668 17-05-2020 04:00:00 8.25833 C 6.97 g/m*3 8.26 C 3.6 km/h
2669 17-05-2020 05:00:00 7.18333 C 6.78 g/m*3 7.18 C 3.6 km/h
2670 17-05-2020 06:00:00 6.70833 C 6.68 g/m*3 6.71 C 3.6 km/h
2671 17-05-2020 07:00:00 6.93333 C 6.84 g/m*3 6.93 C 1.73333 km/h
2672 17-05-2020 08:00:00 7.49167 C 7.11 g/m*3 7.49 C 0.8 km/h
2673 17-05-2020 09:00:00 9.96667 C 7.33 g/m*3 9.97 C 4.40833 km/h
2674 17-05-2020 10:00:00 12.21667 C 7.06 g/m*3 12.22 C 7.50833 km/h
2675 17-05-2020 11:00:00 13.23333 C 7.02 g/m*3 13.23 C 6.15833 km/h
Sensor: Nr:Datum:Temp:Abs-Feuchte:Windchill:Wind:
Aussen-T/F 2676 17-05-2020 12:00:00 14.25833 C 6.92 g/m*3 14.26 C 7.79167 km/h
2677 17-05-2020 13:00:00 15.35833 C 6.86 g/m*3 15.36 C 8.73333 km/h
2678 17-05-2020 14:00:00 16.85 C 6.76 g/m*3 16.85 C 8.725 km/h
2679 17-05-2020 15:00:00 18.625 C 6.59 g/m*3 18.63 C 8.74167 km/h
2680 17-05-2020 16:00:00 20.13333 C 6.52 g/m*3 20.13 C 10.35833 km/h
2681 17-05-2020 17:00:00 20.69167 C 6.24 g/m*3 20.69 C 9.80833 km/h
2682 17-05-2020 18:00:00 20.95833 C 6.5 g/m*3 20.96 C 7.94167 km/h
2683 17-05-2020 19:00:00 20.00833 C 6.5 g/m*3 20.01 C 5.89167 km/h
2684 17-05-2020 20:00:00 18.46667 C 6.92 g/m*3 18.47 C 3.34167 km/h
2685 17-05-2020 21:00:00 14.75833 C 7.22 g/m*3 14.76 C 6.99167 km/h
2686 17-05-2020 22:00:00 12.99167 C 7.1 g/m*3 12.99 C 4.81667 km/h
2687 17-05-2020 23:00:00 10.73333 C 7.14 g/m*3 10.73 C 0 km/h
2688 18-05-2020 00:00:00 9.35 C 7.01 g/m*3 9.35 C 0.4 km/h
2689 18-05-2020 01:00:00 8.54167 C 6.93 g/m*3 8.54 C 0.26667 km/h
2690 18-05-2020 02:00:00 7.95 C 6.86 g/m*3 7.95 C 0.66667 km/h
2691 18-05-2020 03:00:00 7.16667 C 6.74 g/m*3 7.17 C 0.13333 km/h
2692 18-05-2020 04:00:00 6.60833 C 6.62 g/m*3 6.61 C 0.26667 km/h
2693 18-05-2020 05:00:00 6.04167 C 6.5 g/m*3 6.04 C 0.66667 km/h
2694 18-05-2020 06:00:00 5.925 C 6.56 g/m*3 5.93 C 0 km/h
2695 18-05-2020 07:00:00 6.7 C 6.99 g/m*3 6.7 C 0.13333 km/h
2696 18-05-2020 08:00:00 8.125 C 7.67 g/m*3 8.13 C 0 km/h
2697 18-05-2020 09:00:00 10.525 C 8.51 g/m*3 10.53 C 0 km/h
2698 18-05-2020 10:00:00 13.975 C 8.99 g/m*3 13.98 C 2.40833 km/h
2699 18-05-2020 11:00:00 18.925 C 8.22 g/m*3 18.93 C 7.24167 km/h
2700 18-05-2020 12:00:00 20.225 C 8.23 g/m*3 20.23 C 9.26667 km/h
Sensor: Nr:Datum:Temp:Abs-Feuchte:Windchill:Wind:
Aussen-T/F 2701 18-05-2020 13:00:00 21.45 C 8.1 g/m*3 21.45 C 10.74167 km/h
2702 18-05-2020 14:00:00 22.80833 C 8.11 g/m*3 22.81 C 9.94167 km/h
2703 18-05-2020 15:00:00 24.43333 C 8.29 g/m*3 24.43 C 9.28333 km/h
2704 18-05-2020 16:00:00 25.59167 C 8.39 g/m*3 25.59 C 10.225 km/h
2705 18-05-2020 17:00:00 25.86667 C 8.64 g/m*3 25.87 C 9.80833 km/h
2706 18-05-2020 18:00:00 26.05 C 9.24 g/m*3 26.05 C 8.875 km/h
2707 18-05-2020 19:00:00 24.85 C 9.61 g/m*3 24.85 C 8.075 km/h
2708 18-05-2020 20:00:00 22.89167 C 9.91 g/m*3 22.89 C 5.21667 km/h
2709 18-05-2020 21:00:00 19.43333 C 9.89 g/m*3 19.43 C 4.95833 km/h
2710 18-05-2020 22:00:00 17.025 C 9.73 g/m*3 17.02 C 5.625 km/h
2711 18-05-2020 23:00:00 15.69167 C 9.68 g/m*3 15.69 C 4.80833 km/h
2712 19-05-2020 00:00:00 13.85833 C 9.28 g/m*3 13.86 C 0.26667 km/h
2713 19-05-2020 01:00:00 12.08333 C 8.96 g/m*3 12.08 C 2 km/h
2714 19-05-2020 02:00:00 11.03333 C 8.53 g/m*3 11.03 C 1.06667 km/h
2715 19-05-2020 03:00:00 9.825 C 8.16 g/m*3 9.82 C 0 km/h
2716 19-05-2020 04:00:00 8.89167 C 7.92 g/m*3 8.89 C 1.46667 km/h
2717 19-05-2020 05:00:00 8.31667 C 7.64 g/m*3 8.32 C 0.66667 km/h
2718 19-05-2020 06:00:00 8.125 C 7.62 g/m*3 8.13 C 0.53333 km/h
2719 19-05-2020 07:00:00 8.35 C 7.78 g/m*3 8.35 C 0.13333 km/h
2720 19-05-2020 08:00:00 9.29167 C 8.29 g/m*3 9.29 C 0.53333 km/h
2721 19-05-2020 09:00:00 11.55833 C 9.12 g/m*3 11.56 C 0.4 km/h
2722 19-05-2020 10:00:00 15.025 C 8.71 g/m*3 15.03 C 1.46667 km/h
2723 19-05-2020 11:00:00 19.51667 C 7.64 g/m*3 19.52 C 4.00833 km/h
2724 19-05-2020 12:00:00 20.34167 C 7.13 g/m*3 20.34 C 3.33333 km/h
2725 19-05-2020 13:00:00 21.75 C 7.16 g/m*3 21.75 C 9.54167 km/h
Sensor: Nr:Datum:Temp:Abs-Feuchte:Windchill:Wind:
Aussen-T/F 2726 19-05-2020 14:00:00 23.225 C 7.69 g/m*3 23.23 C 11.425 km/h
2727 19-05-2020 15:00:00 24.11667 C 8.58 g/m*3 24.12 C 11.7 km/h
2728 19-05-2020 16:00:00 24.61667 C 9.07 g/m*3 24.62 C 14.76667 km/h
2729 19-05-2020 17:00:00 25.26667 C 9.62 g/m*3 25.27 C 13.7 km/h
2730 19-05-2020 18:00:00 25.43333 C 9.81 g/m*3 25.43 C 13.03333 km/h
2731 19-05-2020 19:00:00 24.35 C 10.12 g/m*3 24.35 C 9.83333 km/h
2732 19-05-2020 20:00:00 21.79167 C 10.45 g/m*3 21.79 C 5.75833 km/h
2733 19-05-2020 21:00:00 19.225 C 10.53 g/m*3 19.23 C 2.4 km/h
2734 19-05-2020 22:00:00 17 C 10.24 g/m*3 17 C 4.13333 km/h
2735 19-05-2020 23:00:00 15.58333 C 10.21 g/m*3 15.58 C 0.8 km/h
2736 20-05-2020 00:00:00 14.90833 C 10.32 g/m*3 14.91 C 0 km/h
2737 20-05-2020 01:00:00 13.65833 C 9.9 g/m*3 13.66 C 0 km/h
2738 20-05-2020 02:00:00 12.825 C 9.73 g/m*3 12.83 C 0.4 km/h
2739 20-05-2020 03:00:00 12.25833 C 9.61 g/m*3 12.26 C 1.60833 km/h
2740 20-05-2020 04:00:00 11.91667 C 9.58 g/m*3 11.92 C 2.28333 km/h
2741 20-05-2020 05:00:00 11.3 C 9.31 g/m*3 11.3 C 0.26667 km/h
2742 20-05-2020 06:00:00 11.45 C 9.49 g/m*3 11.45 C 0.13333 km/h
2743 20-05-2020 07:00:00 11.975 C 9.89 g/m*3 11.98 C 2.26667 km/h
2744 20-05-2020 08:00:00 14.78333 C 10.99 g/m*3 14.78 C 7.25 km/h
2745 20-05-2020 09:00:00 16.96667 C 11.25 g/m*3 16.97 C 8.33333 km/h
2746 20-05-2020 10:00:00 18.60833 C 11.47 g/m*3 18.61 C 8.88333 km/h
2747 20-05-2020 11:00:00 19.60833 C 11.5 g/m*3 19.61 C 10.225 km/h
2748 20-05-2020 12:00:00 20.25 C 11.53 g/m*3 20.25 C 9.80833 km/h
2749 20-05-2020 13:00:00 21.15 C 11.43 g/m*3 21.15 C 11.29167 km/h
2750 20-05-2020 14:00:00 21.89167 C 11.44 g/m*3 21.89 C 12.23333 km/h
Sensor: Nr:Datum:Temp:Abs-Feuchte:Windchill:Wind:
Aussen-T/F 2751 20-05-2020 15:00:00 23.225 C 11.5 g/m*3 23.23 C 9.81667 km/h
2752 20-05-2020 16:00:00 24.25 C 11.13 g/m*3 24.25 C 11.95833 km/h
2753 20-05-2020 17:00:00 24.525 C 11.04 g/m*3 24.53 C 11.68333 km/h
2754 20-05-2020 18:00:00 24.51667 C 10.85 g/m*3 24.52 C 8.75 km/h
2755 20-05-2020 19:00:00 23.55 C 10.82 g/m*3 23.55 C 8.88333 km/h
2756 20-05-2020 20:00:00 21.93333 C 10.78 g/m*3 21.93 C 4.8 km/h
2757 20-05-2020 21:00:00 19.30833 C 10.73 g/m*3 19.31 C 4.40833 km/h
2758 20-05-2020 22:00:00 16.49167 C 10.5 g/m*3 16.49 C 2.93333 km/h
2759 20-05-2020 23:00:00 15.35 C 10.25 g/m*3 15.35 C 0.93333 km/h
2760 21-05-2020 00:00:00 14.55 C 9.98 g/m*3 14.55 C 1.86667 km/h
2761 21-05-2020 01:00:00 14.6 C 9.89 g/m*3 14.6 C 2.66667 km/h
2762 21-05-2020 02:00:00 13.16667 C 9.63 g/m*3 13.17 C 4 km/h
2763 21-05-2020 03:00:00 12.43333 C 9.51 g/m*3 12.43 C 2.93333 km/h
2764 21-05-2020 04:00:00 11.41667 C 9.15 g/m*3 11.42 C 0.26667 km/h
2765 21-05-2020 05:00:00 10.575 C 8.91 g/m*3 10.58 C 0 km/h
2766 21-05-2020 06:00:00 10.25833 C 8.88 g/m*3 10.26 C 0 km/h
2767 21-05-2020 07:00:00 10.675 C 9.23 g/m*3 10.68 C 0 km/h
2768 21-05-2020 08:00:00 11.78333 C 9.99 g/m*3 11.78 C 0.4 km/h
2769 21-05-2020 09:00:00 13.89167 C 11.05 g/m*3 13.89 C 0.66667 km/h
2770 21-05-2020 10:00:00 17.70833 C 11.75 g/m*3 17.71 C 4.83333 km/h
2771 21-05-2020 11:00:00 21.23333 C 11.7 g/m*3 21.23 C 10.75833 km/h
2772 21-05-2020 12:00:00 22.15833 C 11.47 g/m*3 22.16 C 8.06667 km/h
2773 21-05-2020 13:00:00 23.24167 C 11.48 g/m*3 23.24 C 7.90833 km/h
2774 21-05-2020 14:00:00 24.625 C 11.76 g/m*3 24.63 C 7.525 km/h
2775 21-05-2020 15:00:00 26.85833 C 11.66 g/m*3 26.86 C 7.25833 km/h
Sensor: Nr:Datum:Temp:Abs-Feuchte:Windchill:Wind:
Aussen-T/F 2776 21-05-2020 16:00:00 28.06667 C 11.3 g/m*3 28.07 C 7.93333 km/h
2777 21-05-2020 17:00:00 28.7 C 10.83 g/m*3 28.7 C 7.93333 km/h
2778 21-05-2020 18:00:00 28.06667 C 10.62 g/m*3 28.07 C 7.65 km/h
2779 21-05-2020 19:00:00 28.08333 C 11.45 g/m*3 28.08 C 4.26667 km/h
2780 21-05-2020 20:00:00 25.30833 C 12.57 g/m*3 25.31 C 2.4 km/h
2781 21-05-2020 21:00:00 21.2 C 12.06 g/m*3 21.2 C 5.08333 km/h
2782 21-05-2020 22:00:00 19.1 C 11.87 g/m*3 19.1 C 5.075 km/h
2783 21-05-2020 23:00:00 18.675 C 11.71 g/m*3 18.68 C 2.8 km/h
2784 22-05-2020 00:00:00 17.55833 C 11.37 g/m*3 17.56 C 1.2 km/h
2785 22-05-2020 01:00:00 16.225 C 11.03 g/m*3 16.23 C 0 km/h
2786 22-05-2020 02:00:00 15.3 C 10.99 g/m*3 15.3 C 0 km/h
2787 22-05-2020 03:00:00 14.60833 C 10.76 g/m*3 14.61 C 0 km/h
2788 22-05-2020 04:00:00 13.58333 C 10.41 g/m*3 13.58 C 0 km/h
2789 22-05-2020 05:00:00 12.95 C 10.3 g/m*3 12.95 C 0 km/h
2790 22-05-2020 06:00:00 13.25 C 10.73 g/m*3 13.25 C 0 km/h
2791 22-05-2020 07:00:00 14.95 C 11.81 g/m*3 14.95 C 0 km/h
2792 22-05-2020 08:00:00 17.55833 C 12.5 g/m*3 17.56 C 3.86667 km/h
2793 22-05-2020 09:00:00 19.91667 C 12.96 g/m*3 19.92 C 6.175 km/h
2794 22-05-2020 10:00:00 21.65 C 13.66 g/m*3 21.65 C 1.06667 km/h
2795 22-05-2020 11:00:00 23.675 C 13.88 g/m*3 23.68 C 6.85 km/h
2796 22-05-2020 12:00:00 24.51667 C 13.65 g/m*3 24.52 C 7.64167 km/h
2797 22-05-2020 13:00:00 25.15833 C 14.19 g/m*3 25.16 C 6.05 km/h
2798 22-05-2020 14:00:00 26.25833 C 14.22 g/m*3 26.26 C 8.05 km/h
2799 22-05-2020 15:00:00 26.36667 C 13.5 g/m*3 26.37 C 11.96667 km/h
2800 22-05-2020 16:00:00 26.08333 C 13.55 g/m*3 26.08 C 12.23333 km/h
Sensor: Nr:Datum:Temp:Abs-Feuchte:Windchill:Wind:
Aussen-T/F 2801 22-05-2020 17:00:00 26.23333 C 13.89 g/m*3 26.23 C 7.375 km/h
2802 22-05-2020 18:00:00 25.11667 C 14.48 g/m*3 25.12 C 7.79167 km/h
2803 22-05-2020 19:00:00 24.275 C 14.16 g/m*3 24.28 C 7.65833 km/h
2804 22-05-2020 20:00:00 21.25833 C 13.84 g/m*3 21.26 C 13.15833 km/h
2805 22-05-2020 21:00:00 18.35 C 13.6 g/m*3 18.35 C 3.08333 km/h
2806 22-05-2020 22:00:00 17.5 C 13.73 g/m*3 17.5 C 1.86667 km/h
2807 22-05-2020 23:00:00 17.09167 C 13.63 g/m*3 17.09 C 2.4 km/h
2808 23-05-2020 00:00:00 16.7 C 13.45 g/m*3 16.7 C 1.86667 km/h
2809 23-05-2020 01:00:00 16.125 C 12.95 g/m*3 16.13 C 1.86667 km/h
2810 23-05-2020 02:00:00 14.2 C 11.47 g/m*3 14.2 C 4.80833 km/h
2811 23-05-2020 03:00:00 13.65833 C 11.22 g/m*3 13.66 C 4.68333 km/h
2812 23-05-2020 04:00:00 13.66667 C 11.32 g/m*3 13.67 C 4.95 km/h
2813 23-05-2020 05:00:00 12.01667 C 10.11 g/m*3 12.02 C 8.75833 km/h
2814 23-05-2020 06:00:00 11.6 C 9.94 g/m*3 11.6 C 5.23333 km/h
2815 23-05-2020 07:00:00 12.35 C 10.48 g/m*3 12.35 C 2.53333 km/h
2816 23-05-2020 08:00:00 13.06667 C 10.94 g/m*3 13.07 C 1.6 km/h
2817 23-05-2020 09:00:00 12.975 C 10.76 g/m*3 12.98 C 3.875 km/h
2818 23-05-2020 10:00:00 12.5 C 10.04 g/m*3 12.5 C 8.16667 km/h
2819 23-05-2020 11:00:00 11.89167 C 9.74 g/m*3 11.89 C 7.51667 km/h
2820 23-05-2020 12:00:00 12.325 C 9.72 g/m*3 12.33 C 7.51667 km/h
2821 23-05-2020 13:00:00 12.91667 C 9.88 g/m*3 12.92 C 8.6 km/h
2822 23-05-2020 14:00:00 13.71667 C 9.9 g/m*3 13.72 C 11.825 km/h
2823 23-05-2020 15:00:00 14.925 C 10.02 g/m*3 14.93 C 14.23333 km/h
2824 23-05-2020 16:00:00 15.95833 C 9.83 g/m*3 15.96 C 11.425 km/h
2825 23-05-2020 17:00:00 15.81667 C 10.05 g/m*3 15.82 C 12.63333 km/h
Sensor: Nr:Datum:Temp:Abs-Feuchte:Windchill:Wind:
Aussen-T/F 2826 23-05-2020 18:00:00 15.925 C 10.18 g/m*3 15.93 C 11.69167 km/h
2827 23-05-2020 19:00:00 15.40833 C 9.96 g/m*3 15.41 C 11.03333 km/h
2828 23-05-2020 20:00:00 14.66667 C 9.81 g/m*3 14.67 C 10.35 km/h
2829 23-05-2020 21:00:00 13.24167 C 9.35 g/m*3 13.24 C 8.45833 km/h
2830 23-05-2020 22:00:00 11.91667 C 8.97 g/m*3 11.92 C 6.84167 km/h
2831 23-05-2020 23:00:00 11.05 C 8.78 g/m*3 11.05 C 5.23333 km/h
2832 24-05-2020 00:00:00 10.48333 C 8.62 g/m*3 10.48 C 4.00833 km/h
2833 24-05-2020 01:00:00 10.13333 C 8.32 g/m*3 10.13 C 4.14167 km/h
2834 24-05-2020 02:00:00 10.18333 C 7.87 g/m*3 9.26 C 7.8 km/h
2835 24-05-2020 03:00:00 10.46667 C 7.77 g/m*3 9.32 C 9.26667 km/h
2836 24-05-2020 04:00:00 10.30833 C 7.6 g/m*3 9.2 C 8.875 km/h
2837 24-05-2020 05:00:00 10.21667 C 7.6 g/m*3 8.51 C 12.5 km/h
2838 24-05-2020 06:00:00 10.25833 C 7.76 g/m*3 9.35 C 7.8 km/h
2839 24-05-2020 07:00:00 10.3 C 7.86 g/m*3 8.98 C 10.075 km/h
2840 24-05-2020 08:00:00 11.14167 C 8.16 g/m*3 11.14 C 9.55 km/h
2841 24-05-2020 09:00:00 12.74167 C 8.58 g/m*3 12.74 C 13.15833 km/h
2842 24-05-2020 10:00:00 14.41667 C 8.86 g/m*3 14.42 C 13.3 km/h
2843 24-05-2020 11:00:00 15.55 C 8.19 g/m*3 15.55 C 11.69167 km/h
2844 24-05-2020 12:00:00 16.83333 C 8.02 g/m*3 16.83 C 13.7 km/h
2845 24-05-2020 13:00:00 17.54167 C 8.06 g/m*3 17.54 C 12.23333 km/h
2846 24-05-2020 14:00:00 17.00833 C 8.16 g/m*3 17.01 C 11.83333 km/h
2847 24-05-2020 15:00:00 16.89167 C 8.46 g/m*3 16.89 C 12.1 km/h
2848 24-05-2020 16:00:00 16.65833 C 8.85 g/m*3 16.66 C 13.43333 km/h
2849 24-05-2020 17:00:00 16.64167 C 9.15 g/m*3 16.64 C 9.68333 km/h
2850 24-05-2020 18:00:00 16.14167 C 9.7 g/m*3 16.14 C 8.06667 km/h
Sensor: Nr:Datum:Temp:Abs-Feuchte:Windchill:Wind:
Aussen-T/F 2851 24-05-2020 19:00:00 14.50833 C 10.45 g/m*3 14.51 C 2.26667 km/h
2852 24-05-2020 20:00:00 14.75 C 10.33 g/m*3 14.75 C 6.175 km/h
2853 24-05-2020 21:00:00 14.65833 C 10.17 g/m*3 14.66 C 3.88333 km/h
2854 24-05-2020 22:00:00 14.13333 C 10.15 g/m*3 14.13 C 3.46667 km/h
2855 24-05-2020 23:00:00 14.08333 C 10.15 g/m*3 14.08 C 3.74167 km/h
2856 25-05-2020 00:00:00 13.525 C 10.14 g/m*3 13.53 C 1.46667 km/h
2857 25-05-2020 01:00:00 13 C 10.05 g/m*3 13 C 0.8 km/h
2858 25-05-2020 02:00:00 12.93333 C 10.05 g/m*3 12.93 C 1.86667 km/h
2859 25-05-2020 03:00:00 13.275 C 10.11 g/m*3 13.28 C 2.26667 km/h
2860 25-05-2020 04:00:00 13.30833 C 10.07 g/m*3 13.31 C 2.4 km/h
2861 25-05-2020 05:00:00 13.24167 C 10.06 g/m*3 13.24 C 1.86667 km/h
2862 25-05-2020 06:00:00 13.3 C 10.16 g/m*3 13.3 C 1.06667 km/h
2863 25-05-2020 07:00:00 13.8 C 10.32 g/m*3 13.8 C 3.61667 km/h
2864 25-05-2020 08:00:00 14.68333 C 10.43 g/m*3 14.68 C 6.45 km/h
2865 25-05-2020 09:00:00 15.45 C 10.53 g/m*3 15.45 C 8.45833 km/h
2866 25-05-2020 10:00:00 15.89167 C 10.5 g/m*3 15.89 C 11.56667 km/h
2867 25-05-2020 11:00:00 16.48333 C 10.54 g/m*3 16.48 C 9.69167 km/h
2868 25-05-2020 12:00:00 17.05833 C 10.49 g/m*3 17.06 C 11.43333 km/h
2869 25-05-2020 13:00:00 17.56667 C 10.38 g/m*3 17.57 C 9.7 km/h
2870 25-05-2020 14:00:00 18.04167 C 10.18 g/m*3 18.04 C 11.025 km/h
2871 25-05-2020 15:00:00 18.49167 C 10.19 g/m*3 18.49 C 11.68333 km/h
2872 25-05-2020 16:00:00 19.775 C 10.15 g/m*3 19.77 C 15.03333 km/h
2873 25-05-2020 17:00:00 20.46667 C 10.29 g/m*3 20.47 C 12.35833 km/h
2874 25-05-2020 18:00:00 20.41667 C 10.14 g/m*3 20.42 C 11.3 km/h
2875 25-05-2020 19:00:00 20.03333 C 9.62 g/m*3 20.03 C 11.825 km/h
Sensor: Nr:Datum:Temp:Abs-Feuchte:Windchill:Wind:
Aussen-T/F 2876 25-05-2020 20:00:00 18.81667 C 9.38 g/m*3 18.82 C 6.3 km/h
2877 25-05-2020 21:00:00 16.50833 C 9.25 g/m*3 16.51 C 1.06667 km/h
2878 25-05-2020 22:00:00 13.975 C 9.1 g/m*3 13.98 C 1.06667 km/h
2879 25-05-2020 23:00:00 12.48333 C 8.84 g/m*3 12.48 C 0.13333 km/h
2880 26-05-2020 00:00:00 11.04167 C 8.56 g/m*3 11.04 C 0 km/h
2881 26-05-2020 01:00:00 9.83333 C 8.24 g/m*3 9.83 C 0 km/h
2882 26-05-2020 02:00:00 8.75833 C 7.9 g/m*3 8.76 C 0 km/h
2883 26-05-2020 03:00:00 8.13333 C 7.73 g/m*3 8.13 C 0 km/h
2884 26-05-2020 04:00:00 7.71667 C 7.62 g/m*3 7.72 C 0 km/h
2885 26-05-2020 05:00:00 7.34167 C 7.47 g/m*3 7.34 C 0 km/h
2886 26-05-2020 06:00:00 7.3 C 7.51 g/m*3 7.3 C 0 km/h
2887 26-05-2020 07:00:00 7.74167 C 7.76 g/m*3 7.74 C 0 km/h
2888 26-05-2020 08:00:00 8.825 C 8.37 g/m*3 8.82 C 0 km/h
2889 26-05-2020 09:00:00 10.41667 C 9.23 g/m*3 10.42 C 0.13333 km/h
2890 26-05-2020 10:00:00 13.96667 C 9.69 g/m*3 13.97 C 4.55833 km/h
2891 26-05-2020 11:00:00 16.83333 C 9.13 g/m*3 16.83 C 7.51667 km/h
2892 26-05-2020 12:00:00 18.05 C 8.61 g/m*3 18.05 C 8.6 km/h
2893 26-05-2020 13:00:00 18.89167 C 8.45 g/m*3 18.89 C 10.49167 km/h
2894 26-05-2020 14:00:00 19.84167 C 8.56 g/m*3 19.84 C 11.28333 km/h
2895 26-05-2020 15:00:00 21.475 C 8.77 g/m*3 21.48 C 10.63333 km/h
2896 26-05-2020 16:00:00 22.18333 C 8.99 g/m*3 22.18 C 9.93333 km/h
2897 26-05-2020 17:00:00 22.55 C 9.21 g/m*3 22.55 C 8.71667 km/h
2898 26-05-2020 18:00:00 22.99167 C 9.28 g/m*3 22.99 C 9.81667 km/h
2899 26-05-2020 19:00:00 21.80833 C 8.91 g/m*3 21.81 C 8.875 km/h
2900 26-05-2020 20:00:00 20.13333 C 9.22 g/m*3 20.13 C 4.825 km/h
Sensor: Nr:Datum:Temp:Abs-Feuchte:Windchill:Wind:
Aussen-T/F 2901 26-05-2020 21:00:00 16.51667 C 8.97 g/m*3 16.52 C 3.73333 km/h
2902 26-05-2020 22:00:00 14.61667 C 8.79 g/m*3 14.62 C 3.6 km/h
2903 26-05-2020 23:00:00 13.05833 C 8.66 g/m*3 13.06 C 0 km/h
2904 27-05-2020 00:00:00 11.75833 C 8.49 g/m*3 11.76 C 0 km/h
2905 27-05-2020 01:00:00 10.675 C 8.2 g/m*3 10.68 C 0 km/h
2906 27-05-2020 02:00:00 9.75 C 8.01 g/m*3 9.75 C 0 km/h
2907 27-05-2020 03:00:00 9.25833 C 7.92 g/m*3 9.26 C 0 km/h
2908 27-05-2020 04:00:00 8.6 C 7.77 g/m*3 8.6 C 0 km/h
2909 27-05-2020 05:00:00 7.93333 C 7.55 g/m*3 7.93 C 0 km/h
2910 27-05-2020 06:00:00 7.98333 C 7.69 g/m*3 7.98 C 0 km/h
2911 27-05-2020 07:00:00 8.35833 C 7.95 g/m*3 8.36 C 0 km/h
2912 27-05-2020 08:00:00 9.49167 C 8.57 g/m*3 9.49 C 0 km/h
2913 27-05-2020 09:00:00 11.275 C 9.48 g/m*3 11.28 C 0 km/h
2914 27-05-2020 10:00:00 15.03333 C 10.25 g/m*3 15.03 C 0.93333 km/h
2915 27-05-2020 11:00:00 19.08333 C 8.71 g/m*3 19.08 C 6.56667 km/h
2916 27-05-2020 12:00:00 20.35833 C 7.88 g/m*3 20.36 C 9.28333 km/h
2917 27-05-2020 13:00:00 21.125 C 7.84 g/m*3 21.13 C 8.33333 km/h
2918 27-05-2020 14:00:00 22.14167 C 7.55 g/m*3 22.14 C 8.48333 km/h
2919 27-05-2020 15:00:00 24 C 6.91 g/m*3 24 C 8.06667 km/h
2920 27-05-2020 16:00:00 25.45 C 7.52 g/m*3 25.45 C 7.925 km/h
2921 27-05-2020 17:00:00 26.05833 C 8.16 g/m*3 26.06 C 8.06667 km/h
2922 27-05-2020 18:00:00 25.3 C 8.6 g/m*3 25.3 C 5.23333 km/h
2923 27-05-2020 19:00:00 23.89167 C 8.69 g/m*3 23.89 C 6.71667 km/h
2924 27-05-2020 20:00:00 22.9 C 8.99 g/m*3 22.9 C 6.85 km/h
2925 27-05-2020 21:00:00 20.225 C 9.51 g/m*3 20.23 C 4.40833 km/h
Sensor: Nr:Datum:Temp:Abs-Feuchte:Windchill:Wind:
Aussen-T/F 2926 27-05-2020 22:00:00 18.30833 C 9.62 g/m*3 18.31 C 2.66667 km/h
2927 27-05-2020 23:00:00 16.70833 C 9.82 g/m*3 16.71 C 3.6 km/h
2928 28-05-2020 00:00:00 15.59167 C 9.86 g/m*3 15.59 C 2.13333 km/h
2929 28-05-2020 01:00:00 15.71667 C 9.91 g/m*3 15.72 C 2.8 km/h
2930 28-05-2020 02:00:00 15.44167 C 10 g/m*3 15.44 C 0.8 km/h
2931 28-05-2020 03:00:00 15.21667 C 10.11 g/m*3 15.22 C 1.33333 km/h
2932 28-05-2020 04:00:00 15.13333 C 9.86 g/m*3 15.13 C 2.40833 km/h
2933 28-05-2020 05:00:00 13.75 C 8.77 g/m*3 13.75 C 2.93333 km/h
2934 28-05-2020 06:00:00 12.64167 C 8.44 g/m*3 12.64 C 2.8 km/h
2935 28-05-2020 07:00:00 12.56667 C 8.36 g/m*3 12.57 C 3.61667 km/h
2936 28-05-2020 08:00:00 13.58333 C 8.38 g/m*3 13.58 C 8.60833 km/h
2937 28-05-2020 09:00:00 14.50833 C 8.68 g/m*3 14.51 C 4.80833 km/h
2938 28-05-2020 10:00:00 16.475 C 8.62 g/m*3 16.48 C 5.21667 km/h
2939 28-05-2020 11:00:00 18.35 C 7.02 g/m*3 18.35 C 10.49167 km/h
2940 28-05-2020 12:00:00 18.95 C 7.22 g/m*3 18.95 C 11.81667 km/h
2941 28-05-2020 13:00:00 19.69167 C 7.19 g/m*3 19.69 C 10.06667 km/h
2942 28-05-2020 14:00:00 20.875 C 6.7 g/m*3 20.88 C 12.48333 km/h
2943 28-05-2020 15:00:00 22.25833 C 6.25 g/m*3 22.26 C 14.36667 km/h
2944 28-05-2020 16:00:00 23.41667 C 5.86 g/m*3 23.42 C 15.56667 km/h
2945 28-05-2020 17:00:00 23.61667 C 5.64 g/m*3 23.62 C 15.56667 km/h
2946 28-05-2020 18:00:00 23.45833 C 5.49 g/m*3 23.46 C 15.7 km/h
2947 28-05-2020 19:00:00 22.11667 C 5.58 g/m*3 22.12 C 16.63333 km/h
2948 28-05-2020 20:00:00 20.70833 C 5.73 g/m*3 20.71 C 12.5 km/h
2949 28-05-2020 21:00:00 18.46667 C 6.29 g/m*3 18.47 C 5.24167 km/h
2950 28-05-2020 22:00:00 14.53333 C 6.66 g/m*3 14.53 C 0.93333 km/h
Sensor: Nr:Datum:Temp:Abs-Feuchte:Windchill:Wind:
Aussen-T/F 2951 28-05-2020 23:00:00 12.725 C 6.75 g/m*3 12.73 C 3.06667 km/h
2952 29-05-2020 00:00:00 11.64167 C 6.84 g/m*3 11.64 C 2.13333 km/h
2953 29-05-2020 01:00:00 10.325 C 6.81 g/m*3 10.33 C 0.13333 km/h
2954 29-05-2020 02:00:00 9.21667 C 6.76 g/m*3 9.22 C 0 km/h
2955 29-05-2020 03:00:00 8.15833 C 6.67 g/m*3 8.16 C 0 km/h
2956 29-05-2020 04:00:00 7.36667 C 6.63 g/m*3 7.37 C 0 km/h
2957 29-05-2020 05:00:00 6.81667 C 6.61 g/m*3 6.82 C 0.13333 km/h
2958 29-05-2020 06:00:00 6.75 C 6.74 g/m*3 6.75 C 0 km/h
2959 29-05-2020 07:00:00 7.325 C 7.12 g/m*3 7.33 C 0 km/h
2960 29-05-2020 08:00:00 8.75833 C 7.78 g/m*3 8.76 C 0 km/h
2961 29-05-2020 09:00:00 11.33333 C 8.45 g/m*3 11.33 C 0.66667 km/h
2962 29-05-2020 10:00:00 16.325 C 8.46 g/m*3 16.33 C 6.95833 km/h
2963 29-05-2020 11:00:00 18.86667 C 7.68 g/m*3 18.87 C 13.025 km/h
2964 29-05-2020 12:00:00 19.23333 C 7.01 g/m*3 19.23 C 12.89167 km/h
2965 29-05-2020 13:00:00 20.00833 C 6.79 g/m*3 20.01 C 14.36667 km/h
2966 29-05-2020 14:00:00 20.7 C 6.96 g/m*3 20.7 C 13.96667 km/h
2967 29-05-2020 15:00:00 22.11667 C 7.08 g/m*3 22.12 C 12.225 km/h
2968 29-05-2020 16:00:00 23.10833 C 7 g/m*3 23.11 C 12.23333 km/h
2969 29-05-2020 17:00:00 23.25833 C 7.02 g/m*3 23.26 C 9.66667 km/h
2970 29-05-2020 18:00:00 23.49167 C 6.5 g/m*3 23.49 C 13.83333 km/h
2971 29-05-2020 19:00:00 22.7 C 5.96 g/m*3 22.7 C 10.225 km/h
2972 29-05-2020 20:00:00 21.45833 C 6.02 g/m*3 21.46 C 5.225 km/h
2973 29-05-2020 21:00:00 17.75 C 6.81 g/m*3 17.75 C 3.06667 km/h
2974 29-05-2020 22:00:00 14.65833 C 6.38 g/m*3 14.66 C 4.95 km/h
2975 29-05-2020 23:00:00 13.61667 C 6.67 g/m*3 13.62 C 4.275 km/h
Sensor: Nr:Datum:Temp:Abs-Feuchte:Windchill:Wind:
Aussen-T/F 2976 30-05-2020 00:00:00 13.125 C 6.94 g/m*3 13.13 C 2.26667 km/h
2977 30-05-2020 01:00:00 12.29167 C 6.86 g/m*3 12.29 C 2.4 km/h
2978 30-05-2020 02:00:00 11.275 C 6.8 g/m*3 11.28 C 1.86667 km/h
2979 30-05-2020 03:00:00 10.55833 C 6.71 g/m*3 10.56 C 2.66667 km/h
2980 30-05-2020 04:00:00 9.63333 C 6.69 g/m*3 9.63 C 2.4 km/h
2981 30-05-2020 05:00:00 8.675 C 6.69 g/m*3 8.68 C 0 km/h
2982 30-05-2020 06:00:00 8.11667 C 6.89 g/m*3 8.12 C 0 km/h
2983 30-05-2020 07:00:00 8.61667 C 7.34 g/m*3 8.62 C 0 km/h
2984 30-05-2020 08:00:00 10.175 C 7.97 g/m*3 10.18 C 0.13333 km/h
2985 30-05-2020 09:00:00 13.26667 C 8.38 g/m*3 13.27 C 3.36667 km/h
2986 30-05-2020 10:00:00 18.24167 C 7.8 g/m*3 18.24 C 9.825 km/h
2987 30-05-2020 11:00:00 19.325 C 6.78 g/m*3 19.33 C 20.24167 km/h
2988 30-05-2020 12:00:00 19.71667 C 6.81 g/m*3 19.72 C 15.7 km/h
2989 30-05-2020 13:00:00 20.275 C 6.89 g/m*3 20.27 C 18.36667 km/h
2990 30-05-2020 14:00:00 21.1 C 6.76 g/m*3 21.1 C 16.23333 km/h
2991 30-05-2020 15:00:00 22.05 C 6.97 g/m*3 22.05 C 15.15833 km/h
2992 30-05-2020 16:00:00 22.44167 C 7.05 g/m*3 22.44 C 19.7 km/h
2993 30-05-2020 17:00:00 22.36667 C 6.81 g/m*3 22.37 C 18.23333 km/h
2994 30-05-2020 18:00:00 21.54167 C 7.07 g/m*3 21.54 C 11.14167 km/h
2995 30-05-2020 19:00:00 20.35 C 7.35 g/m*3 20.35 C 8.2 km/h
2996 30-05-2020 20:00:00 19.51667 C 7.14 g/m*3 19.52 C 3.89167 km/h
2997 30-05-2020 21:00:00 16.59167 C 6.99 g/m*3 16.59 C 1.6 km/h
2998 30-05-2020 22:00:00 14.08333 C 6.83 g/m*3 14.08 C 3.2 km/h
2999 30-05-2020 23:00:00 13.325 C 6.74 g/m*3 13.33 C 4.53333 km/h
3000 31-05-2020 00:00:00 12.18333 C 6.84 g/m*3 12.18 C 3.2 km/h
Sensor: Nr:Datum:Temp:Abs-Feuchte:Windchill:Wind:
Aussen-T/F 3001 31-05-2020 01:00:00 10.56667 C 6.89 g/m*3 10.57 C 0.8 km/h
3002 31-05-2020 02:00:00 9.41667 C 6.84 g/m*3 9.42 C 0 km/h
3003 31-05-2020 03:00:00 8.5 C 6.83 g/m*3 8.5 C 0 km/h
3004 31-05-2020 04:00:00 8.9 C 7.15 g/m*3 8.9 C 0 km/h
3005 31-05-2020 05:00:00 9.11667 C 7.31 g/m*3 9.12 C 0.13333 km/h
3006 31-05-2020 06:00:00 8.63333 C 7.19 g/m*3 8.63 C 0.26667 km/h
3007 31-05-2020 07:00:00 8.4 C 7.44 g/m*3 8.4 C 0 km/h
3008 31-05-2020 08:00:00 10.375 C 8.24 g/m*3 10.38 C 0.13333 km/h
3009 31-05-2020 09:00:00 12.8 C 8.55 g/m*3 12.8 C 2.41667 km/h
3010 31-05-2020 10:00:00 16.09167 C 7.68 g/m*3 16.09 C 10.875 km/h
3011 31-05-2020 11:00:00 17.45 C 7.47 g/m*3 17.45 C 13.16667 km/h
3012 31-05-2020 12:00:00 17.825 C 7.16 g/m*3 17.83 C 12.76667 km/h
3013 31-05-2020 13:00:00 18.775 C 6.9 g/m*3 18.77 C 12.75833 km/h
3014 31-05-2020 14:00:00 19.7 C 7.16 g/m*3 19.7 C 17.03333 km/h
3015 31-05-2020 15:00:00 20.88333 C 7.73 g/m*3 20.88 C 15.43333 km/h
3016 31-05-2020 16:00:00 21.35 C 7.93 g/m*3 21.35 C 14.49167 km/h
3017 31-05-2020 17:00:00 21.60833 C 7.72 g/m*3 21.61 C 15.425 km/h
3018 31-05-2020 18:00:00 21.86667 C 7.66 g/m*3 21.87 C 14.36667 km/h
3019 31-05-2020 19:00:00 21.2 C 7.63 g/m*3 21.2 C 11.43333 km/h
3020 31-05-2020 20:00:00 20.3 C 7.89 g/m*3 20.3 C 7.24167 km/h
3021 31-05-2020 21:00:00 17.84167 C 8.18 g/m*3 17.84 C 2.4 km/h
3022 31-05-2020 22:00:00 15.11667 C 8.01 g/m*3 15.12 C 2 km/h
3023 31-05-2020 23:00:00 13.88333 C 7.94 g/m*3 13.88 C 1.33333 km/h
3024 01-06-2020 00:00:00 12.99167 C 7.88 g/m*3 12.99 C 3.2 km/h
3025 01-06-2020 01:00:00 11.89167 C 7.84 g/m*3 11.89 C 1.33333 km/h
Sensor: Nr:Datum:Temp:Abs-Feuchte:Windchill:Wind:
Aussen-T/F 3026 01-06-2020 02:00:00 10.68333 C 7.72 g/m*3 10.68 C 0 km/h
3027 01-06-2020 03:00:00 9.95 C 7.64 g/m*3 9.95 C 0 km/h
3028 01-06-2020 04:00:00 9.19167 C 7.52 g/m*3 9.19 C 0 km/h
3029 01-06-2020 05:00:00 8.53333 C 7.44 g/m*3 8.53 C 0 km/h
3030 01-06-2020 06:00:00 8.45 C 7.6 g/m*3 8.45 C 0 km/h
3031 01-06-2020 07:00:00 9.125 C 8.1 g/m*3 9.13 C 0 km/h
3032 01-06-2020 08:00:00 10.675 C 8.9 g/m*3 10.68 C 0.4 km/h
3033 01-06-2020 09:00:00 14.175 C 9.59 g/m*3 14.18 C 3.20833 km/h
3034 01-06-2020 10:00:00 18.43333 C 9.77 g/m*3 18.43 C 6.975 km/h
3035 01-06-2020 11:00:00 21.175 C 9.31 g/m*3 21.18 C 7.65 km/h
3036 01-06-2020 12:00:00 22.375 C 9.22 g/m*3 22.38 C 10.225 km/h
3037 01-06-2020 13:00:00 23.23333 C 9.34 g/m*3 23.23 C 10.88333 km/h
3038 01-06-2020 14:00:00 24.26667 C 9.15 g/m*3 24.27 C 11.29167 km/h
3039 01-06-2020 15:00:00 25.64167 C 8.91 g/m*3 25.64 C 12.5 km/h
3040 01-06-2020 16:00:00 26.86667 C 8.83 g/m*3 26.87 C 12.35833 km/h
3041 01-06-2020 17:00:00 26.975 C 8.91 g/m*3 26.98 C 13.3 km/h
3042 01-06-2020 18:00:00 27.04167 C 8.79 g/m*3 27.04 C 12.9 km/h
3043 01-06-2020 19:00:00 26.13333 C 8.77 g/m*3 26.13 C 12.63333 km/h
3044 01-06-2020 20:00:00 25.04167 C 9.56 g/m*3 25.04 C 6.7 km/h
3045 01-06-2020 21:00:00 21.15833 C 8.92 g/m*3 21.16 C 4.28333 km/h
3046 01-06-2020 22:00:00 18.5 C 8.31 g/m*3 18.5 C 4.4 km/h
3047 01-06-2020 23:00:00 16.43333 C 8.45 g/m*3 16.43 C 2 km/h
3048 02-06-2020 00:00:00 16.1 C 8.53 g/m*3 16.1 C 1.6 km/h
3049 02-06-2020 01:00:00 15.44167 C 8.48 g/m*3 15.44 C 2.8 km/h
3050 02-06-2020 02:00:00 14.21667 C 8.52 g/m*3 14.22 C 1.33333 km/h
Sensor: Nr:Datum:Temp:Abs-Feuchte:Windchill:Wind:
Aussen-T/F 3051 02-06-2020 03:00:00 12.66667 C 8.44 g/m*3 12.67 C 0 km/h
3052 02-06-2020 04:00:00 11.31667 C 8.34 g/m*3 11.32 C 0 km/h
3053 02-06-2020 05:00:00 10.60833 C 8.3 g/m*3 10.61 C 0.26667 km/h
3054 02-06-2020 06:00:00 10.6 C 8.56 g/m*3 10.6 C 0.13333 km/h
3055 02-06-2020 07:00:00 11.075 C 8.92 g/m*3 11.08 C 0.26667 km/h
3056 02-06-2020 08:00:00 12.39167 C 9.57 g/m*3 12.39 C 0 km/h
3057 02-06-2020 09:00:00 14.75833 C 10.37 g/m*3 14.76 C 0 km/h
3058 02-06-2020 10:00:00 19.225 C 10.53 g/m*3 19.23 C 4.025 km/h
3059 02-06-2020 11:00:00 23 C 9.51 g/m*3 23 C 8.60833 km/h
3060 02-06-2020 12:00:00 23.95833 C 9.35 g/m*3 23.96 C 11.025 km/h
3061 02-06-2020 13:00:00 25.10833 C 9.53 g/m*3 25.11 C 9.26667 km/h
3062 02-06-2020 14:00:00 26.29167 C 9.28 g/m*3 26.29 C 12.35833 km/h
3063 02-06-2020 15:00:00 27.96667 C 9.07 g/m*3 27.97 C 9.8 km/h
3064 02-06-2020 16:00:00 29.26667 C 8.84 g/m*3 29.27 C 9.28333 km/h
3065 02-06-2020 17:00:00 30.33333 C 8.57 g/m*3 30.33 C 6.69167 km/h
3066 02-06-2020 18:00:00 28.85 C 8.55 g/m*3 28.85 C 7.11667 km/h
3067 02-06-2020 19:00:00 28.41667 C 9.6 g/m*3 28.42 C 4.01667 km/h
3068 02-06-2020 20:00:00 24.4 C 10.07 g/m*3 24.4 C 5.6 km/h
3069 02-06-2020 21:00:00 21.53333 C 9.27 g/m*3 21.53 C 5.74167 km/h
3070 02-06-2020 22:00:00 19.28333 C 9.45 g/m*3 19.28 C 1.2 km/h
3071 02-06-2020 23:00:00 17.6 C 9.55 g/m*3 17.6 C 0 km/h
3072 03-06-2020 00:00:00 16.41667 C 9.35 g/m*3 16.42 C 0 km/h
3073 03-06-2020 01:00:00 15.61667 C 9.54 g/m*3 15.62 C 2.675 km/h
3074 03-06-2020 02:00:00 15.58333 C 9.82 g/m*3 15.58 C 0.93333 km/h
3075 03-06-2020 03:00:00 14.60833 C 9.81 g/m*3 14.61 C 0.26667 km/h
Sensor: Nr:Datum:Temp:Abs-Feuchte:Windchill:Wind:
Aussen-T/F 3076 03-06-2020 04:00:00 14.075 C 9.82 g/m*3 14.08 C 0 km/h
3077 03-06-2020 05:00:00 14 C 9.85 g/m*3 14 C 0.13333 km/h
3078 03-06-2020 06:00:00 13.65 C 9.89 g/m*3 13.65 C 0 km/h
3079 03-06-2020 07:00:00 14.20833 C 10.52 g/m*3 14.21 C 0 km/h
3080 03-06-2020 08:00:00 15.79167 C 11.26 g/m*3 15.79 C 0.26667 km/h
3081 03-06-2020 09:00:00 18.18333 C 11.15 g/m*3 18.18 C 0.93333 km/h
3082 03-06-2020 10:00:00 20.725 C 10.74 g/m*3 20.73 C 2.66667 km/h
3083 03-06-2020 11:00:00 23.15833 C 9.71 g/m*3 23.16 C 5.49167 km/h
3084 03-06-2020 12:00:00 24.21667 C 9.51 g/m*3 24.22 C 7.10833 km/h
3085 03-06-2020 13:00:00 25.38333 C 9.41 g/m*3 25.38 C 9.16667 km/h
3086 03-06-2020 14:00:00 23.54167 C 9.43 g/m*3 23.54 C 12.35 km/h
3087 03-06-2020 15:00:00 24.125 C 9.7 g/m*3 24.13 C 7.25 km/h
3088 03-06-2020 16:00:00 26.66667 C 9.22 g/m*3 26.67 C 7.1 km/h
3089 03-06-2020 17:00:00 26.85 C 9.53 g/m*3 26.85 C 6.58333 km/h
3090 03-06-2020 18:00:00 25.325 C 9.57 g/m*3 25.33 C 4.80833 km/h
3091 03-06-2020 19:00:00 25.55 C 10.07 g/m*3 25.55 C 3.74167 km/h
3092 03-06-2020 20:00:00 24.35 C 9.88 g/m*3 24.35 C 3.46667 km/h
3093 03-06-2020 21:00:00 21.14167 C 10.33 g/m*3 21.14 C 4.4 km/h
3094 03-06-2020 22:00:00 18.875 C 10.19 g/m*3 18.88 C 4.275 km/h
3095 03-06-2020 23:00:00 17.15833 C 10.27 g/m*3 17.16 C 2.4 km/h
3096 04-06-2020 00:00:00 18.2 C 11.22 g/m*3 18.2 C 8.6 km/h
3097 04-06-2020 01:00:00 17.51667 C 11.99 g/m*3 17.52 C 9.95833 km/h
3098 04-06-2020 02:00:00 15.65 C 11.93 g/m*3 15.65 C 6.84167 km/h
3099 04-06-2020 03:00:00 14.91667 C 11.82 g/m*3 14.92 C 0.66667 km/h
3100 04-06-2020 04:00:00 14.79167 C 11.9 g/m*3 14.79 C 1.46667 km/h
Sensor: Nr:Datum:Temp:Abs-Feuchte:Windchill:Wind:
Aussen-T/F 3101 04-06-2020 05:00:00 14.54167 C 11.73 g/m*3 14.54 C 0.93333 km/h
3102 04-06-2020 06:00:00 14.3 C 11.67 g/m*3 14.3 C 0 km/h
3103 04-06-2020 07:00:00 14.46667 C 11.82 g/m*3 14.47 C 0 km/h
3104 04-06-2020 08:00:00 14.625 C 12.03 g/m*3 14.63 C 0 km/h
3105 04-06-2020 09:00:00 14.93333 C 12.26 g/m*3 14.93 C 0 km/h
3106 04-06-2020 10:00:00 15.125 C 12.4 g/m*3 15.13 C 0.26667 km/h
3107 04-06-2020 11:00:00 15.8 C 12.92 g/m*3 15.8 C 1.06667 km/h
3108 04-06-2020 12:00:00 15.80833 C 12.68 g/m*3 15.81 C 2.26667 km/h
3109 04-06-2020 13:00:00 16.41667 C 12.45 g/m*3 16.42 C 5.49167 km/h
3110 04-06-2020 14:00:00 15.34167 C 11.95 g/m*3 15.34 C 4.41667 km/h
3111 04-06-2020 15:00:00 15.19167 C 11.92 g/m*3 15.19 C 7.11667 km/h
3112 04-06-2020 16:00:00 15.1 C 11.69 g/m*3 15.1 C 7.65833 km/h
3113 04-06-2020 17:00:00 14.625 C 11.19 g/m*3 14.63 C 11.675 km/h
3114 04-06-2020 18:00:00 13.65 C 10.59 g/m*3 13.65 C 6.03333 km/h
3115 04-06-2020 19:00:00 13.14167 C 10.57 g/m*3 13.14 C 1.73333 km/h
3116 04-06-2020 20:00:00 12.75 C 10.33 g/m*3 12.75 C 3.475 km/h
3117 04-06-2020 21:00:00 12.39167 C 9.96 g/m*3 12.39 C 5.08333 km/h
3118 04-06-2020 22:00:00 11.69167 C 9.68 g/m*3 11.69 C 5.075 km/h
3119 04-06-2020 23:00:00 11.16667 C 9.51 g/m*3 11.17 C 4.66667 km/h
3120 05-06-2020 00:00:00 11.18333 C 9.38 g/m*3 11.18 C 4.95 km/h
3121 05-06-2020 01:00:00 11.05 C 9.05 g/m*3 11.05 C 4.95 km/h
3122 05-06-2020 02:00:00 11 C 8.62 g/m*3 10.75 C 5.5 km/h
3123 05-06-2020 03:00:00 10.53333 C 8.54 g/m*3 10.53 C 2 km/h
3124 05-06-2020 04:00:00 9.48333 C 8.16 g/m*3 9.48 C 3.46667 km/h
3125 05-06-2020 05:00:00 8.925 C 8.17 g/m*3 8.93 C 1.33333 km/h
Sensor: Nr:Datum:Temp:Abs-Feuchte:Windchill:Wind:
Aussen-T/F 3126 05-06-2020 06:00:00 9.375 C 8.37 g/m*3 9.38 C 2.66667 km/h
3127 05-06-2020 07:00:00 10.14167 C 8.5 g/m*3 9.89 C 5.1 km/h
3128 05-06-2020 08:00:00 10.775 C 8.61 g/m*3 10.25 C 6.45 km/h
3129 05-06-2020 09:00:00 11.74167 C 8.83 g/m*3 11.74 C 9.275 km/h
3130 05-06-2020 10:00:00 12.7 C 8.97 g/m*3 12.7 C 8.19167 km/h
3131 05-06-2020 11:00:00 13.93333 C 8.79 g/m*3 13.93 C 13.83333 km/h
3132 05-06-2020 12:00:00 14.4 C 8.8 g/m*3 14.4 C 11.55 km/h
3133 05-06-2020 13:00:00 14.175 C 8.66 g/m*3 14.18 C 13.96667 km/h
3134 05-06-2020 14:00:00 13.70833 C 9.3 g/m*3 13.71 C 13.41667 km/h
3135 05-06-2020 15:00:00 13.725 C 10.11 g/m*3 13.73 C 11.14167 km/h
3136 05-06-2020 16:00:00 12.61667 C 9.79 g/m*3 12.62 C 16.90833 km/h
3137 05-06-2020 17:00:00 12.20833 C 9.91 g/m*3 12.21 C 9.81667 km/h
3138 05-06-2020 18:00:00 11.525 C 9.24 g/m*3 11.53 C 11.675 km/h
3139 05-06-2020 19:00:00 11.49167 C 9.33 g/m*3 11.49 C 8.325 km/h
3140 05-06-2020 20:00:00 11.225 C 8.89 g/m*3 11.23 C 7.25 km/h
3141 05-06-2020 21:00:00 10.4 C 8.51 g/m*3 9.28 C 9.00833 km/h